<?xml version="1.0" encoding="UTF-8" standalone="no" ?>
<gpx xmlns="http://www.topografix.com/GPX/1/1" xmlns:xsi="http://www.w3.org/2001/XMLSchema-instance" xsi:schemaLocation="http://www.topografix.com/GPX/1/1 http://www.topografix.com/GPX/1/1/gpx.xsd" version="1.1" creator="VisuGPX - https://www.visugpx.com">
  <metadata>
    <name>vendredi 6 mars 2026</name>
  </metadata>
  <trk>
    <name><![CDATA[Ainhoa-Zugararmundi-St Ignace-14060151]]></name>
    <trkseg>
      <trkpt lat="43.38656" lon="-1.66339">
        <ele>3.8</ele>
        <time>2026-02-28T09:11:45Z</time>
      </trkpt>
      <trkpt lat="43.38654" lon="-1.66335">
        <ele>3.9</ele>
        <time>2026-02-28T09:11:46Z</time>
      </trkpt>
      <trkpt lat="43.38654" lon="-1.66328">
        <ele>4</ele>
        <time>2026-02-28T09:11:47Z</time>
      </trkpt>
      <trkpt lat="43.38651" lon="-1.66328">
        <ele>4</ele>
        <time>2026-02-28T09:11:47Z</time>
      </trkpt>
      <trkpt lat="43.38636" lon="-1.66325">
        <ele>3.9</ele>
        <time>2026-02-28T09:11:50Z</time>
      </trkpt>
      <trkpt lat="43.38617" lon="-1.66317">
        <ele>3.4</ele>
        <time>2026-02-28T09:11:53Z</time>
      </trkpt>
      <trkpt lat="43.386" lon="-1.66303">
        <ele>1</ele>
        <time>2026-02-28T09:11:57Z</time>
      </trkpt>
      <trkpt lat="43.3857" lon="-1.66267">
        <ele>2</ele>
        <time>2026-02-28T09:12:04Z</time>
      </trkpt>
      <trkpt lat="43.38503" lon="-1.66208">
        <ele>4</ele>
        <time>2026-02-28T09:12:18Z</time>
      </trkpt>
      <trkpt lat="43.38496" lon="-1.66199">
        <ele>5</ele>
        <time>2026-02-28T09:12:20Z</time>
      </trkpt>
      <trkpt lat="43.38487" lon="-1.66173">
        <ele>5</ele>
        <time>2026-02-28T09:12:23Z</time>
      </trkpt>
      <trkpt lat="43.38484" lon="-1.66174">
        <ele>5</ele>
        <time>2026-02-28T09:12:24Z</time>
      </trkpt>
      <trkpt lat="43.3848" lon="-1.66172">
        <ele>5</ele>
        <time>2026-02-28T09:12:25Z</time>
      </trkpt>
      <trkpt lat="43.38478" lon="-1.66167">
        <ele>6</ele>
        <time>2026-02-28T09:12:26Z</time>
      </trkpt>
      <trkpt lat="43.38477" lon="-1.66161">
        <ele>5</ele>
        <time>2026-02-28T09:12:26Z</time>
      </trkpt>
      <trkpt lat="43.38479" lon="-1.66155">
        <ele>5</ele>
        <time>2026-02-28T09:12:27Z</time>
      </trkpt>
      <trkpt lat="43.38462" lon="-1.66121">
        <ele>5</ele>
        <time>2026-02-28T09:12:33Z</time>
      </trkpt>
      <trkpt lat="43.38445" lon="-1.66095">
        <ele>5</ele>
        <time>2026-02-28T09:12:37Z</time>
      </trkpt>
      <trkpt lat="43.38347" lon="-1.65961">
        <ele>6</ele>
        <time>2026-02-28T09:13:02Z</time>
      </trkpt>
      <trkpt lat="43.3834" lon="-1.65943">
        <ele>6</ele>
        <time>2026-02-28T09:13:04Z</time>
      </trkpt>
      <trkpt lat="43.38336" lon="-1.65944">
        <ele>6</ele>
        <time>2026-02-28T09:13:05Z</time>
      </trkpt>
      <trkpt lat="43.3833" lon="-1.65941">
        <ele>6</ele>
        <time>2026-02-28T09:13:06Z</time>
      </trkpt>
      <trkpt lat="43.38328" lon="-1.65932">
        <ele>6</ele>
        <time>2026-02-28T09:13:07Z</time>
      </trkpt>
      <trkpt lat="43.3833" lon="-1.65928">
        <ele>6</ele>
        <time>2026-02-28T09:13:08Z</time>
      </trkpt>
      <trkpt lat="43.38324" lon="-1.65923">
        <ele>6</ele>
        <time>2026-02-28T09:13:09Z</time>
      </trkpt>
      <trkpt lat="43.38309" lon="-1.65902">
        <ele>5</ele>
        <time>2026-02-28T09:13:13Z</time>
      </trkpt>
      <trkpt lat="43.38298" lon="-1.65877">
        <ele>4</ele>
        <time>2026-02-28T09:13:17Z</time>
      </trkpt>
      <trkpt lat="43.38234" lon="-1.65703">
        <ele>4</ele>
        <time>2026-02-28T09:13:42Z</time>
      </trkpt>
      <trkpt lat="43.38233" lon="-1.65687">
        <ele>4</ele>
        <time>2026-02-28T09:13:44Z</time>
      </trkpt>
      <trkpt lat="43.38236" lon="-1.65679">
        <ele>4</ele>
        <time>2026-02-28T09:13:45Z</time>
      </trkpt>
      <trkpt lat="43.38351" lon="-1.65522">
        <ele>4</ele>
        <time>2026-02-28T09:14:14Z</time>
      </trkpt>
      <trkpt lat="43.38357" lon="-1.65509">
        <ele>4</ele>
        <time>2026-02-28T09:14:16Z</time>
      </trkpt>
      <trkpt lat="43.38352" lon="-1.65508">
        <ele>4</ele>
        <time>2026-02-28T09:14:17Z</time>
      </trkpt>
      <trkpt lat="43.38328" lon="-1.65473">
        <ele>4</ele>
        <time>2026-02-28T09:14:23Z</time>
      </trkpt>
      <trkpt lat="43.38325" lon="-1.65465">
        <ele>4</ele>
        <time>2026-02-28T09:14:24Z</time>
      </trkpt>
      <trkpt lat="43.38327" lon="-1.65457">
        <ele>4</ele>
        <time>2026-02-28T09:14:25Z</time>
      </trkpt>
      <trkpt lat="43.38331" lon="-1.65453">
        <ele>5</ele>
        <time>2026-02-28T09:14:26Z</time>
      </trkpt>
      <trkpt lat="43.3837" lon="-1.65376">
        <ele>5</ele>
        <time>2026-02-28T09:14:38Z</time>
      </trkpt>
      <trkpt lat="43.3839" lon="-1.65332">
        <ele>6</ele>
        <time>2026-02-28T09:14:45Z</time>
      </trkpt>
      <trkpt lat="43.38394" lon="-1.65317">
        <ele>8</ele>
        <time>2026-02-28T09:14:47Z</time>
      </trkpt>
      <trkpt lat="43.38392" lon="-1.65295">
        <ele>10</ele>
        <time>2026-02-28T09:14:50Z</time>
      </trkpt>
      <trkpt lat="43.38384" lon="-1.65266">
        <ele>13</ele>
        <time>2026-02-28T09:14:54Z</time>
      </trkpt>
      <trkpt lat="43.38365" lon="-1.65248">
        <ele>13</ele>
        <time>2026-02-28T09:14:58Z</time>
      </trkpt>
      <trkpt lat="43.38343" lon="-1.652">
        <ele>12</ele>
        <time>2026-02-28T09:15:06Z</time>
      </trkpt>
      <trkpt lat="43.38276" lon="-1.65016">
        <ele>9</ele>
        <time>2026-02-28T09:15:32Z</time>
      </trkpt>
      <trkpt lat="43.3826" lon="-1.64971">
        <ele>8</ele>
        <time>2026-02-28T09:15:39Z</time>
      </trkpt>
      <trkpt lat="43.38254" lon="-1.64945">
        <ele>8</ele>
        <time>2026-02-28T09:15:42Z</time>
      </trkpt>
      <trkpt lat="43.38252" lon="-1.64928">
        <ele>8</ele>
        <time>2026-02-28T09:15:44Z</time>
      </trkpt>
      <trkpt lat="43.38255" lon="-1.6488">
        <ele>9</ele>
        <time>2026-02-28T09:15:51Z</time>
      </trkpt>
      <trkpt lat="43.38273" lon="-1.64701">
        <ele>7</ele>
        <time>2026-02-28T09:16:14Z</time>
      </trkpt>
      <trkpt lat="43.3828" lon="-1.64595">
        <ele>8</ele>
        <time>2026-02-28T09:16:28Z</time>
      </trkpt>
      <trkpt lat="43.38277" lon="-1.64488">
        <ele>10</ele>
        <time>2026-02-28T09:16:42Z</time>
      </trkpt>
      <trkpt lat="43.38272" lon="-1.64424">
        <ele>8</ele>
        <time>2026-02-28T09:16:50Z</time>
      </trkpt>
      <trkpt lat="43.38264" lon="-1.64383">
        <ele>7</ele>
        <time>2026-02-28T09:16:55Z</time>
      </trkpt>
      <trkpt lat="43.3825" lon="-1.64341">
        <ele>5</ele>
        <time>2026-02-28T09:17:01Z</time>
      </trkpt>
      <trkpt lat="43.38232" lon="-1.64309">
        <ele>5</ele>
        <time>2026-02-28T09:17:07Z</time>
      </trkpt>
      <trkpt lat="43.38212" lon="-1.64283">
        <ele>5</ele>
        <time>2026-02-28T09:17:12Z</time>
      </trkpt>
      <trkpt lat="43.38155" lon="-1.6423">
        <ele>6</ele>
        <time>2026-02-28T09:17:24Z</time>
      </trkpt>
      <trkpt lat="43.3812" lon="-1.64193">
        <ele>6</ele>
        <time>2026-02-28T09:17:32Z</time>
      </trkpt>
      <trkpt lat="43.38056" lon="-1.64058">
        <ele>9</ele>
        <time>2026-02-28T09:17:52Z</time>
      </trkpt>
      <trkpt lat="43.37906" lon="-1.63917">
        <ele>6</ele>
        <time>2026-02-28T09:18:25Z</time>
      </trkpt>
      <trkpt lat="43.37776" lon="-1.63786">
        <ele>8</ele>
        <time>2026-02-28T09:18:53Z</time>
      </trkpt>
      <trkpt lat="43.37759" lon="-1.63774">
        <ele>8</ele>
        <time>2026-02-28T09:18:57Z</time>
      </trkpt>
      <trkpt lat="43.37738" lon="-1.63772">
        <ele>8</ele>
        <time>2026-02-28T09:19:01Z</time>
      </trkpt>
      <trkpt lat="43.37642" lon="-1.63776">
        <ele>6</ele>
        <time>2026-02-28T09:19:18Z</time>
      </trkpt>
      <trkpt lat="43.37604" lon="-1.63785">
        <ele>6</ele>
        <time>2026-02-28T09:19:25Z</time>
      </trkpt>
      <trkpt lat="43.37541" lon="-1.63786">
        <ele>5</ele>
        <time>2026-02-28T09:19:36Z</time>
      </trkpt>
      <trkpt lat="43.37526" lon="-1.63781">
        <ele>5</ele>
        <time>2026-02-28T09:19:39Z</time>
      </trkpt>
      <trkpt lat="43.37517" lon="-1.6379">
        <ele>4</ele>
        <time>2026-02-28T09:19:41Z</time>
      </trkpt>
      <trkpt lat="43.3751" lon="-1.63791">
        <ele>4</ele>
        <time>2026-02-28T09:19:42Z</time>
      </trkpt>
      <trkpt lat="43.37445" lon="-1.63794">
        <ele>4</ele>
        <time>2026-02-28T09:19:53Z</time>
      </trkpt>
      <trkpt lat="43.37409" lon="-1.63788">
        <ele>4</ele>
        <time>2026-02-28T09:20:00Z</time>
      </trkpt>
      <trkpt lat="43.37111" lon="-1.63806">
        <ele>5</ele>
        <time>2026-02-28T09:20:53Z</time>
      </trkpt>
      <trkpt lat="43.37085" lon="-1.63801">
        <ele>6</ele>
        <time>2026-02-28T09:20:58Z</time>
      </trkpt>
      <trkpt lat="43.37067" lon="-1.63794">
        <ele>6</ele>
        <time>2026-02-28T09:21:01Z</time>
      </trkpt>
      <trkpt lat="43.36753" lon="-1.63597">
        <ele>7</ele>
        <time>2026-02-28T09:22:02Z</time>
      </trkpt>
      <trkpt lat="43.36709" lon="-1.63582">
        <ele>8</ele>
        <time>2026-02-28T09:22:10Z</time>
      </trkpt>
      <trkpt lat="43.36675" lon="-1.63576">
        <ele>8</ele>
        <time>2026-02-28T09:22:16Z</time>
      </trkpt>
      <trkpt lat="43.36638" lon="-1.63578">
        <ele>7</ele>
        <time>2026-02-28T09:22:23Z</time>
      </trkpt>
      <trkpt lat="43.36595" lon="-1.63589">
        <ele>5</ele>
        <time>2026-02-28T09:22:31Z</time>
      </trkpt>
      <trkpt lat="43.36349" lon="-1.63669">
        <ele>7</ele>
        <time>2026-02-28T09:23:16Z</time>
      </trkpt>
      <trkpt lat="43.36308" lon="-1.63673">
        <ele>7</ele>
        <time>2026-02-28T09:23:23Z</time>
      </trkpt>
      <trkpt lat="43.36277" lon="-1.63671">
        <ele>6</ele>
        <time>2026-02-28T09:23:29Z</time>
      </trkpt>
      <trkpt lat="43.36255" lon="-1.63666">
        <ele>6</ele>
        <time>2026-02-28T09:23:33Z</time>
      </trkpt>
      <trkpt lat="43.36097" lon="-1.63603">
        <ele>5</ele>
        <time>2026-02-28T09:24:02Z</time>
      </trkpt>
      <trkpt lat="43.36075" lon="-1.63589">
        <ele>5</ele>
        <time>2026-02-28T09:24:06Z</time>
      </trkpt>
      <trkpt lat="43.36061" lon="-1.63577">
        <ele>5</ele>
        <time>2026-02-28T09:24:09Z</time>
      </trkpt>
      <trkpt lat="43.36039" lon="-1.63549">
        <ele>6</ele>
        <time>2026-02-28T09:24:14Z</time>
      </trkpt>
      <trkpt lat="43.36029" lon="-1.63531">
        <ele>6</ele>
        <time>2026-02-28T09:24:17Z</time>
      </trkpt>
      <trkpt lat="43.36014" lon="-1.63501">
        <ele>6</ele>
        <time>2026-02-28T09:24:22Z</time>
      </trkpt>
      <trkpt lat="43.35995" lon="-1.63453">
        <ele>8</ele>
        <time>2026-02-28T09:24:29Z</time>
      </trkpt>
      <trkpt lat="43.35984" lon="-1.63434">
        <ele>8</ele>
        <time>2026-02-28T09:24:32Z</time>
      </trkpt>
      <trkpt lat="43.35935" lon="-1.63358">
        <ele>9</ele>
        <time>2026-02-28T09:24:45Z</time>
      </trkpt>
      <trkpt lat="43.35921" lon="-1.63341">
        <ele>8</ele>
        <time>2026-02-28T09:24:49Z</time>
      </trkpt>
      <trkpt lat="43.35859" lon="-1.6328">
        <ele>9</ele>
        <time>2026-02-28T09:25:02Z</time>
      </trkpt>
      <trkpt lat="43.35789" lon="-1.63219">
        <ele>9</ele>
        <time>2026-02-28T09:25:17Z</time>
      </trkpt>
      <trkpt lat="43.3575" lon="-1.63192">
        <ele>7</ele>
        <time>2026-02-28T09:25:25Z</time>
      </trkpt>
      <trkpt lat="43.35728" lon="-1.63183">
        <ele>7</ele>
        <time>2026-02-28T09:25:29Z</time>
      </trkpt>
      <trkpt lat="43.35673" lon="-1.63163">
        <ele>6</ele>
        <time>2026-02-28T09:25:39Z</time>
      </trkpt>
      <trkpt lat="43.35667" lon="-1.63163">
        <ele>6</ele>
        <time>2026-02-28T09:25:40Z</time>
      </trkpt>
      <trkpt lat="43.35663" lon="-1.63166">
        <ele>6</ele>
        <time>2026-02-28T09:25:41Z</time>
      </trkpt>
      <trkpt lat="43.35657" lon="-1.63166">
        <ele>6</ele>
        <time>2026-02-28T09:25:42Z</time>
      </trkpt>
      <trkpt lat="43.35638" lon="-1.63154">
        <ele>6</ele>
        <time>2026-02-28T09:25:46Z</time>
      </trkpt>
      <trkpt lat="43.3544" lon="-1.63097">
        <ele>6</ele>
        <time>2026-02-28T09:26:22Z</time>
      </trkpt>
      <trkpt lat="43.35403" lon="-1.63082">
        <ele>7</ele>
        <time>2026-02-28T09:26:29Z</time>
      </trkpt>
      <trkpt lat="43.35386" lon="-1.63073">
        <ele>7</ele>
        <time>2026-02-28T09:26:32Z</time>
      </trkpt>
      <trkpt lat="43.3535" lon="-1.63044">
        <ele>7</ele>
        <time>2026-02-28T09:26:39Z</time>
      </trkpt>
      <trkpt lat="43.35306" lon="-1.62998">
        <ele>6</ele>
        <time>2026-02-28T09:26:49Z</time>
      </trkpt>
      <trkpt lat="43.35289" lon="-1.62974">
        <ele>6</ele>
        <time>2026-02-28T09:26:53Z</time>
      </trkpt>
      <trkpt lat="43.35268" lon="-1.62932">
        <ele>6</ele>
        <time>2026-02-28T09:27:00Z</time>
      </trkpt>
      <trkpt lat="43.35255" lon="-1.629">
        <ele>6</ele>
        <time>2026-02-28T09:27:05Z</time>
      </trkpt>
      <trkpt lat="43.35207" lon="-1.62759">
        <ele>8</ele>
        <time>2026-02-28T09:27:25Z</time>
      </trkpt>
      <trkpt lat="43.35118" lon="-1.62528">
        <ele>12</ele>
        <time>2026-02-28T09:27:59Z</time>
      </trkpt>
      <trkpt lat="43.35108" lon="-1.62493">
        <ele>11</ele>
        <time>2026-02-28T09:28:04Z</time>
      </trkpt>
      <trkpt lat="43.35103" lon="-1.62461">
        <ele>10</ele>
        <time>2026-02-28T09:28:08Z</time>
      </trkpt>
      <trkpt lat="43.35103" lon="-1.62402">
        <ele>11</ele>
        <time>2026-02-28T09:28:15Z</time>
      </trkpt>
      <trkpt lat="43.35109" lon="-1.62334">
        <ele>10</ele>
        <time>2026-02-28T09:28:24Z</time>
      </trkpt>
      <trkpt lat="43.35118" lon="-1.62308">
        <ele>11</ele>
        <time>2026-02-28T09:28:28Z</time>
      </trkpt>
      <trkpt lat="43.35181" lon="-1.62185">
        <ele>11</ele>
        <time>2026-02-28T09:28:47Z</time>
      </trkpt>
      <trkpt lat="43.35201" lon="-1.62157">
        <ele>12</ele>
        <time>2026-02-28T09:28:53Z</time>
      </trkpt>
      <trkpt lat="43.35214" lon="-1.62143">
        <ele>12</ele>
        <time>2026-02-28T09:28:55Z</time>
      </trkpt>
      <trkpt lat="43.3524" lon="-1.62126">
        <ele>14</ele>
        <time>2026-02-28T09:29:01Z</time>
      </trkpt>
      <trkpt lat="43.35407" lon="-1.6206">
        <ele>21</ele>
        <time>2026-02-28T09:29:32Z</time>
      </trkpt>
      <trkpt lat="43.35432" lon="-1.62045">
        <ele>21</ele>
        <time>2026-02-28T09:29:36Z</time>
      </trkpt>
      <trkpt lat="43.35486" lon="-1.62001">
        <ele>18</ele>
        <time>2026-02-28T09:29:48Z</time>
      </trkpt>
      <trkpt lat="43.35515" lon="-1.61963">
        <ele>18</ele>
        <time>2026-02-28T09:29:55Z</time>
      </trkpt>
      <trkpt lat="43.35787" lon="-1.61535">
        <ele>14</ele>
        <time>2026-02-28T09:31:08Z</time>
      </trkpt>
      <trkpt lat="43.35815" lon="-1.61503">
        <ele>12</ele>
        <time>2026-02-28T09:31:15Z</time>
      </trkpt>
      <trkpt lat="43.35913" lon="-1.61419">
        <ele>16</ele>
        <time>2026-02-28T09:31:35Z</time>
      </trkpt>
      <trkpt lat="43.35934" lon="-1.61396">
        <ele>16</ele>
        <time>2026-02-28T09:31:40Z</time>
      </trkpt>
      <trkpt lat="43.36033" lon="-1.61268">
        <ele>11</ele>
        <time>2026-02-28T09:32:04Z</time>
      </trkpt>
      <trkpt lat="43.36051" lon="-1.61238">
        <ele>11</ele>
        <time>2026-02-28T09:32:09Z</time>
      </trkpt>
      <trkpt lat="43.36075" lon="-1.61188">
        <ele>12</ele>
        <time>2026-02-28T09:32:17Z</time>
      </trkpt>
      <trkpt lat="43.36091" lon="-1.61139">
        <ele>13</ele>
        <time>2026-02-28T09:32:24Z</time>
      </trkpt>
      <trkpt lat="43.36101" lon="-1.61078">
        <ele>15</ele>
        <time>2026-02-28T09:32:32Z</time>
      </trkpt>
      <trkpt lat="43.36105" lon="-1.61018">
        <ele>17</ele>
        <time>2026-02-28T09:32:40Z</time>
      </trkpt>
      <trkpt lat="43.36113" lon="-1.60838">
        <ele>16</ele>
        <time>2026-02-28T09:33:03Z</time>
      </trkpt>
      <trkpt lat="43.36119" lon="-1.6075">
        <ele>18</ele>
        <time>2026-02-28T09:33:15Z</time>
      </trkpt>
      <trkpt lat="43.36118" lon="-1.60724">
        <ele>18</ele>
        <time>2026-02-28T09:33:18Z</time>
      </trkpt>
      <trkpt lat="43.36104" lon="-1.60585">
        <ele>18</ele>
        <time>2026-02-28T09:33:36Z</time>
      </trkpt>
      <trkpt lat="43.36102" lon="-1.60551">
        <ele>17</ele>
        <time>2026-02-28T09:33:41Z</time>
      </trkpt>
      <trkpt lat="43.36102" lon="-1.60518">
        <ele>17</ele>
        <time>2026-02-28T09:33:45Z</time>
      </trkpt>
      <trkpt lat="43.36103" lon="-1.60494">
        <ele>17</ele>
        <time>2026-02-28T09:33:48Z</time>
      </trkpt>
      <trkpt lat="43.36109" lon="-1.60462">
        <ele>16</ele>
        <time>2026-02-28T09:33:52Z</time>
      </trkpt>
      <trkpt lat="43.36116" lon="-1.60439">
        <ele>16</ele>
        <time>2026-02-28T09:33:55Z</time>
      </trkpt>
      <trkpt lat="43.36126" lon="-1.60409">
        <ele>15</ele>
        <time>2026-02-28T09:34:00Z</time>
      </trkpt>
      <trkpt lat="43.36138" lon="-1.60384">
        <ele>15</ele>
        <time>2026-02-28T09:34:04Z</time>
      </trkpt>
      <trkpt lat="43.36153" lon="-1.60362">
        <ele>14</ele>
        <time>2026-02-28T09:34:07Z</time>
      </trkpt>
      <trkpt lat="43.36173" lon="-1.60338">
        <ele>13</ele>
        <time>2026-02-28T09:34:12Z</time>
      </trkpt>
      <trkpt lat="43.36211" lon="-1.60302">
        <ele>16</ele>
        <time>2026-02-28T09:34:20Z</time>
      </trkpt>
      <trkpt lat="43.36218" lon="-1.60322">
        <ele>18</ele>
        <time>2026-02-28T09:34:23Z</time>
      </trkpt>
      <trkpt lat="43.36208" lon="-1.60334">
        <ele>17</ele>
        <time>2026-02-28T09:34:26Z</time>
      </trkpt>
      <trkpt lat="43.3617" lon="-1.60357">
        <ele>15</ele>
        <time>2026-02-28T09:34:33Z</time>
      </trkpt>
      <trkpt lat="43.36208" lon="-1.60334">
        <ele>17</ele>
        <time>2026-02-28T09:34:40Z</time>
      </trkpt>
      <trkpt lat="43.36249" lon="-1.60293">
        <ele>19</ele>
        <time>2026-02-28T09:34:49Z</time>
      </trkpt>
      <trkpt lat="43.3629" lon="-1.60246">
        <ele>22</ele>
        <time>2026-02-28T09:34:59Z</time>
      </trkpt>
      <trkpt lat="43.36296" lon="-1.60236">
        <ele>22</ele>
        <time>2026-02-28T09:35:01Z</time>
      </trkpt>
      <trkpt lat="43.36299" lon="-1.60225">
        <ele>21</ele>
        <time>2026-02-28T09:35:02Z</time>
      </trkpt>
      <trkpt lat="43.36316" lon="-1.60201">
        <ele>20</ele>
        <time>2026-02-28T09:35:06Z</time>
      </trkpt>
      <trkpt lat="43.36336" lon="-1.60166">
        <ele>16</ele>
        <time>2026-02-28T09:35:12Z</time>
      </trkpt>
      <trkpt lat="43.36371" lon="-1.60073">
        <ele>15</ele>
        <time>2026-02-28T09:35:26Z</time>
      </trkpt>
      <trkpt lat="43.36387" lon="-1.60042">
        <ele>15</ele>
        <time>2026-02-28T09:35:31Z</time>
      </trkpt>
      <trkpt lat="43.36404" lon="-1.60015">
        <ele>14</ele>
        <time>2026-02-28T09:35:35Z</time>
      </trkpt>
      <trkpt lat="43.36418" lon="-1.59996">
        <ele>13</ele>
        <time>2026-02-28T09:35:39Z</time>
      </trkpt>
      <trkpt lat="43.36447" lon="-1.59965">
        <ele>14</ele>
        <time>2026-02-28T09:35:45Z</time>
      </trkpt>
      <trkpt lat="43.36476" lon="-1.5994">
        <ele>14</ele>
        <time>2026-02-28T09:35:51Z</time>
      </trkpt>
      <trkpt lat="43.36533" lon="-1.59897">
        <ele>16</ele>
        <time>2026-02-28T09:36:03Z</time>
      </trkpt>
      <trkpt lat="43.36549" lon="-1.59873">
        <ele>17</ele>
        <time>2026-02-28T09:36:07Z</time>
      </trkpt>
      <trkpt lat="43.36562" lon="-1.59843">
        <ele>18</ele>
        <time>2026-02-28T09:36:12Z</time>
      </trkpt>
      <trkpt lat="43.36567" lon="-1.59809">
        <ele>18</ele>
        <time>2026-02-28T09:36:16Z</time>
      </trkpt>
      <trkpt lat="43.36588" lon="-1.59546">
        <ele>11</ele>
        <time>2026-02-28T09:36:50Z</time>
      </trkpt>
      <trkpt lat="43.36592" lon="-1.59482">
        <ele>9</ele>
        <time>2026-02-28T09:36:59Z</time>
      </trkpt>
      <trkpt lat="43.36589" lon="-1.5943">
        <ele>9</ele>
        <time>2026-02-28T09:37:05Z</time>
      </trkpt>
      <trkpt lat="43.36581" lon="-1.59376">
        <ele>9</ele>
        <time>2026-02-28T09:37:13Z</time>
      </trkpt>
      <trkpt lat="43.36482" lon="-1.59044">
        <ele>9</ele>
        <time>2026-02-28T09:37:59Z</time>
      </trkpt>
      <trkpt lat="43.3646" lon="-1.58976">
        <ele>11</ele>
        <time>2026-02-28T09:38:09Z</time>
      </trkpt>
      <trkpt lat="43.36444" lon="-1.58941">
        <ele>12</ele>
        <time>2026-02-28T09:38:14Z</time>
      </trkpt>
      <trkpt lat="43.36427" lon="-1.58913">
        <ele>13</ele>
        <time>2026-02-28T09:38:19Z</time>
      </trkpt>
      <trkpt lat="43.36402" lon="-1.58885">
        <ele>17</ele>
        <time>2026-02-28T09:38:24Z</time>
      </trkpt>
      <trkpt lat="43.36308" lon="-1.58801">
        <ele>19</ele>
        <time>2026-02-28T09:38:44Z</time>
      </trkpt>
      <trkpt lat="43.3628" lon="-1.58766">
        <ele>18</ele>
        <time>2026-02-28T09:38:51Z</time>
      </trkpt>
      <trkpt lat="43.36257" lon="-1.58723">
        <ele>14</ele>
        <time>2026-02-28T09:38:58Z</time>
      </trkpt>
      <trkpt lat="43.36164" lon="-1.58429">
        <ele>12</ele>
        <time>2026-02-28T09:39:39Z</time>
      </trkpt>
      <trkpt lat="43.36139" lon="-1.58363">
        <ele>12</ele>
        <time>2026-02-28T09:39:49Z</time>
      </trkpt>
      <trkpt lat="43.36129" lon="-1.58341">
        <ele>12</ele>
        <time>2026-02-28T09:39:52Z</time>
      </trkpt>
      <trkpt lat="43.36109" lon="-1.58303">
        <ele>12</ele>
        <time>2026-02-28T09:39:59Z</time>
      </trkpt>
      <trkpt lat="43.36003" lon="-1.58148">
        <ele>11</ele>
        <time>2026-02-28T09:40:26Z</time>
      </trkpt>
      <trkpt lat="43.35894" lon="-1.57993">
        <ele>11</ele>
        <time>2026-02-28T09:40:54Z</time>
      </trkpt>
      <trkpt lat="43.35882" lon="-1.57972">
        <ele>11</ele>
        <time>2026-02-28T09:40:57Z</time>
      </trkpt>
      <trkpt lat="43.35852" lon="-1.57913">
        <ele>12</ele>
        <time>2026-02-28T09:41:07Z</time>
      </trkpt>
      <trkpt lat="43.35838" lon="-1.57869">
        <ele>11</ele>
        <time>2026-02-28T09:41:13Z</time>
      </trkpt>
      <trkpt lat="43.35807" lon="-1.5772">
        <ele>12</ele>
        <time>2026-02-28T09:41:33Z</time>
      </trkpt>
      <trkpt lat="43.35782" lon="-1.57586">
        <ele>13</ele>
        <time>2026-02-28T09:41:51Z</time>
      </trkpt>
      <trkpt lat="43.35779" lon="-1.57552">
        <ele>13</ele>
        <time>2026-02-28T09:41:55Z</time>
      </trkpt>
      <trkpt lat="43.35779" lon="-1.57526">
        <ele>13</ele>
        <time>2026-02-28T09:41:59Z</time>
      </trkpt>
      <trkpt lat="43.35774" lon="-1.5748">
        <ele>13</ele>
        <time>2026-02-28T09:42:05Z</time>
      </trkpt>
      <trkpt lat="43.3577" lon="-1.57476">
        <ele>13</ele>
        <time>2026-02-28T09:42:06Z</time>
      </trkpt>
      <trkpt lat="43.35768" lon="-1.57469">
        <ele>13</ele>
        <time>2026-02-28T09:42:07Z</time>
      </trkpt>
      <trkpt lat="43.35771" lon="-1.57459">
        <ele>13</ele>
        <time>2026-02-28T09:42:08Z</time>
      </trkpt>
      <trkpt lat="43.35767" lon="-1.57433">
        <ele>13</ele>
        <time>2026-02-28T09:42:11Z</time>
      </trkpt>
      <trkpt lat="43.35763" lon="-1.57418">
        <ele>13</ele>
        <time>2026-02-28T09:42:13Z</time>
      </trkpt>
      <trkpt lat="43.35745" lon="-1.57225">
        <ele>14</ele>
        <time>2026-02-28T09:42:39Z</time>
      </trkpt>
      <trkpt lat="43.3574" lon="-1.57189">
        <ele>15</ele>
        <time>2026-02-28T09:42:43Z</time>
      </trkpt>
      <trkpt lat="43.35733" lon="-1.5716">
        <ele>15</ele>
        <time>2026-02-28T09:42:47Z</time>
      </trkpt>
      <trkpt lat="43.35723" lon="-1.57132">
        <ele>15</ele>
        <time>2026-02-28T09:42:51Z</time>
      </trkpt>
      <trkpt lat="43.35625" lon="-1.56922">
        <ele>17</ele>
        <time>2026-02-28T09:43:24Z</time>
      </trkpt>
      <trkpt lat="43.35597" lon="-1.56872">
        <ele>17</ele>
        <time>2026-02-28T09:43:32Z</time>
      </trkpt>
      <trkpt lat="43.35588" lon="-1.56851">
        <ele>17</ele>
        <time>2026-02-28T09:43:35Z</time>
      </trkpt>
      <trkpt lat="43.35586" lon="-1.56839">
        <ele>17</ele>
        <time>2026-02-28T09:43:37Z</time>
      </trkpt>
      <trkpt lat="43.35585" lon="-1.56813">
        <ele>17</ele>
        <time>2026-02-28T09:43:40Z</time>
      </trkpt>
      <trkpt lat="43.35589" lon="-1.56787">
        <ele>17</ele>
        <time>2026-02-28T09:43:43Z</time>
      </trkpt>
      <trkpt lat="43.35608" lon="-1.56729">
        <ele>18</ele>
        <time>2026-02-28T09:43:52Z</time>
      </trkpt>
      <trkpt lat="43.35617" lon="-1.56692">
        <ele>19</ele>
        <time>2026-02-28T09:43:57Z</time>
      </trkpt>
      <trkpt lat="43.35625" lon="-1.56642">
        <ele>19</ele>
        <time>2026-02-28T09:44:03Z</time>
      </trkpt>
      <trkpt lat="43.35624" lon="-1.56615">
        <ele>19</ele>
        <time>2026-02-28T09:44:07Z</time>
      </trkpt>
      <trkpt lat="43.35619" lon="-1.56612">
        <ele>19</ele>
        <time>2026-02-28T09:44:08Z</time>
      </trkpt>
      <trkpt lat="43.35615" lon="-1.56601">
        <ele>19</ele>
        <time>2026-02-28T09:44:09Z</time>
      </trkpt>
      <trkpt lat="43.35617" lon="-1.56593">
        <ele>19</ele>
        <time>2026-02-28T09:44:10Z</time>
      </trkpt>
      <trkpt lat="43.35621" lon="-1.56588">
        <ele>19</ele>
        <time>2026-02-28T09:44:11Z</time>
      </trkpt>
      <trkpt lat="43.35624" lon="-1.56587">
        <ele>19</ele>
        <time>2026-02-28T09:44:12Z</time>
      </trkpt>
      <trkpt lat="43.35622" lon="-1.56558">
        <ele>19</ele>
        <time>2026-02-28T09:44:16Z</time>
      </trkpt>
      <trkpt lat="43.35622" lon="-1.56509">
        <ele>19</ele>
        <time>2026-02-28T09:44:22Z</time>
      </trkpt>
      <trkpt lat="43.35615" lon="-1.56214">
        <ele>19</ele>
        <time>2026-02-28T09:45:00Z</time>
      </trkpt>
      <trkpt lat="43.35617" lon="-1.5617">
        <ele>19</ele>
        <time>2026-02-28T09:45:06Z</time>
      </trkpt>
      <trkpt lat="43.35623" lon="-1.56133">
        <ele>18</ele>
        <time>2026-02-28T09:45:11Z</time>
      </trkpt>
      <trkpt lat="43.35625" lon="-1.56126">
        <ele>18</ele>
        <time>2026-02-28T09:45:12Z</time>
      </trkpt>
      <trkpt lat="43.35635" lon="-1.56106">
        <ele>18</ele>
        <time>2026-02-28T09:45:15Z</time>
      </trkpt>
      <trkpt lat="43.35652" lon="-1.56086">
        <ele>18</ele>
        <time>2026-02-28T09:45:19Z</time>
      </trkpt>
      <trkpt lat="43.35721" lon="-1.56041">
        <ele>19</ele>
        <time>2026-02-28T09:45:33Z</time>
      </trkpt>
      <trkpt lat="43.3573" lon="-1.56032">
        <ele>19</ele>
        <time>2026-02-28T09:45:34Z</time>
      </trkpt>
      <trkpt lat="43.35734" lon="-1.56023">
        <ele>19</ele>
        <time>2026-02-28T09:45:36Z</time>
      </trkpt>
      <trkpt lat="43.35739" lon="-1.56006">
        <ele>18</ele>
        <time>2026-02-28T09:45:38Z</time>
      </trkpt>
      <trkpt lat="43.35737" lon="-1.55994">
        <ele>17</ele>
        <time>2026-02-28T09:45:40Z</time>
      </trkpt>
      <trkpt lat="43.35718" lon="-1.5597">
        <ele>16</ele>
        <time>2026-02-28T09:45:44Z</time>
      </trkpt>
      <trkpt lat="43.35682" lon="-1.55941">
        <ele>16</ele>
        <time>2026-02-28T09:45:52Z</time>
      </trkpt>
      <trkpt lat="43.35646" lon="-1.55913">
        <ele>16</ele>
        <time>2026-02-28T09:45:59Z</time>
      </trkpt>
      <trkpt lat="43.35632" lon="-1.55899">
        <ele>15</ele>
        <time>2026-02-28T09:46:02Z</time>
      </trkpt>
      <trkpt lat="43.35606" lon="-1.55857">
        <ele>15</ele>
        <time>2026-02-28T09:46:09Z</time>
      </trkpt>
      <trkpt lat="43.35592" lon="-1.55814">
        <ele>15</ele>
        <time>2026-02-28T09:46:16Z</time>
      </trkpt>
      <trkpt lat="43.35588" lon="-1.55791">
        <ele>16</ele>
        <time>2026-02-28T09:46:19Z</time>
      </trkpt>
      <trkpt lat="43.35585" lon="-1.55731">
        <ele>16</ele>
        <time>2026-02-28T09:46:26Z</time>
      </trkpt>
      <trkpt lat="43.35581" lon="-1.55514">
        <ele>13</ele>
        <time>2026-02-28T09:46:54Z</time>
      </trkpt>
      <trkpt lat="43.35579" lon="-1.55487">
        <ele>14</ele>
        <time>2026-02-28T09:46:58Z</time>
      </trkpt>
      <trkpt lat="43.35574" lon="-1.55465">
        <ele>14</ele>
        <time>2026-02-28T09:47:01Z</time>
      </trkpt>
      <trkpt lat="43.35563" lon="-1.55444">
        <ele>15</ele>
        <time>2026-02-28T09:47:04Z</time>
      </trkpt>
      <trkpt lat="43.35552" lon="-1.55434">
        <ele>15</ele>
        <time>2026-02-28T09:47:07Z</time>
      </trkpt>
      <trkpt lat="43.35547" lon="-1.55433">
        <ele>15</ele>
        <time>2026-02-28T09:47:08Z</time>
      </trkpt>
      <trkpt lat="43.3554" lon="-1.55426">
        <ele>15</ele>
        <time>2026-02-28T09:47:09Z</time>
      </trkpt>
      <trkpt lat="43.35537" lon="-1.55419">
        <ele>15</ele>
        <time>2026-02-28T09:47:10Z</time>
      </trkpt>
      <trkpt lat="43.35537" lon="-1.55411">
        <ele>16</ele>
        <time>2026-02-28T09:47:11Z</time>
      </trkpt>
      <trkpt lat="43.35523" lon="-1.55388">
        <ele>16</ele>
        <time>2026-02-28T09:47:15Z</time>
      </trkpt>
      <trkpt lat="43.35509" lon="-1.55378">
        <ele>16</ele>
        <time>2026-02-28T09:47:18Z</time>
      </trkpt>
      <trkpt lat="43.35496" lon="-1.55373">
        <ele>16</ele>
        <time>2026-02-28T09:47:20Z</time>
      </trkpt>
      <trkpt lat="43.35483" lon="-1.5537">
        <ele>16</ele>
        <time>2026-02-28T09:47:23Z</time>
      </trkpt>
      <trkpt lat="43.35456" lon="-1.55371">
        <ele>16</ele>
        <time>2026-02-28T09:47:27Z</time>
      </trkpt>
      <trkpt lat="43.35398" lon="-1.5538">
        <ele>16</ele>
        <time>2026-02-28T09:47:38Z</time>
      </trkpt>
      <trkpt lat="43.35369" lon="-1.55382">
        <ele>16</ele>
        <time>2026-02-28T09:47:43Z</time>
      </trkpt>
      <trkpt lat="43.35338" lon="-1.55377">
        <ele>16</ele>
        <time>2026-02-28T09:47:48Z</time>
      </trkpt>
      <trkpt lat="43.35313" lon="-1.55363">
        <ele>17</ele>
        <time>2026-02-28T09:47:53Z</time>
      </trkpt>
      <trkpt lat="43.35293" lon="-1.55347">
        <ele>17</ele>
        <time>2026-02-28T09:47:57Z</time>
      </trkpt>
      <trkpt lat="43.35274" lon="-1.55324">
        <ele>18</ele>
        <time>2026-02-28T09:48:02Z</time>
      </trkpt>
      <trkpt lat="43.35261" lon="-1.55301">
        <ele>17</ele>
        <time>2026-02-28T09:48:06Z</time>
      </trkpt>
      <trkpt lat="43.35241" lon="-1.55255">
        <ele>17</ele>
        <time>2026-02-28T09:48:13Z</time>
      </trkpt>
      <trkpt lat="43.35211" lon="-1.55188">
        <ele>16</ele>
        <time>2026-02-28T09:48:23Z</time>
      </trkpt>
      <trkpt lat="43.35123" lon="-1.5499">
        <ele>18</ele>
        <time>2026-02-28T09:48:53Z</time>
      </trkpt>
      <trkpt lat="43.35117" lon="-1.54993">
        <ele>18</ele>
        <time>2026-02-28T09:48:54Z</time>
      </trkpt>
      <trkpt lat="43.3511" lon="-1.54994">
        <ele>18</ele>
        <time>2026-02-28T09:48:55Z</time>
      </trkpt>
      <trkpt lat="43.35104" lon="-1.54993">
        <ele>18</ele>
        <time>2026-02-28T09:48:56Z</time>
      </trkpt>
      <trkpt lat="43.35098" lon="-1.54988">
        <ele>18</ele>
        <time>2026-02-28T09:48:58Z</time>
      </trkpt>
      <trkpt lat="43.35078" lon="-1.54991">
        <ele>19</ele>
        <time>2026-02-28T09:49:01Z</time>
      </trkpt>
      <trkpt lat="43.34874" lon="-1.55162">
        <ele>21</ele>
        <time>2026-02-28T09:49:44Z</time>
      </trkpt>
      <trkpt lat="43.34865" lon="-1.55186">
        <ele>20</ele>
        <time>2026-02-28T09:49:47Z</time>
      </trkpt>
      <trkpt lat="43.34859" lon="-1.55222">
        <ele>19</ele>
        <time>2026-02-28T09:49:52Z</time>
      </trkpt>
      <trkpt lat="43.34857" lon="-1.5523">
        <ele>19</ele>
        <time>2026-02-28T09:49:53Z</time>
      </trkpt>
      <trkpt lat="43.34847" lon="-1.55243">
        <ele>18</ele>
        <time>2026-02-28T09:49:55Z</time>
      </trkpt>
      <trkpt lat="43.34831" lon="-1.55248">
        <ele>18</ele>
        <time>2026-02-28T09:49:58Z</time>
      </trkpt>
      <trkpt lat="43.34821" lon="-1.55247">
        <ele>18</ele>
        <time>2026-02-28T09:50:00Z</time>
      </trkpt>
      <trkpt lat="43.34801" lon="-1.55235">
        <ele>19</ele>
        <time>2026-02-28T09:50:04Z</time>
      </trkpt>
      <trkpt lat="43.34597" lon="-1.55214">
        <ele>19</ele>
        <time>2026-02-28T09:50:40Z</time>
      </trkpt>
      <trkpt lat="43.34571" lon="-1.55205">
        <ele>19</ele>
        <time>2026-02-28T09:50:45Z</time>
      </trkpt>
      <trkpt lat="43.34548" lon="-1.55189">
        <ele>20</ele>
        <time>2026-02-28T09:50:50Z</time>
      </trkpt>
      <trkpt lat="43.3449" lon="-1.55114">
        <ele>22</ele>
        <time>2026-02-28T09:51:04Z</time>
      </trkpt>
      <trkpt lat="43.34419" lon="-1.55018">
        <ele>22</ele>
        <time>2026-02-28T09:51:22Z</time>
      </trkpt>
      <trkpt lat="43.34407" lon="-1.55026">
        <ele>23</ele>
        <time>2026-02-28T09:51:24Z</time>
      </trkpt>
      <trkpt lat="43.34374" lon="-1.55027">
        <ele>26</ele>
        <time>2026-02-28T09:51:30Z</time>
      </trkpt>
      <trkpt lat="43.3436" lon="-1.55024">
        <ele>27</ele>
        <time>2026-02-28T09:51:32Z</time>
      </trkpt>
      <trkpt lat="43.3435" lon="-1.55017">
        <ele>28</ele>
        <time>2026-02-28T09:51:34Z</time>
      </trkpt>
      <trkpt lat="43.34322" lon="-1.54982">
        <ele>31</ele>
        <time>2026-02-28T09:51:41Z</time>
      </trkpt>
      <trkpt lat="43.34311" lon="-1.54974">
        <ele>33</ele>
        <time>2026-02-28T09:51:43Z</time>
      </trkpt>
      <trkpt lat="43.34302" lon="-1.54971">
        <ele>33</ele>
        <time>2026-02-28T09:51:45Z</time>
      </trkpt>
      <trkpt lat="43.34287" lon="-1.54977">
        <ele>35</ele>
        <time>2026-02-28T09:51:48Z</time>
      </trkpt>
      <trkpt lat="43.34263" lon="-1.55017">
        <ele>39</ele>
        <time>2026-02-28T09:51:55Z</time>
      </trkpt>
      <trkpt lat="43.34215" lon="-1.55017">
        <ele>43</ele>
        <time>2026-02-28T09:52:03Z</time>
      </trkpt>
      <trkpt lat="43.3415" lon="-1.55008">
        <ele>45</ele>
        <time>2026-02-28T09:52:15Z</time>
      </trkpt>
      <trkpt lat="43.34119" lon="-1.5501">
        <ele>46</ele>
        <time>2026-02-28T09:52:20Z</time>
      </trkpt>
      <trkpt lat="43.34104" lon="-1.55012">
        <ele>46</ele>
        <time>2026-02-28T09:52:23Z</time>
      </trkpt>
      <trkpt lat="43.34066" lon="-1.55027">
        <ele>47</ele>
        <time>2026-02-28T09:52:30Z</time>
      </trkpt>
      <trkpt lat="43.34" lon="-1.55029">
        <ele>45</ele>
        <time>2026-02-28T09:52:42Z</time>
      </trkpt>
      <trkpt lat="43.33993" lon="-1.55032">
        <ele>45</ele>
        <time>2026-02-28T09:52:43Z</time>
      </trkpt>
      <trkpt lat="43.33972" lon="-1.55032">
        <ele>45</ele>
        <time>2026-02-28T09:52:47Z</time>
      </trkpt>
      <trkpt lat="43.3396" lon="-1.55028">
        <ele>44</ele>
        <time>2026-02-28T09:52:49Z</time>
      </trkpt>
      <trkpt lat="43.33955" lon="-1.55021">
        <ele>44</ele>
        <time>2026-02-28T09:52:50Z</time>
      </trkpt>
      <trkpt lat="43.33911" lon="-1.55048">
        <ele>45</ele>
        <time>2026-02-28T09:52:59Z</time>
      </trkpt>
      <trkpt lat="43.33893" lon="-1.55052">
        <ele>44</ele>
        <time>2026-02-28T09:53:02Z</time>
      </trkpt>
      <trkpt lat="43.33881" lon="-1.55051">
        <ele>42</ele>
        <time>2026-02-28T09:53:04Z</time>
      </trkpt>
      <trkpt lat="43.33856" lon="-1.5504">
        <ele>39</ele>
        <time>2026-02-28T09:53:09Z</time>
      </trkpt>
      <trkpt lat="43.33827" lon="-1.55022">
        <ele>37</ele>
        <time>2026-02-28T09:53:14Z</time>
      </trkpt>
      <trkpt lat="43.33802" lon="-1.55003">
        <ele>35</ele>
        <time>2026-02-28T09:53:20Z</time>
      </trkpt>
      <trkpt lat="43.33758" lon="-1.54978">
        <ele>34</ele>
        <time>2026-02-28T09:53:28Z</time>
      </trkpt>
      <trkpt lat="43.33748" lon="-1.54972">
        <ele>33</ele>
        <time>2026-02-28T09:53:30Z</time>
      </trkpt>
      <trkpt lat="43.33692" lon="-1.54939">
        <ele>35</ele>
        <time>2026-02-28T09:53:41Z</time>
      </trkpt>
      <trkpt lat="43.33605" lon="-1.54906">
        <ele>38</ele>
        <time>2026-02-28T09:53:57Z</time>
      </trkpt>
      <trkpt lat="43.33606" lon="-1.54902">
        <ele>38</ele>
        <time>2026-02-28T09:53:57Z</time>
      </trkpt>
      <trkpt lat="43.33531" lon="-1.54866">
        <ele>36</ele>
        <time>2026-02-28T09:54:12Z</time>
      </trkpt>
      <trkpt lat="43.33451" lon="-1.54835">
        <ele>35</ele>
        <time>2026-02-28T09:54:26Z</time>
      </trkpt>
      <trkpt lat="43.33342" lon="-1.5481">
        <ele>40</ele>
        <time>2026-02-28T09:54:46Z</time>
      </trkpt>
      <trkpt lat="43.33316" lon="-1.54798">
        <ele>42</ele>
        <time>2026-02-28T09:54:51Z</time>
      </trkpt>
      <trkpt lat="43.33226" lon="-1.54715">
        <ele>40</ele>
        <time>2026-02-28T09:55:10Z</time>
      </trkpt>
      <trkpt lat="43.3321" lon="-1.54694">
        <ele>39</ele>
        <time>2026-02-28T09:55:14Z</time>
      </trkpt>
      <trkpt lat="43.332" lon="-1.54673">
        <ele>38</ele>
        <time>2026-02-28T09:55:17Z</time>
      </trkpt>
      <trkpt lat="43.3317" lon="-1.54594">
        <ele>35</ele>
        <time>2026-02-28T09:55:29Z</time>
      </trkpt>
      <trkpt lat="43.33146" lon="-1.54555">
        <ele>34</ele>
        <time>2026-02-28T09:55:35Z</time>
      </trkpt>
      <trkpt lat="43.3308" lon="-1.54478">
        <ele>32</ele>
        <time>2026-02-28T09:55:51Z</time>
      </trkpt>
      <trkpt lat="43.33056" lon="-1.54454">
        <ele>32</ele>
        <time>2026-02-28T09:55:56Z</time>
      </trkpt>
      <trkpt lat="43.33034" lon="-1.54441">
        <ele>31</ele>
        <time>2026-02-28T09:56:00Z</time>
      </trkpt>
      <trkpt lat="43.33014" lon="-1.54435">
        <ele>31</ele>
        <time>2026-02-28T09:56:04Z</time>
      </trkpt>
      <trkpt lat="43.32992" lon="-1.54437">
        <ele>31</ele>
        <time>2026-02-28T09:56:08Z</time>
      </trkpt>
      <trkpt lat="43.32973" lon="-1.54445">
        <ele>31</ele>
        <time>2026-02-28T09:56:12Z</time>
      </trkpt>
      <trkpt lat="43.32876" lon="-1.54504">
        <ele>34</ele>
        <time>2026-02-28T09:56:30Z</time>
      </trkpt>
      <trkpt lat="43.32846" lon="-1.54527">
        <ele>37</ele>
        <time>2026-02-28T09:56:36Z</time>
      </trkpt>
      <trkpt lat="43.32564" lon="-1.54806">
        <ele>36</ele>
        <time>2026-02-28T09:57:38Z</time>
      </trkpt>
      <trkpt lat="43.32463" lon="-1.54893">
        <ele>34</ele>
        <time>2026-02-28T09:58:00Z</time>
      </trkpt>
      <trkpt lat="43.32445" lon="-1.54904">
        <ele>34</ele>
        <time>2026-02-28T09:58:03Z</time>
      </trkpt>
      <trkpt lat="43.32245" lon="-1.54992">
        <ele>30</ele>
        <time>2026-02-28T09:58:40Z</time>
      </trkpt>
      <trkpt lat="43.32183" lon="-1.55023">
        <ele>30</ele>
        <time>2026-02-28T09:58:52Z</time>
      </trkpt>
      <trkpt lat="43.32166" lon="-1.55034">
        <ele>31</ele>
        <time>2026-02-28T09:58:55Z</time>
      </trkpt>
      <trkpt lat="43.32152" lon="-1.55048">
        <ele>31</ele>
        <time>2026-02-28T09:58:59Z</time>
      </trkpt>
      <trkpt lat="43.32145" lon="-1.55031">
        <ele>31</ele>
        <time>2026-02-28T09:59:01Z</time>
      </trkpt>
      <trkpt lat="43.32141" lon="-1.55007">
        <ele>30</ele>
        <time>2026-02-28T09:59:04Z</time>
      </trkpt>
      <trkpt lat="43.32135" lon="-1.54965">
        <ele>30</ele>
        <time>2026-02-28T09:59:10Z</time>
      </trkpt>
      <trkpt lat="43.3213" lon="-1.54933">
        <ele>30</ele>
        <time>2026-02-28T09:59:14Z</time>
      </trkpt>
      <trkpt lat="43.32123" lon="-1.54913">
        <ele>30</ele>
        <time>2026-02-28T09:59:17Z</time>
      </trkpt>
      <trkpt lat="43.32116" lon="-1.54902">
        <ele>30</ele>
        <time>2026-02-28T09:59:19Z</time>
      </trkpt>
      <trkpt lat="43.31936" lon="-1.54676">
        <ele>40</ele>
        <time>2026-02-28T10:00:02Z</time>
      </trkpt>
      <trkpt lat="43.31912" lon="-1.5464">
        <ele>39</ele>
        <time>2026-02-28T10:00:09Z</time>
      </trkpt>
      <trkpt lat="43.31896" lon="-1.54605">
        <ele>40</ele>
        <time>2026-02-28T10:00:14Z</time>
      </trkpt>
      <trkpt lat="43.31881" lon="-1.54558">
        <ele>40</ele>
        <time>2026-02-28T10:00:21Z</time>
      </trkpt>
      <trkpt lat="43.31875" lon="-1.54516">
        <ele>40</ele>
        <time>2026-02-28T10:00:26Z</time>
      </trkpt>
      <trkpt lat="43.31875" lon="-1.54475">
        <ele>41</ele>
        <time>2026-02-28T10:00:31Z</time>
      </trkpt>
      <trkpt lat="43.31878" lon="-1.54436">
        <ele>41</ele>
        <time>2026-02-28T10:00:36Z</time>
      </trkpt>
      <trkpt lat="43.31883" lon="-1.54413">
        <ele>42</ele>
        <time>2026-02-28T10:00:40Z</time>
      </trkpt>
      <trkpt lat="43.32" lon="-1.5399">
        <ele>38</ele>
        <time>2026-02-28T10:01:38Z</time>
      </trkpt>
      <trkpt lat="43.32008" lon="-1.53954">
        <ele>39</ele>
        <time>2026-02-28T10:01:43Z</time>
      </trkpt>
      <trkpt lat="43.3201" lon="-1.5392">
        <ele>39</ele>
        <time>2026-02-28T10:01:47Z</time>
      </trkpt>
      <trkpt lat="43.31997" lon="-1.53637">
        <ele>40</ele>
        <time>2026-02-28T10:02:24Z</time>
      </trkpt>
      <trkpt lat="43.31995" lon="-1.53625">
        <ele>40</ele>
        <time>2026-02-28T10:02:26Z</time>
      </trkpt>
      <trkpt lat="43.31987" lon="-1.53592">
        <ele>39</ele>
        <time>2026-02-28T10:02:30Z</time>
      </trkpt>
      <trkpt lat="43.31979" lon="-1.53573">
        <ele>40</ele>
        <time>2026-02-28T10:02:33Z</time>
      </trkpt>
      <trkpt lat="43.31914" lon="-1.53472">
        <ele>41</ele>
        <time>2026-02-28T10:02:51Z</time>
      </trkpt>
      <trkpt lat="43.31773" lon="-1.53258">
        <ele>47</ele>
        <time>2026-02-28T10:03:28Z</time>
      </trkpt>
      <trkpt lat="43.31706" lon="-1.53153">
        <ele>48</ele>
        <time>2026-02-28T10:03:46Z</time>
      </trkpt>
      <trkpt lat="43.31805" lon="-1.52551">
        <ele>54</ele>
        <time>2026-02-28T10:05:06Z</time>
      </trkpt>
      <trkpt lat="43.31809" lon="-1.5252">
        <ele>53</ele>
        <time>2026-02-28T10:05:10Z</time>
      </trkpt>
      <trkpt lat="43.31809" lon="-1.52491">
        <ele>53</ele>
        <time>2026-02-28T10:05:14Z</time>
      </trkpt>
      <trkpt lat="43.31805" lon="-1.52471">
        <ele>54</ele>
        <time>2026-02-28T10:05:16Z</time>
      </trkpt>
      <trkpt lat="43.31799" lon="-1.5245">
        <ele>55</ele>
        <time>2026-02-28T10:05:19Z</time>
      </trkpt>
      <trkpt lat="43.31787" lon="-1.52423">
        <ele>56</ele>
        <time>2026-02-28T10:05:23Z</time>
      </trkpt>
      <trkpt lat="43.31778" lon="-1.52409">
        <ele>57</ele>
        <time>2026-02-28T10:05:26Z</time>
      </trkpt>
      <trkpt lat="43.31688" lon="-1.52284">
        <ele>58</ele>
        <time>2026-02-28T10:05:49Z</time>
      </trkpt>
      <trkpt lat="43.31613" lon="-1.52176">
        <ele>62</ele>
        <time>2026-02-28T10:06:08Z</time>
      </trkpt>
      <trkpt lat="43.31518" lon="-1.52042">
        <ele>66</ele>
        <time>2026-02-28T10:06:32Z</time>
      </trkpt>
      <trkpt lat="43.31501" lon="-1.52025">
        <ele>67</ele>
        <time>2026-02-28T10:06:36Z</time>
      </trkpt>
      <trkpt lat="43.3144" lon="-1.51994">
        <ele>68</ele>
        <time>2026-02-28T10:06:47Z</time>
      </trkpt>
      <trkpt lat="43.31433" lon="-1.51989">
        <ele>68</ele>
        <time>2026-02-28T10:06:49Z</time>
      </trkpt>
      <trkpt lat="43.31426" lon="-1.51977">
        <ele>67</ele>
        <time>2026-02-28T10:06:51Z</time>
      </trkpt>
      <trkpt lat="43.3142" lon="-1.51963">
        <ele>67</ele>
        <time>2026-02-28T10:06:53Z</time>
      </trkpt>
      <trkpt lat="43.31413" lon="-1.51942">
        <ele>66</ele>
        <time>2026-02-28T10:06:56Z</time>
      </trkpt>
      <trkpt lat="43.31389" lon="-1.51818">
        <ele>68</ele>
        <time>2026-02-28T10:07:13Z</time>
      </trkpt>
      <trkpt lat="43.31378" lon="-1.51778">
        <ele>67</ele>
        <time>2026-02-28T10:07:18Z</time>
      </trkpt>
      <trkpt lat="43.31367" lon="-1.51753">
        <ele>67</ele>
        <time>2026-02-28T10:07:22Z</time>
      </trkpt>
      <trkpt lat="43.3124" lon="-1.51561">
        <ele>65</ele>
        <time>2026-02-28T10:07:55Z</time>
      </trkpt>
      <trkpt lat="43.3123" lon="-1.51545">
        <ele>66</ele>
        <time>2026-02-28T10:07:58Z</time>
      </trkpt>
      <trkpt lat="43.31222" lon="-1.51529">
        <ele>66</ele>
        <time>2026-02-28T10:08:01Z</time>
      </trkpt>
      <trkpt lat="43.31205" lon="-1.51461">
        <ele>68</ele>
        <time>2026-02-28T10:08:10Z</time>
      </trkpt>
      <trkpt lat="43.31192" lon="-1.51389">
        <ele>67</ele>
        <time>2026-02-28T10:08:20Z</time>
      </trkpt>
      <trkpt lat="43.31186" lon="-1.51324">
        <ele>67</ele>
        <time>2026-02-28T10:08:28Z</time>
      </trkpt>
      <trkpt lat="43.31182" lon="-1.51232">
        <ele>71</ele>
        <time>2026-02-28T10:08:40Z</time>
      </trkpt>
      <trkpt lat="43.31196" lon="-1.51141">
        <ele>70</ele>
        <time>2026-02-28T10:08:52Z</time>
      </trkpt>
      <trkpt lat="43.3121" lon="-1.5109">
        <ele>71</ele>
        <time>2026-02-28T10:08:59Z</time>
      </trkpt>
      <trkpt lat="43.31221" lon="-1.51056">
        <ele>71</ele>
        <time>2026-02-28T10:09:04Z</time>
      </trkpt>
      <trkpt lat="43.31241" lon="-1.51005">
        <ele>71</ele>
        <time>2026-02-28T10:09:11Z</time>
      </trkpt>
      <trkpt lat="43.31257" lon="-1.50975">
        <ele>71</ele>
        <time>2026-02-28T10:09:16Z</time>
      </trkpt>
      <trkpt lat="43.3129" lon="-1.50939">
        <ele>72</ele>
        <time>2026-02-28T10:09:24Z</time>
      </trkpt>
      <trkpt lat="43.31298" lon="-1.50923">
        <ele>72</ele>
        <time>2026-02-28T10:09:26Z</time>
      </trkpt>
      <trkpt lat="43.31303" lon="-1.50911">
        <ele>71</ele>
        <time>2026-02-28T10:09:28Z</time>
      </trkpt>
      <trkpt lat="43.31355" lon="-1.50708">
        <ele>75</ele>
        <time>2026-02-28T10:09:56Z</time>
      </trkpt>
      <trkpt lat="43.3136" lon="-1.50675">
        <ele>77</ele>
        <time>2026-02-28T10:10:00Z</time>
      </trkpt>
      <trkpt lat="43.3136" lon="-1.50653">
        <ele>78</ele>
        <time>2026-02-28T10:10:03Z</time>
      </trkpt>
      <trkpt lat="43.31358" lon="-1.50641">
        <ele>78</ele>
        <time>2026-02-28T10:10:05Z</time>
      </trkpt>
      <trkpt lat="43.31308" lon="-1.50463">
        <ele>78</ele>
        <time>2026-02-28T10:10:29Z</time>
      </trkpt>
      <trkpt lat="43.31304" lon="-1.5043">
        <ele>77</ele>
        <time>2026-02-28T10:10:34Z</time>
      </trkpt>
      <trkpt lat="43.31308" lon="-1.50349">
        <ele>80</ele>
        <time>2026-02-28T10:10:44Z</time>
      </trkpt>
      <trkpt lat="43.31306" lon="-1.50325">
        <ele>82</ele>
        <time>2026-02-28T10:10:47Z</time>
      </trkpt>
      <trkpt lat="43.31301" lon="-1.50295">
        <ele>83</ele>
        <time>2026-02-28T10:10:51Z</time>
      </trkpt>
      <trkpt lat="43.31292" lon="-1.50272">
        <ele>86</ele>
        <time>2026-02-28T10:10:55Z</time>
      </trkpt>
      <trkpt lat="43.31264" lon="-1.50231">
        <ele>91</ele>
        <time>2026-02-28T10:11:02Z</time>
      </trkpt>
      <trkpt lat="43.31245" lon="-1.50207">
        <ele>93</ele>
        <time>2026-02-28T10:11:07Z</time>
      </trkpt>
      <trkpt lat="43.31207" lon="-1.50166">
        <ele>97</ele>
        <time>2026-02-28T10:11:15Z</time>
      </trkpt>
      <trkpt lat="43.31184" lon="-1.50123">
        <ele>97</ele>
        <time>2026-02-28T10:11:22Z</time>
      </trkpt>
      <trkpt lat="43.31148" lon="-1.50075">
        <ele>97</ele>
        <time>2026-02-28T10:11:31Z</time>
      </trkpt>
      <trkpt lat="43.31135" lon="-1.50043">
        <ele>97</ele>
        <time>2026-02-28T10:11:36Z</time>
      </trkpt>
      <trkpt lat="43.31115" lon="-1.50053">
        <ele>98</ele>
        <time>2026-02-28T10:11:40Z</time>
      </trkpt>
      <trkpt lat="43.31087" lon="-1.50057">
        <ele>101</ele>
        <time>2026-02-28T10:11:45Z</time>
      </trkpt>
      <trkpt lat="43.31073" lon="-1.50055">
        <ele>102</ele>
        <time>2026-02-28T10:11:47Z</time>
      </trkpt>
      <trkpt lat="43.31059" lon="-1.50046">
        <ele>103</ele>
        <time>2026-02-28T10:11:50Z</time>
      </trkpt>
      <trkpt lat="43.31048" lon="-1.50028">
        <ele>103</ele>
        <time>2026-02-28T10:11:53Z</time>
      </trkpt>
      <trkpt lat="43.31014" lon="-1.49939">
        <ele>108</ele>
        <time>2026-02-28T10:12:06Z</time>
      </trkpt>
      <trkpt lat="43.30997" lon="-1.49903">
        <ele>109</ele>
        <time>2026-02-28T10:12:11Z</time>
      </trkpt>
      <trkpt lat="43.30981" lon="-1.499">
        <ele>110</ele>
        <time>2026-02-28T10:12:14Z</time>
      </trkpt>
      <trkpt lat="43.30933" lon="-1.49904">
        <ele>112</ele>
        <time>2026-02-28T10:12:23Z</time>
      </trkpt>
      <trkpt lat="43.30812" lon="-1.49905">
        <ele>115</ele>
        <time>2026-02-28T10:12:44Z</time>
      </trkpt>
      <trkpt lat="43.30751" lon="-1.49901">
        <ele>116</ele>
        <time>2026-02-28T10:12:55Z</time>
      </trkpt>
      <trkpt lat="43.30723" lon="-1.49897">
        <ele>119</ele>
        <time>2026-02-28T10:13:00Z</time>
      </trkpt>
      <trkpt lat="43.30679" lon="-1.49877">
        <ele>123</ele>
        <time>2026-02-28T10:13:09Z</time>
      </trkpt>
      <trkpt lat="43.30657" lon="-1.49875">
        <ele>125</ele>
        <time>2026-02-28T10:13:12Z</time>
      </trkpt>
      <trkpt lat="43.30542" lon="-1.49903">
        <ele>123</ele>
        <time>2026-02-28T10:13:33Z</time>
      </trkpt>
      <trkpt lat="43.30524" lon="-1.49905">
        <ele>122</ele>
        <time>2026-02-28T10:13:36Z</time>
      </trkpt>
      <trkpt lat="43.30519" lon="-1.49904">
        <ele>121</ele>
        <time>2026-02-28T10:13:37Z</time>
      </trkpt>
      <trkpt lat="43.30509" lon="-1.49891">
        <ele>120</ele>
        <time>2026-02-28T10:13:40Z</time>
      </trkpt>
      <trkpt lat="43.30501" lon="-1.49874">
        <ele>120</ele>
        <time>2026-02-28T10:13:42Z</time>
      </trkpt>
      <trkpt lat="43.30489" lon="-1.49837">
        <ele>119</ele>
        <time>2026-02-28T10:13:48Z</time>
      </trkpt>
      <trkpt lat="43.30475" lon="-1.498">
        <ele>119</ele>
        <time>2026-02-28T10:13:53Z</time>
      </trkpt>
      <trkpt lat="43.30452" lon="-1.49721">
        <ele>121</ele>
        <time>2026-02-28T10:14:04Z</time>
      </trkpt>
      <trkpt lat="43.3044" lon="-1.49684">
        <ele>122</ele>
        <time>2026-02-28T10:14:09Z</time>
      </trkpt>
      <trkpt lat="43.30424" lon="-1.49652">
        <ele>124</ele>
        <time>2026-02-28T10:14:14Z</time>
      </trkpt>
      <trkpt lat="43.30405" lon="-1.49627">
        <ele>124</ele>
        <time>2026-02-28T10:14:19Z</time>
      </trkpt>
      <trkpt lat="43.30381" lon="-1.49605">
        <ele>125</ele>
        <time>2026-02-28T10:14:24Z</time>
      </trkpt>
      <trkpt lat="43.30355" lon="-1.49589">
        <ele>124</ele>
        <time>2026-02-28T10:14:29Z</time>
      </trkpt>
      <trkpt lat="43.30334" lon="-1.49568">
        <ele>124</ele>
        <time>2026-02-28T10:14:34Z</time>
      </trkpt>
      <trkpt lat="43.30325" lon="-1.49545">
        <ele>124</ele>
        <time>2026-02-28T10:14:37Z</time>
      </trkpt>
      <trkpt lat="43.3028" lon="-1.49377">
        <ele>129</ele>
        <time>2026-02-28T10:15:00Z</time>
      </trkpt>
      <trkpt lat="43.30274" lon="-1.49364">
        <ele>131</ele>
        <time>2026-02-28T10:15:02Z</time>
      </trkpt>
      <trkpt lat="43.30267" lon="-1.49355">
        <ele>131</ele>
        <time>2026-02-28T10:15:04Z</time>
      </trkpt>
      <trkpt lat="43.30258" lon="-1.49349">
        <ele>131</ele>
        <time>2026-02-28T10:15:06Z</time>
      </trkpt>
      <trkpt lat="43.3025" lon="-1.49347">
        <ele>130</ele>
        <time>2026-02-28T10:15:07Z</time>
      </trkpt>
      <trkpt lat="43.30235" lon="-1.49349">
        <ele>131</ele>
        <time>2026-02-28T10:15:10Z</time>
      </trkpt>
      <trkpt lat="43.30222" lon="-1.49354">
        <ele>131</ele>
        <time>2026-02-28T10:15:12Z</time>
      </trkpt>
      <trkpt lat="43.30104" lon="-1.49427">
        <ele>127</ele>
        <time>2026-02-28T10:15:35Z</time>
      </trkpt>
      <trkpt lat="43.30092" lon="-1.49432">
        <ele>126</ele>
        <time>2026-02-28T10:15:38Z</time>
      </trkpt>
      <trkpt lat="43.30073" lon="-1.49438">
        <ele>126</ele>
        <time>2026-02-28T10:15:41Z</time>
      </trkpt>
      <trkpt lat="43.30054" lon="-1.49441">
        <ele>127</ele>
        <time>2026-02-28T10:15:45Z</time>
      </trkpt>
      <trkpt lat="43.30021" lon="-1.49441">
        <ele>129</ele>
        <time>2026-02-28T10:15:50Z</time>
      </trkpt>
      <trkpt lat="43.29985" lon="-1.49434">
        <ele>131</ele>
        <time>2026-02-28T10:15:57Z</time>
      </trkpt>
      <trkpt lat="43.2996" lon="-1.49425">
        <ele>133</ele>
        <time>2026-02-28T10:16:02Z</time>
      </trkpt>
      <trkpt lat="43.29939" lon="-1.49413">
        <ele>134</ele>
        <time>2026-02-28T10:16:06Z</time>
      </trkpt>
      <trkpt lat="43.29917" lon="-1.49397">
        <ele>135</ele>
        <time>2026-02-28T10:16:10Z</time>
      </trkpt>
      <trkpt lat="43.29891" lon="-1.49371">
        <ele>136</ele>
        <time>2026-02-28T10:16:16Z</time>
      </trkpt>
      <trkpt lat="43.29845" lon="-1.4932">
        <ele>132</ele>
        <time>2026-02-28T10:16:26Z</time>
      </trkpt>
      <trkpt lat="43.29821" lon="-1.49304">
        <ele>129</ele>
        <time>2026-02-28T10:16:31Z</time>
      </trkpt>
      <trkpt lat="43.29798" lon="-1.49296">
        <ele>127</ele>
        <time>2026-02-28T10:16:35Z</time>
      </trkpt>
      <trkpt lat="43.29765" lon="-1.49293">
        <ele>125</ele>
        <time>2026-02-28T10:16:41Z</time>
      </trkpt>
      <trkpt lat="43.29736" lon="-1.49301">
        <ele>123</ele>
        <time>2026-02-28T10:16:46Z</time>
      </trkpt>
      <trkpt lat="43.29712" lon="-1.49316">
        <ele>121</ele>
        <time>2026-02-28T10:16:51Z</time>
      </trkpt>
      <trkpt lat="43.29691" lon="-1.49333">
        <ele>118</ele>
        <time>2026-02-28T10:16:55Z</time>
      </trkpt>
      <trkpt lat="43.29653" lon="-1.49374">
        <ele>116</ele>
        <time>2026-02-28T10:17:04Z</time>
      </trkpt>
      <trkpt lat="43.29631" lon="-1.49405">
        <ele>114</ele>
        <time>2026-02-28T10:17:10Z</time>
      </trkpt>
      <trkpt lat="43.29613" lon="-1.49433">
        <ele>112</ele>
        <time>2026-02-28T10:17:14Z</time>
      </trkpt>
      <trkpt lat="43.29606" lon="-1.49449">
        <ele>112</ele>
        <time>2026-02-28T10:17:17Z</time>
      </trkpt>
      <trkpt lat="43.29584" lon="-1.49514">
        <ele>113</ele>
        <time>2026-02-28T10:17:26Z</time>
      </trkpt>
      <trkpt lat="43.29576" lon="-1.4953">
        <ele>113</ele>
        <time>2026-02-28T10:17:29Z</time>
      </trkpt>
      <trkpt lat="43.29566" lon="-1.49546">
        <ele>113</ele>
        <time>2026-02-28T10:17:31Z</time>
      </trkpt>
      <trkpt lat="43.29554" lon="-1.4956">
        <ele>113</ele>
        <time>2026-02-28T10:17:34Z</time>
      </trkpt>
      <trkpt lat="43.29533" lon="-1.49573">
        <ele>112</ele>
        <time>2026-02-28T10:17:38Z</time>
      </trkpt>
      <trkpt lat="43.29485" lon="-1.49597">
        <ele>107</ele>
        <time>2026-02-28T10:17:47Z</time>
      </trkpt>
      <trkpt lat="43.29456" lon="-1.4962">
        <ele>103</ele>
        <time>2026-02-28T10:17:53Z</time>
      </trkpt>
      <trkpt lat="43.29428" lon="-1.49659">
        <ele>100</ele>
        <time>2026-02-28T10:18:00Z</time>
      </trkpt>
      <trkpt lat="43.2942" lon="-1.49673">
        <ele>99</ele>
        <time>2026-02-28T10:18:03Z</time>
      </trkpt>
      <trkpt lat="43.29407" lon="-1.49712">
        <ele>101</ele>
        <time>2026-02-28T10:18:08Z</time>
      </trkpt>
      <trkpt lat="43.29404" lon="-1.49753">
        <ele>103</ele>
        <time>2026-02-28T10:18:14Z</time>
      </trkpt>
      <trkpt lat="43.29407" lon="-1.49805">
        <ele>101</ele>
        <time>2026-02-28T10:18:20Z</time>
      </trkpt>
      <trkpt lat="43.2942" lon="-1.4994">
        <ele>91</ele>
        <time>2026-02-28T10:18:38Z</time>
      </trkpt>
      <trkpt lat="43.29423" lon="-1.49996">
        <ele>88</ele>
        <time>2026-02-28T10:18:45Z</time>
      </trkpt>
      <trkpt lat="43.2942" lon="-1.50027">
        <ele>88</ele>
        <time>2026-02-28T10:18:49Z</time>
      </trkpt>
      <trkpt lat="43.29412" lon="-1.50058">
        <ele>88</ele>
        <time>2026-02-28T10:18:54Z</time>
      </trkpt>
      <trkpt lat="43.2938" lon="-1.5013">
        <ele>86</ele>
        <time>2026-02-28T10:19:04Z</time>
      </trkpt>
      <trkpt lat="43.29367" lon="-1.50183">
        <ele>84</ele>
        <time>2026-02-28T10:19:12Z</time>
      </trkpt>
      <trkpt lat="43.29356" lon="-1.50244">
        <ele>82</ele>
        <time>2026-02-28T10:19:20Z</time>
      </trkpt>
      <trkpt lat="43.29361" lon="-1.50245">
        <ele>83</ele>
        <time>2026-02-28T10:19:21Z</time>
      </trkpt>
      <trkpt lat="43.29356" lon="-1.50244">
        <ele>82</ele>
        <time>2026-02-28T10:19:22Z</time>
      </trkpt>
      <trkpt lat="43.29343" lon="-1.50313">
        <ele>77</ele>
        <time>2026-02-28T10:19:31Z</time>
      </trkpt>
      <trkpt lat="43.29343" lon="-1.50331">
        <ele>77</ele>
        <time>2026-02-28T10:19:33Z</time>
      </trkpt>
      <trkpt lat="43.2935" lon="-1.50406">
        <ele>76</ele>
        <time>2026-02-28T10:19:43Z</time>
      </trkpt>
      <trkpt lat="43.29351" lon="-1.50432">
        <ele>75</ele>
        <time>2026-02-28T10:19:46Z</time>
      </trkpt>
      <trkpt lat="43.2935" lon="-1.50447">
        <ele>74</ele>
        <time>2026-02-28T10:19:48Z</time>
      </trkpt>
      <trkpt lat="43.29342" lon="-1.50487">
        <ele>72</ele>
        <time>2026-02-28T10:19:54Z</time>
      </trkpt>
      <trkpt lat="43.29334" lon="-1.50511">
        <ele>71</ele>
        <time>2026-02-28T10:19:57Z</time>
      </trkpt>
      <trkpt lat="43.29308" lon="-1.50529">
        <ele>70</ele>
        <time>2026-02-28T10:20:02Z</time>
      </trkpt>
      <trkpt lat="43.29303" lon="-1.50527">
        <ele>70</ele>
        <time>2026-02-28T10:20:03Z</time>
      </trkpt>
      <trkpt lat="43.29299" lon="-1.50531">
        <ele>70</ele>
        <time>2026-02-28T10:20:04Z</time>
      </trkpt>
      <trkpt lat="43.29295" lon="-1.50534">
        <ele>70</ele>
        <time>2026-02-28T10:20:05Z</time>
      </trkpt>
      <trkpt lat="43.29284" lon="-1.50539">
        <ele>70</ele>
        <time>2026-02-28T10:20:07Z</time>
      </trkpt>
      <trkpt lat="43.29277" lon="-1.50543">
        <ele>70</ele>
        <time>2026-02-28T10:20:08Z</time>
      </trkpt>
      <trkpt lat="43.29247" lon="-1.50548">
        <ele>71</ele>
        <time>2026-02-28T10:20:14Z</time>
      </trkpt>
      <trkpt lat="43.29238" lon="-1.50562">
        <ele>71</ele>
        <time>2026-02-28T10:20:16Z</time>
      </trkpt>
      <trkpt lat="43.29238" lon="-1.50567">
        <ele>71</ele>
        <time>2026-02-28T10:20:17Z</time>
      </trkpt>
      <trkpt lat="43.29235" lon="-1.50575">
        <ele>71</ele>
        <time>2026-02-28T10:20:18Z</time>
      </trkpt>
      <trkpt lat="43.29229" lon="-1.50579">
        <ele>71</ele>
        <time>2026-02-28T10:20:19Z</time>
      </trkpt>
      <trkpt lat="43.29222" lon="-1.50578">
        <ele>71</ele>
        <time>2026-02-28T10:20:20Z</time>
      </trkpt>
      <trkpt lat="43.29217" lon="-1.50571">
        <ele>71</ele>
        <time>2026-02-28T10:20:22Z</time>
      </trkpt>
      <trkpt lat="43.29216" lon="-1.50567">
        <ele>71</ele>
        <time>2026-02-28T10:20:22Z</time>
      </trkpt>
      <trkpt lat="43.29193" lon="-1.50554">
        <ele>70</ele>
        <time>2026-02-28T10:20:27Z</time>
      </trkpt>
      <trkpt lat="43.29145" lon="-1.50559">
        <ele>71</ele>
        <time>2026-02-28T10:20:35Z</time>
      </trkpt>
      <trkpt lat="43.29125" lon="-1.5057">
        <ele>71</ele>
        <time>2026-02-28T10:20:39Z</time>
      </trkpt>
      <trkpt lat="43.29119" lon="-1.50577">
        <ele>71</ele>
        <time>2026-02-28T10:20:40Z</time>
      </trkpt>
      <trkpt lat="43.29115" lon="-1.50578">
        <ele>71</ele>
        <time>2026-02-28T10:20:41Z</time>
      </trkpt>
      <trkpt lat="43.29102" lon="-1.50588">
        <ele>72</ele>
        <time>2026-02-28T10:20:44Z</time>
      </trkpt>
      <trkpt lat="43.29079" lon="-1.50638">
        <ele>78</ele>
        <time>2026-02-28T10:20:51Z</time>
      </trkpt>
      <trkpt lat="43.29057" lon="-1.50675">
        <ele>82</ele>
        <time>2026-02-28T10:20:58Z</time>
      </trkpt>
      <trkpt lat="43.29043" lon="-1.5069">
        <ele>86</ele>
        <time>2026-02-28T10:21:01Z</time>
      </trkpt>
      <trkpt lat="43.29025" lon="-1.50706">
        <ele>90</ele>
        <time>2026-02-28T10:21:05Z</time>
      </trkpt>
      <trkpt lat="43.2899" lon="-1.50723">
        <ele>91</ele>
        <time>2026-02-28T10:21:11Z</time>
      </trkpt>
      <trkpt lat="43.28939" lon="-1.50734">
        <ele>88</ele>
        <time>2026-02-28T10:21:20Z</time>
      </trkpt>
      <trkpt lat="43.28907" lon="-1.50744">
        <ele>86</ele>
        <time>2026-02-28T10:21:26Z</time>
      </trkpt>
      <trkpt lat="43.28854" lon="-1.5077">
        <ele>84</ele>
        <time>2026-02-28T10:21:36Z</time>
      </trkpt>
      <trkpt lat="43.28837" lon="-1.50781">
        <ele>83</ele>
        <time>2026-02-28T10:21:40Z</time>
      </trkpt>
      <trkpt lat="43.28824" lon="-1.50794">
        <ele>85</ele>
        <time>2026-02-28T10:21:42Z</time>
      </trkpt>
      <trkpt lat="43.28814" lon="-1.50808">
        <ele>86</ele>
        <time>2026-02-28T10:21:45Z</time>
      </trkpt>
      <trkpt lat="43.28805" lon="-1.50826">
        <ele>89</ele>
        <time>2026-02-28T10:21:48Z</time>
      </trkpt>
      <trkpt lat="43.28798" lon="-1.50851">
        <ele>90</ele>
        <time>2026-02-28T10:21:51Z</time>
      </trkpt>
      <trkpt lat="43.28795" lon="-1.50873">
        <ele>91</ele>
        <time>2026-02-28T10:21:54Z</time>
      </trkpt>
      <trkpt lat="43.28797" lon="-1.509">
        <ele>93</ele>
        <time>2026-02-28T10:21:58Z</time>
      </trkpt>
      <trkpt lat="43.28815" lon="-1.50985">
        <ele>100</ele>
        <time>2026-02-28T10:22:09Z</time>
      </trkpt>
      <trkpt lat="43.28817" lon="-1.51011">
        <ele>101</ele>
        <time>2026-02-28T10:22:13Z</time>
      </trkpt>
      <trkpt lat="43.28812" lon="-1.5105">
        <ele>105</ele>
        <time>2026-02-28T10:22:18Z</time>
      </trkpt>
      <trkpt lat="43.28806" lon="-1.51081">
        <ele>107</ele>
        <time>2026-02-28T10:22:22Z</time>
      </trkpt>
      <trkpt lat="43.28793" lon="-1.51117">
        <ele>108</ele>
        <time>2026-02-28T10:22:27Z</time>
      </trkpt>
      <trkpt lat="43.28782" lon="-1.51135">
        <ele>108</ele>
        <time>2026-02-28T10:22:30Z</time>
      </trkpt>
      <trkpt lat="43.28718" lon="-1.51215">
        <ele>113</ele>
        <time>2026-02-28T10:22:46Z</time>
      </trkpt>
      <trkpt lat="43.28694" lon="-1.51241">
        <ele>115</ele>
        <time>2026-02-28T10:22:51Z</time>
      </trkpt>
      <trkpt lat="43.28673" lon="-1.51256">
        <ele>115</ele>
        <time>2026-02-28T10:22:55Z</time>
      </trkpt>
      <trkpt lat="43.28658" lon="-1.51263">
        <ele>115</ele>
        <time>2026-02-28T10:22:58Z</time>
      </trkpt>
      <trkpt lat="43.28635" lon="-1.51268">
        <ele>117</ele>
        <time>2026-02-28T10:23:02Z</time>
      </trkpt>
      <trkpt lat="43.28582" lon="-1.5127">
        <ele>121</ele>
        <time>2026-02-28T10:23:12Z</time>
      </trkpt>
      <trkpt lat="43.2856" lon="-1.51276">
        <ele>122</ele>
        <time>2026-02-28T10:23:16Z</time>
      </trkpt>
      <trkpt lat="43.28518" lon="-1.51294">
        <ele>127</ele>
        <time>2026-02-28T10:23:23Z</time>
      </trkpt>
      <trkpt lat="43.28491" lon="-1.51299">
        <ele>130</ele>
        <time>2026-02-28T10:23:28Z</time>
      </trkpt>
      <trkpt lat="43.28446" lon="-1.51298">
        <ele>133</ele>
        <time>2026-02-28T10:23:36Z</time>
      </trkpt>
      <trkpt lat="43.2841" lon="-1.51302">
        <ele>137</ele>
        <time>2026-02-28T10:23:43Z</time>
      </trkpt>
      <trkpt lat="43.28393" lon="-1.51307">
        <ele>138</ele>
        <time>2026-02-28T10:23:46Z</time>
      </trkpt>
      <trkpt lat="43.28332" lon="-1.51336">
        <ele>144</ele>
        <time>2026-02-28T10:23:57Z</time>
      </trkpt>
      <trkpt lat="43.2828" lon="-1.51345">
        <ele>145</ele>
        <time>2026-02-28T10:24:07Z</time>
      </trkpt>
      <trkpt lat="43.28266" lon="-1.51352">
        <ele>146</ele>
        <time>2026-02-28T10:24:09Z</time>
      </trkpt>
      <trkpt lat="43.28247" lon="-1.51364">
        <ele>148</ele>
        <time>2026-02-28T10:24:13Z</time>
      </trkpt>
      <trkpt lat="43.28219" lon="-1.51389">
        <ele>151</ele>
        <time>2026-02-28T10:24:19Z</time>
      </trkpt>
      <trkpt lat="43.282" lon="-1.51402">
        <ele>152</ele>
        <time>2026-02-28T10:24:23Z</time>
      </trkpt>
      <trkpt lat="43.28181" lon="-1.51407">
        <ele>151</ele>
        <time>2026-02-28T10:24:26Z</time>
      </trkpt>
      <trkpt lat="43.28148" lon="-1.51412">
        <ele>150</ele>
        <time>2026-02-28T10:24:32Z</time>
      </trkpt>
      <trkpt lat="43.28128" lon="-1.51421">
        <ele>150</ele>
        <time>2026-02-28T10:24:36Z</time>
      </trkpt>
      <trkpt lat="43.28108" lon="-1.51436">
        <ele>151</ele>
        <time>2026-02-28T10:24:40Z</time>
      </trkpt>
      <trkpt lat="43.28017" lon="-1.51563">
        <ele>159</ele>
        <time>2026-02-28T10:25:03Z</time>
      </trkpt>
      <trkpt lat="43.28004" lon="-1.51574">
        <ele>159</ele>
        <time>2026-02-28T10:25:06Z</time>
      </trkpt>
      <trkpt lat="43.27951" lon="-1.51607">
        <ele>158</ele>
        <time>2026-02-28T10:25:16Z</time>
      </trkpt>
      <trkpt lat="43.27939" lon="-1.51621">
        <ele>157</ele>
        <time>2026-02-28T10:25:19Z</time>
      </trkpt>
      <trkpt lat="43.2793" lon="-1.51634">
        <ele>157</ele>
        <time>2026-02-28T10:25:21Z</time>
      </trkpt>
      <trkpt lat="43.2792" lon="-1.51654">
        <ele>157</ele>
        <time>2026-02-28T10:25:24Z</time>
      </trkpt>
      <trkpt lat="43.27914" lon="-1.51676">
        <ele>157</ele>
        <time>2026-02-28T10:25:27Z</time>
      </trkpt>
      <trkpt lat="43.27909" lon="-1.51732">
        <ele>157</ele>
        <time>2026-02-28T10:25:35Z</time>
      </trkpt>
      <trkpt lat="43.27905" lon="-1.51751">
        <ele>156</ele>
        <time>2026-02-28T10:25:37Z</time>
      </trkpt>
      <trkpt lat="43.27898" lon="-1.51771">
        <ele>155</ele>
        <time>2026-02-28T10:25:40Z</time>
      </trkpt>
      <trkpt lat="43.2789" lon="-1.51788">
        <ele>155</ele>
        <time>2026-02-28T10:25:43Z</time>
      </trkpt>
      <trkpt lat="43.27844" lon="-1.51852">
        <ele>154</ele>
        <time>2026-02-28T10:25:54Z</time>
      </trkpt>
      <trkpt lat="43.27771" lon="-1.5197">
        <ele>155</ele>
        <time>2026-02-28T10:26:14Z</time>
      </trkpt>
      <trkpt lat="43.27724" lon="-1.52038">
        <ele>155</ele>
        <time>2026-02-28T10:26:26Z</time>
      </trkpt>
      <trkpt lat="43.27676" lon="-1.52098">
        <ele>157</ele>
        <time>2026-02-28T10:26:38Z</time>
      </trkpt>
      <trkpt lat="43.27618" lon="-1.52162">
        <ele>163</ele>
        <time>2026-02-28T10:26:51Z</time>
      </trkpt>
      <trkpt lat="43.27594" lon="-1.52202">
        <ele>165</ele>
        <time>2026-02-28T10:26:58Z</time>
      </trkpt>
      <trkpt lat="43.27583" lon="-1.52238">
        <ele>165</ele>
        <time>2026-02-28T10:27:03Z</time>
      </trkpt>
      <trkpt lat="43.27567" lon="-1.52311">
        <ele>165</ele>
        <time>2026-02-28T10:27:13Z</time>
      </trkpt>
      <trkpt lat="43.27544" lon="-1.52438">
        <ele>163</ele>
        <time>2026-02-28T10:27:30Z</time>
      </trkpt>
      <trkpt lat="43.2754" lon="-1.52485">
        <ele>162</ele>
        <time>2026-02-28T10:27:36Z</time>
      </trkpt>
      <trkpt lat="43.2754" lon="-1.52515">
        <ele>162</ele>
        <time>2026-02-28T10:27:40Z</time>
      </trkpt>
      <trkpt lat="43.27546" lon="-1.52625">
        <ele>162</ele>
        <time>2026-02-28T10:27:54Z</time>
      </trkpt>
      <trkpt lat="43.27545" lon="-1.5267">
        <ele>161</ele>
        <time>2026-02-28T10:28:00Z</time>
      </trkpt>
      <trkpt lat="43.27539" lon="-1.52708">
        <ele>161</ele>
        <time>2026-02-28T10:28:05Z</time>
      </trkpt>
      <trkpt lat="43.27509" lon="-1.52825">
        <ele>161</ele>
        <time>2026-02-28T10:28:21Z</time>
      </trkpt>
      <trkpt lat="43.27504" lon="-1.52838">
        <ele>162</ele>
        <time>2026-02-28T10:28:23Z</time>
      </trkpt>
      <trkpt lat="43.27488" lon="-1.52872">
        <ele>163</ele>
        <time>2026-02-28T10:28:28Z</time>
      </trkpt>
      <trkpt lat="43.27468" lon="-1.52898">
        <ele>165</ele>
        <time>2026-02-28T10:28:33Z</time>
      </trkpt>
      <trkpt lat="43.27449" lon="-1.52915">
        <ele>166</ele>
        <time>2026-02-28T10:28:37Z</time>
      </trkpt>
      <trkpt lat="43.27426" lon="-1.52929">
        <ele>167</ele>
        <time>2026-02-28T10:28:42Z</time>
      </trkpt>
      <trkpt lat="43.27387" lon="-1.52943">
        <ele>169</ele>
        <time>2026-02-28T10:28:49Z</time>
      </trkpt>
      <trkpt lat="43.27363" lon="-1.52957">
        <ele>171</ele>
        <time>2026-02-28T10:28:53Z</time>
      </trkpt>
      <trkpt lat="43.27354" lon="-1.52965">
        <ele>172</ele>
        <time>2026-02-28T10:28:55Z</time>
      </trkpt>
      <trkpt lat="43.27343" lon="-1.5298">
        <ele>174</ele>
        <time>2026-02-28T10:28:58Z</time>
      </trkpt>
      <trkpt lat="43.27309" lon="-1.53041">
        <ele>178</ele>
        <time>2026-02-28T10:29:08Z</time>
      </trkpt>
      <trkpt lat="43.27227" lon="-1.53158">
        <ele>178</ele>
        <time>2026-02-28T10:29:29Z</time>
      </trkpt>
      <trkpt lat="43.27198" lon="-1.53214">
        <ele>179</ele>
        <time>2026-02-28T10:29:38Z</time>
      </trkpt>
      <trkpt lat="43.27176" lon="-1.5327">
        <ele>179</ele>
        <time>2026-02-28T10:29:46Z</time>
      </trkpt>
      <trkpt lat="43.27148" lon="-1.53367">
        <ele>180</ele>
        <time>2026-02-28T10:30:00Z</time>
      </trkpt>
      <trkpt lat="43.27143" lon="-1.53382">
        <ele>180</ele>
        <time>2026-02-28T10:30:02Z</time>
      </trkpt>
      <trkpt lat="43.27129" lon="-1.53408">
        <ele>182</ele>
        <time>2026-02-28T10:30:06Z</time>
      </trkpt>
      <trkpt lat="43.27096" lon="-1.53455">
        <ele>186</ele>
        <time>2026-02-28T10:30:15Z</time>
      </trkpt>
      <trkpt lat="43.2707" lon="-1.53502">
        <ele>187</ele>
        <time>2026-02-28T10:30:22Z</time>
      </trkpt>
      <trkpt lat="43.27045" lon="-1.53571">
        <ele>191</ele>
        <time>2026-02-28T10:30:32Z</time>
      </trkpt>
      <trkpt lat="43.27014" lon="-1.53646">
        <ele>191</ele>
        <time>2026-02-28T10:30:43Z</time>
      </trkpt>
      <trkpt lat="43.27001" lon="-1.53701">
        <ele>190</ele>
        <time>2026-02-28T10:30:51Z</time>
      </trkpt>
      <trkpt lat="43.26984" lon="-1.5375">
        <ele>194</ele>
        <time>2026-02-28T10:30:58Z</time>
      </trkpt>
      <trkpt lat="43.26979" lon="-1.53783">
        <ele>198</ele>
        <time>2026-02-28T10:31:02Z</time>
      </trkpt>
      <trkpt lat="43.26979" lon="-1.53812">
        <ele>201</ele>
        <time>2026-02-28T10:31:06Z</time>
      </trkpt>
      <trkpt lat="43.26975" lon="-1.5385">
        <ele>204</ele>
        <time>2026-02-28T10:31:11Z</time>
      </trkpt>
      <trkpt lat="43.2696" lon="-1.53925">
        <ele>208</ele>
        <time>2026-02-28T10:31:21Z</time>
      </trkpt>
      <trkpt lat="43.2695" lon="-1.5396">
        <ele>208</ele>
        <time>2026-02-28T10:31:26Z</time>
      </trkpt>
      <trkpt lat="43.26943" lon="-1.54001">
        <ele>209</ele>
        <time>2026-02-28T10:31:31Z</time>
      </trkpt>
      <trkpt lat="43.26941" lon="-1.54053">
        <ele>210</ele>
        <time>2026-02-28T10:31:38Z</time>
      </trkpt>
      <trkpt lat="43.26934" lon="-1.541">
        <ele>211</ele>
        <time>2026-02-28T10:31:44Z</time>
      </trkpt>
      <trkpt lat="43.26935" lon="-1.5412">
        <ele>210</ele>
        <time>2026-02-28T10:31:47Z</time>
      </trkpt>
      <trkpt lat="43.26944" lon="-1.54154">
        <ele>208</ele>
        <time>2026-02-28T10:31:52Z</time>
      </trkpt>
      <trkpt lat="43.26963" lon="-1.54171">
        <ele>206</ele>
        <time>2026-02-28T10:31:56Z</time>
      </trkpt>
      <trkpt lat="43.26975" lon="-1.54176">
        <ele>204</ele>
        <time>2026-02-28T10:31:58Z</time>
      </trkpt>
      <trkpt lat="43.27028" lon="-1.54159">
        <ele>199</ele>
        <time>2026-02-28T10:32:08Z</time>
      </trkpt>
      <trkpt lat="43.27039" lon="-1.5416">
        <ele>198</ele>
        <time>2026-02-28T10:32:10Z</time>
      </trkpt>
      <trkpt lat="43.27069" lon="-1.54172">
        <ele>193</ele>
        <time>2026-02-28T10:32:15Z</time>
      </trkpt>
      <trkpt lat="43.27143" lon="-1.54205">
        <ele>187</ele>
        <time>2026-02-28T10:32:29Z</time>
      </trkpt>
      <trkpt lat="43.27166" lon="-1.54219">
        <ele>185</ele>
        <time>2026-02-28T10:32:33Z</time>
      </trkpt>
      <trkpt lat="43.27221" lon="-1.54259">
        <ele>190</ele>
        <time>2026-02-28T10:32:45Z</time>
      </trkpt>
      <trkpt lat="43.27234" lon="-1.54274">
        <ele>192</ele>
        <time>2026-02-28T10:32:48Z</time>
      </trkpt>
      <trkpt lat="43.27258" lon="-1.54326">
        <ele>193</ele>
        <time>2026-02-28T10:32:56Z</time>
      </trkpt>
      <trkpt lat="43.27274" lon="-1.54352">
        <ele>194</ele>
        <time>2026-02-28T10:33:00Z</time>
      </trkpt>
      <trkpt lat="43.27317" lon="-1.54403">
        <ele>194</ele>
        <time>2026-02-28T10:33:10Z</time>
      </trkpt>
      <trkpt lat="43.2734" lon="-1.54422">
        <ele>193</ele>
        <time>2026-02-28T10:33:15Z</time>
      </trkpt>
      <trkpt lat="43.27366" lon="-1.54431">
        <ele>189</ele>
        <time>2026-02-28T10:33:20Z</time>
      </trkpt>
      <trkpt lat="43.27393" lon="-1.54435">
        <ele>187</ele>
        <time>2026-02-28T10:33:24Z</time>
      </trkpt>
      <trkpt lat="43.27414" lon="-1.54432">
        <ele>186</ele>
        <time>2026-02-28T10:33:28Z</time>
      </trkpt>
      <trkpt lat="43.27426" lon="-1.54427">
        <ele>184</ele>
        <time>2026-02-28T10:33:30Z</time>
      </trkpt>
      <trkpt lat="43.27482" lon="-1.54394">
        <ele>177</ele>
        <time>2026-02-28T10:33:41Z</time>
      </trkpt>
      <trkpt lat="43.27497" lon="-1.54387">
        <ele>174</ele>
        <time>2026-02-28T10:33:44Z</time>
      </trkpt>
      <trkpt lat="43.27507" lon="-1.54386">
        <ele>173</ele>
        <time>2026-02-28T10:33:46Z</time>
      </trkpt>
      <trkpt lat="43.2752" lon="-1.5439">
        <ele>172</ele>
        <time>2026-02-28T10:33:48Z</time>
      </trkpt>
      <trkpt lat="43.2757" lon="-1.5443">
        <ele>169</ele>
        <time>2026-02-28T10:33:59Z</time>
      </trkpt>
      <trkpt lat="43.27583" lon="-1.54443">
        <ele>169</ele>
        <time>2026-02-28T10:34:01Z</time>
      </trkpt>
      <trkpt lat="43.27602" lon="-1.5449">
        <ele>170</ele>
        <time>2026-02-28T10:34:08Z</time>
      </trkpt>
      <trkpt lat="43.27617" lon="-1.54523">
        <ele>167</ele>
        <time>2026-02-28T10:34:13Z</time>
      </trkpt>
      <trkpt lat="43.27639" lon="-1.54546">
        <ele>164</ele>
        <time>2026-02-28T10:34:18Z</time>
      </trkpt>
      <trkpt lat="43.2769" lon="-1.54575">
        <ele>163</ele>
        <time>2026-02-28T10:34:28Z</time>
      </trkpt>
      <trkpt lat="43.27715" lon="-1.54593">
        <ele>163</ele>
        <time>2026-02-28T10:34:33Z</time>
      </trkpt>
      <trkpt lat="43.27806" lon="-1.5468">
        <ele>162</ele>
        <time>2026-02-28T10:34:53Z</time>
      </trkpt>
      <trkpt lat="43.27832" lon="-1.5471">
        <ele>164</ele>
        <time>2026-02-28T10:34:59Z</time>
      </trkpt>
      <trkpt lat="43.27927" lon="-1.54851">
        <ele>180</ele>
        <time>2026-02-28T10:35:24Z</time>
      </trkpt>
      <trkpt lat="43.27959" lon="-1.54907">
        <ele>182</ele>
        <time>2026-02-28T10:35:33Z</time>
      </trkpt>
      <trkpt lat="43.27972" lon="-1.54917">
        <ele>181</ele>
        <time>2026-02-28T10:35:36Z</time>
      </trkpt>
      <trkpt lat="43.27984" lon="-1.5492">
        <ele>181</ele>
        <time>2026-02-28T10:35:38Z</time>
      </trkpt>
      <trkpt lat="43.28036" lon="-1.54907">
        <ele>179</ele>
        <time>2026-02-28T10:35:47Z</time>
      </trkpt>
      <trkpt lat="43.28065" lon="-1.54907">
        <ele>177</ele>
        <time>2026-02-28T10:35:52Z</time>
      </trkpt>
      <trkpt lat="43.28096" lon="-1.54912">
        <ele>175</ele>
        <time>2026-02-28T10:35:58Z</time>
      </trkpt>
      <trkpt lat="43.2812" lon="-1.5492">
        <ele>175</ele>
        <time>2026-02-28T10:36:02Z</time>
      </trkpt>
      <trkpt lat="43.28195" lon="-1.54954">
        <ele>170</ele>
        <time>2026-02-28T10:36:16Z</time>
      </trkpt>
      <trkpt lat="43.28222" lon="-1.54963">
        <ele>168</ele>
        <time>2026-02-28T10:36:21Z</time>
      </trkpt>
      <trkpt lat="43.28245" lon="-1.54961">
        <ele>168</ele>
        <time>2026-02-28T10:36:25Z</time>
      </trkpt>
      <trkpt lat="43.28271" lon="-1.54953">
        <ele>165</ele>
        <time>2026-02-28T10:36:30Z</time>
      </trkpt>
      <trkpt lat="43.28289" lon="-1.54941">
        <ele>164</ele>
        <time>2026-02-28T10:36:34Z</time>
      </trkpt>
      <trkpt lat="43.28306" lon="-1.54925">
        <ele>163</ele>
        <time>2026-02-28T10:36:37Z</time>
      </trkpt>
      <trkpt lat="43.28324" lon="-1.549">
        <ele>160</ele>
        <time>2026-02-28T10:36:42Z</time>
      </trkpt>
      <trkpt lat="43.28353" lon="-1.54855">
        <ele>156</ele>
        <time>2026-02-28T10:36:50Z</time>
      </trkpt>
      <trkpt lat="43.28369" lon="-1.54841">
        <ele>155</ele>
        <time>2026-02-28T10:36:53Z</time>
      </trkpt>
      <trkpt lat="43.28386" lon="-1.54842">
        <ele>154</ele>
        <time>2026-02-28T10:36:56Z</time>
      </trkpt>
      <trkpt lat="43.28399" lon="-1.54854">
        <ele>154</ele>
        <time>2026-02-28T10:36:59Z</time>
      </trkpt>
      <trkpt lat="43.28412" lon="-1.54869">
        <ele>153</ele>
        <time>2026-02-28T10:37:02Z</time>
      </trkpt>
      <trkpt lat="43.28417" lon="-1.54893">
        <ele>153</ele>
        <time>2026-02-28T10:37:05Z</time>
      </trkpt>
      <trkpt lat="43.28417" lon="-1.5492">
        <ele>154</ele>
        <time>2026-02-28T10:37:09Z</time>
      </trkpt>
      <trkpt lat="43.28407" lon="-1.54983">
        <ele>159</ele>
        <time>2026-02-28T10:37:17Z</time>
      </trkpt>
      <trkpt lat="43.284" lon="-1.55044">
        <ele>156</ele>
        <time>2026-02-28T10:37:25Z</time>
      </trkpt>
      <trkpt lat="43.28402" lon="-1.55082">
        <ele>155</ele>
        <time>2026-02-28T10:37:30Z</time>
      </trkpt>
      <trkpt lat="43.28413" lon="-1.55116">
        <ele>155</ele>
        <time>2026-02-28T10:37:35Z</time>
      </trkpt>
      <trkpt lat="43.28427" lon="-1.55141">
        <ele>153</ele>
        <time>2026-02-28T10:37:39Z</time>
      </trkpt>
      <trkpt lat="43.28444" lon="-1.55153">
        <ele>152</ele>
        <time>2026-02-28T10:37:42Z</time>
      </trkpt>
      <trkpt lat="43.28463" lon="-1.55156">
        <ele>152</ele>
        <time>2026-02-28T10:37:46Z</time>
      </trkpt>
      <trkpt lat="43.28497" lon="-1.55151">
        <ele>154</ele>
        <time>2026-02-28T10:37:52Z</time>
      </trkpt>
      <trkpt lat="43.28531" lon="-1.55137">
        <ele>156</ele>
        <time>2026-02-28T10:37:58Z</time>
      </trkpt>
      <trkpt lat="43.2855" lon="-1.55131">
        <ele>156</ele>
        <time>2026-02-28T10:38:02Z</time>
      </trkpt>
      <trkpt lat="43.28572" lon="-1.55133">
        <ele>155</ele>
        <time>2026-02-28T10:38:05Z</time>
      </trkpt>
      <trkpt lat="43.28603" lon="-1.55142">
        <ele>153</ele>
        <time>2026-02-28T10:38:11Z</time>
      </trkpt>
      <trkpt lat="43.28621" lon="-1.55149">
        <ele>151</ele>
        <time>2026-02-28T10:38:14Z</time>
      </trkpt>
      <trkpt lat="43.28638" lon="-1.55162">
        <ele>150</ele>
        <time>2026-02-28T10:38:18Z</time>
      </trkpt>
      <trkpt lat="43.28667" lon="-1.5521">
        <ele>152</ele>
        <time>2026-02-28T10:38:26Z</time>
      </trkpt>
      <trkpt lat="43.28681" lon="-1.55246">
        <ele>151</ele>
        <time>2026-02-28T10:38:31Z</time>
      </trkpt>
      <trkpt lat="43.28709" lon="-1.55376">
        <ele>144</ele>
        <time>2026-02-28T10:38:49Z</time>
      </trkpt>
      <trkpt lat="43.28721" lon="-1.55401">
        <ele>141</ele>
        <time>2026-02-28T10:38:53Z</time>
      </trkpt>
      <trkpt lat="43.28792" lon="-1.55492">
        <ele>126</ele>
        <time>2026-02-28T10:39:10Z</time>
      </trkpt>
      <trkpt lat="43.28814" lon="-1.55526">
        <ele>121</ele>
        <time>2026-02-28T10:39:16Z</time>
      </trkpt>
      <trkpt lat="43.28829" lon="-1.55565">
        <ele>116</ele>
        <time>2026-02-28T10:39:22Z</time>
      </trkpt>
      <trkpt lat="43.28833" lon="-1.55592">
        <ele>114</ele>
        <time>2026-02-28T10:39:25Z</time>
      </trkpt>
      <trkpt lat="43.28843" lon="-1.55716">
        <ele>110</ele>
        <time>2026-02-28T10:39:41Z</time>
      </trkpt>
      <trkpt lat="43.28849" lon="-1.55765">
        <ele>110</ele>
        <time>2026-02-28T10:39:48Z</time>
      </trkpt>
      <trkpt lat="43.28857" lon="-1.55797">
        <ele>109</ele>
        <time>2026-02-28T10:39:52Z</time>
      </trkpt>
      <trkpt lat="43.28871" lon="-1.55833">
        <ele>107</ele>
        <time>2026-02-28T10:39:57Z</time>
      </trkpt>
      <trkpt lat="43.28881" lon="-1.55853">
        <ele>107</ele>
        <time>2026-02-28T10:40:01Z</time>
      </trkpt>
      <trkpt lat="43.28891" lon="-1.55869">
        <ele>106</ele>
        <time>2026-02-28T10:40:03Z</time>
      </trkpt>
      <trkpt lat="43.28945" lon="-1.55908">
        <ele>102</ele>
        <time>2026-02-28T10:40:14Z</time>
      </trkpt>
      <trkpt lat="43.29003" lon="-1.55948">
        <ele>99</ele>
        <time>2026-02-28T10:40:26Z</time>
      </trkpt>
      <trkpt lat="43.29008" lon="-1.55946">
        <ele>99</ele>
        <time>2026-02-28T10:40:27Z</time>
      </trkpt>
      <trkpt lat="43.29012" lon="-1.55941">
        <ele>99</ele>
        <time>2026-02-28T10:40:28Z</time>
      </trkpt>
      <trkpt lat="43.29014" lon="-1.55931">
        <ele>98</ele>
        <time>2026-02-28T10:40:29Z</time>
      </trkpt>
      <trkpt lat="43.29015" lon="-1.55903">
        <ele>97</ele>
        <time>2026-02-28T10:40:33Z</time>
      </trkpt>
      <trkpt lat="43.29017" lon="-1.55897">
        <ele>97</ele>
        <time>2026-02-28T10:40:33Z</time>
      </trkpt>
      <trkpt lat="43.29022" lon="-1.55896">
        <ele>97</ele>
        <time>2026-02-28T10:40:34Z</time>
      </trkpt>
      <trkpt lat="43.2904" lon="-1.55916">
        <ele>97</ele>
        <time>2026-02-28T10:40:38Z</time>
      </trkpt>
      <trkpt lat="43.29048" lon="-1.55923">
        <ele>97</ele>
        <time>2026-02-28T10:40:40Z</time>
      </trkpt>
      <trkpt lat="43.29085" lon="-1.55931">
        <ele>97</ele>
        <time>2026-02-28T10:40:47Z</time>
      </trkpt>
      <trkpt lat="43.29128" lon="-1.55951">
        <ele>93</ele>
        <time>2026-02-28T10:40:55Z</time>
      </trkpt>
      <trkpt lat="43.29171" lon="-1.55963">
        <ele>89</ele>
        <time>2026-02-28T10:41:03Z</time>
      </trkpt>
      <trkpt lat="43.29182" lon="-1.55969">
        <ele>89</ele>
        <time>2026-02-28T10:41:05Z</time>
      </trkpt>
      <trkpt lat="43.29202" lon="-1.55988">
        <ele>87</ele>
        <time>2026-02-28T10:41:09Z</time>
      </trkpt>
      <trkpt lat="43.29211" lon="-1.55994">
        <ele>86</ele>
        <time>2026-02-28T10:41:11Z</time>
      </trkpt>
      <trkpt lat="43.2924" lon="-1.56003">
        <ele>83</ele>
        <time>2026-02-28T10:41:16Z</time>
      </trkpt>
      <trkpt lat="43.29254" lon="-1.56013">
        <ele>82</ele>
        <time>2026-02-28T10:41:19Z</time>
      </trkpt>
      <trkpt lat="43.29274" lon="-1.56042">
        <ele>83</ele>
        <time>2026-02-28T10:41:24Z</time>
      </trkpt>
      <trkpt lat="43.29286" lon="-1.56072">
        <ele>83</ele>
        <time>2026-02-28T10:41:29Z</time>
      </trkpt>
      <trkpt lat="43.29293" lon="-1.56086">
        <ele>82</ele>
        <time>2026-02-28T10:41:31Z</time>
      </trkpt>
      <trkpt lat="43.29306" lon="-1.56103">
        <ele>81</ele>
        <time>2026-02-28T10:41:34Z</time>
      </trkpt>
      <trkpt lat="43.29338" lon="-1.56137">
        <ele>77</ele>
        <time>2026-02-28T10:41:41Z</time>
      </trkpt>
      <trkpt lat="43.29392" lon="-1.5618">
        <ele>74</ele>
        <time>2026-02-28T10:41:52Z</time>
      </trkpt>
      <trkpt lat="43.294" lon="-1.56191">
        <ele>73</ele>
        <time>2026-02-28T10:41:54Z</time>
      </trkpt>
      <trkpt lat="43.29406" lon="-1.56208">
        <ele>72</ele>
        <time>2026-02-28T10:41:57Z</time>
      </trkpt>
      <trkpt lat="43.29411" lon="-1.56249">
        <ele>71</ele>
        <time>2026-02-28T10:42:02Z</time>
      </trkpt>
      <trkpt lat="43.29423" lon="-1.56288">
        <ele>71</ele>
        <time>2026-02-28T10:42:08Z</time>
      </trkpt>
      <trkpt lat="43.29426" lon="-1.56305">
        <ele>71</ele>
        <time>2026-02-28T10:42:10Z</time>
      </trkpt>
      <trkpt lat="43.29426" lon="-1.56328">
        <ele>70</ele>
        <time>2026-02-28T10:42:13Z</time>
      </trkpt>
      <trkpt lat="43.29428" lon="-1.56346">
        <ele>70</ele>
        <time>2026-02-28T10:42:15Z</time>
      </trkpt>
      <trkpt lat="43.29436" lon="-1.5637">
        <ele>69</ele>
        <time>2026-02-28T10:42:19Z</time>
      </trkpt>
      <trkpt lat="43.29444" lon="-1.56382">
        <ele>69</ele>
        <time>2026-02-28T10:42:21Z</time>
      </trkpt>
      <trkpt lat="43.29465" lon="-1.56403">
        <ele>67</ele>
        <time>2026-02-28T10:42:25Z</time>
      </trkpt>
      <trkpt lat="43.29509" lon="-1.56443">
        <ele>62</ele>
        <time>2026-02-28T10:42:35Z</time>
      </trkpt>
      <trkpt lat="43.29516" lon="-1.5645">
        <ele>61</ele>
        <time>2026-02-28T10:42:36Z</time>
      </trkpt>
      <trkpt lat="43.29608" lon="-1.56565">
        <ele>59</ele>
        <time>2026-02-28T10:42:58Z</time>
      </trkpt>
      <trkpt lat="43.29627" lon="-1.56583">
        <ele>58</ele>
        <time>2026-02-28T10:43:03Z</time>
      </trkpt>
      <trkpt lat="43.29646" lon="-1.56611">
        <ele>59</ele>
        <time>2026-02-28T10:43:07Z</time>
      </trkpt>
      <trkpt lat="43.29674" lon="-1.56675">
        <ele>61</ele>
        <time>2026-02-28T10:43:17Z</time>
      </trkpt>
      <trkpt lat="43.2968" lon="-1.56691">
        <ele>61</ele>
        <time>2026-02-28T10:43:20Z</time>
      </trkpt>
      <trkpt lat="43.2969" lon="-1.56709">
        <ele>60</ele>
        <time>2026-02-28T10:43:22Z</time>
      </trkpt>
      <trkpt lat="43.29705" lon="-1.56724">
        <ele>59</ele>
        <time>2026-02-28T10:43:26Z</time>
      </trkpt>
      <trkpt lat="43.29725" lon="-1.56749">
        <ele>57</ele>
        <time>2026-02-28T10:43:31Z</time>
      </trkpt>
      <trkpt lat="43.2978" lon="-1.56802">
        <ele>53</ele>
        <time>2026-02-28T10:43:42Z</time>
      </trkpt>
      <trkpt lat="43.29816" lon="-1.56832">
        <ele>52</ele>
        <time>2026-02-28T10:43:50Z</time>
      </trkpt>
      <trkpt lat="43.29837" lon="-1.56857">
        <ele>51</ele>
        <time>2026-02-28T10:43:55Z</time>
      </trkpt>
      <trkpt lat="43.29871" lon="-1.56923">
        <ele>51</ele>
        <time>2026-02-28T10:44:05Z</time>
      </trkpt>
      <trkpt lat="43.29878" lon="-1.56939">
        <ele>51</ele>
        <time>2026-02-28T10:44:08Z</time>
      </trkpt>
      <trkpt lat="43.29905" lon="-1.57026">
        <ele>50</ele>
        <time>2026-02-28T10:44:20Z</time>
      </trkpt>
      <trkpt lat="43.29909" lon="-1.57038">
        <ele>50</ele>
        <time>2026-02-28T10:44:22Z</time>
      </trkpt>
      <trkpt lat="43.29957" lon="-1.57133">
        <ele>50</ele>
        <time>2026-02-28T10:44:37Z</time>
      </trkpt>
      <trkpt lat="43.29977" lon="-1.57164">
        <ele>50</ele>
        <time>2026-02-28T10:44:42Z</time>
      </trkpt>
      <trkpt lat="43.29996" lon="-1.57171">
        <ele>50</ele>
        <time>2026-02-28T10:44:46Z</time>
      </trkpt>
      <trkpt lat="43.30018" lon="-1.57189">
        <ele>52</ele>
        <time>2026-02-28T10:44:50Z</time>
      </trkpt>
      <trkpt lat="43.30046" lon="-1.57219">
        <ele>52</ele>
        <time>2026-02-28T10:44:56Z</time>
      </trkpt>
      <trkpt lat="43.30077" lon="-1.57259">
        <ele>51</ele>
        <time>2026-02-28T10:45:04Z</time>
      </trkpt>
      <trkpt lat="43.30114" lon="-1.57292">
        <ele>53</ele>
        <time>2026-02-28T10:45:12Z</time>
      </trkpt>
      <trkpt lat="43.30127" lon="-1.57309">
        <ele>53</ele>
        <time>2026-02-28T10:45:15Z</time>
      </trkpt>
      <trkpt lat="43.30167" lon="-1.57388">
        <ele>53</ele>
        <time>2026-02-28T10:45:28Z</time>
      </trkpt>
      <trkpt lat="43.30176" lon="-1.57403">
        <ele>54</ele>
        <time>2026-02-28T10:45:30Z</time>
      </trkpt>
      <trkpt lat="43.3021" lon="-1.57449">
        <ele>56</ele>
        <time>2026-02-28T10:45:39Z</time>
      </trkpt>
      <trkpt lat="43.30215" lon="-1.57454">
        <ele>56</ele>
        <time>2026-02-28T10:45:40Z</time>
      </trkpt>
      <trkpt lat="43.30223" lon="-1.57458">
        <ele>55</ele>
        <time>2026-02-28T10:45:41Z</time>
      </trkpt>
      <trkpt lat="43.30252" lon="-1.57461">
        <ele>50</ele>
        <time>2026-02-28T10:45:46Z</time>
      </trkpt>
      <trkpt lat="43.30251" lon="-1.57494">
        <ele>50</ele>
        <time>2026-02-28T10:45:51Z</time>
      </trkpt>
      <trkpt lat="43.30262" lon="-1.57559">
        <ele>52</ele>
        <time>2026-02-28T10:45:59Z</time>
      </trkpt>
      <trkpt lat="43.30285" lon="-1.57627">
        <ele>55</ele>
        <time>2026-02-28T10:46:09Z</time>
      </trkpt>
      <trkpt lat="43.303" lon="-1.57654">
        <ele>56</ele>
        <time>2026-02-28T10:46:13Z</time>
      </trkpt>
      <trkpt lat="43.30324" lon="-1.57677">
        <ele>59</ele>
        <time>2026-02-28T10:46:19Z</time>
      </trkpt>
      <trkpt lat="43.30335" lon="-1.57696">
        <ele>62</ele>
        <time>2026-02-28T10:46:22Z</time>
      </trkpt>
      <trkpt lat="43.30347" lon="-1.57791">
        <ele>68</ele>
        <time>2026-02-28T10:46:34Z</time>
      </trkpt>
      <trkpt lat="43.30353" lon="-1.57815">
        <ele>69</ele>
        <time>2026-02-28T10:46:38Z</time>
      </trkpt>
      <trkpt lat="43.30368" lon="-1.57839">
        <ele>70</ele>
        <time>2026-02-28T10:46:42Z</time>
      </trkpt>
      <trkpt lat="43.3041" lon="-1.57885">
        <ele>73</ele>
        <time>2026-02-28T10:46:51Z</time>
      </trkpt>
      <trkpt lat="43.30431" lon="-1.57904">
        <ele>75</ele>
        <time>2026-02-28T10:46:56Z</time>
      </trkpt>
      <trkpt lat="43.30473" lon="-1.57948">
        <ele>78</ele>
        <time>2026-02-28T10:47:05Z</time>
      </trkpt>
      <trkpt lat="43.30488" lon="-1.5797">
        <ele>79</ele>
        <time>2026-02-28T10:47:09Z</time>
      </trkpt>
      <trkpt lat="43.30523" lon="-1.58036">
        <ele>83</ele>
        <time>2026-02-28T10:47:20Z</time>
      </trkpt>
      <trkpt lat="43.30545" lon="-1.58064">
        <ele>84</ele>
        <time>2026-02-28T10:47:25Z</time>
      </trkpt>
      <trkpt lat="43.30575" lon="-1.58092">
        <ele>85</ele>
        <time>2026-02-28T10:47:31Z</time>
      </trkpt>
      <trkpt lat="43.30556" lon="-1.58162">
        <ele>85</ele>
        <time>2026-02-28T10:47:41Z</time>
      </trkpt>
      <trkpt lat="43.30545" lon="-1.5819">
        <ele>86</ele>
        <time>2026-02-28T10:47:45Z</time>
      </trkpt>
      <trkpt lat="43.3052" lon="-1.58245">
        <ele>87</ele>
        <time>2026-02-28T10:47:53Z</time>
      </trkpt>
      <trkpt lat="43.30487" lon="-1.58302">
        <ele>89</ele>
        <time>2026-02-28T10:48:03Z</time>
      </trkpt>
      <trkpt lat="43.30472" lon="-1.58331">
        <ele>89</ele>
        <time>2026-02-28T10:48:08Z</time>
      </trkpt>
      <trkpt lat="43.30435" lon="-1.58416">
        <ele>92</ele>
        <time>2026-02-28T10:48:20Z</time>
      </trkpt>
      <trkpt lat="43.30416" lon="-1.58483">
        <ele>94</ele>
        <time>2026-02-28T10:48:30Z</time>
      </trkpt>
      <trkpt lat="43.30397" lon="-1.58569">
        <ele>93</ele>
        <time>2026-02-28T10:48:41Z</time>
      </trkpt>
      <trkpt lat="43.3039" lon="-1.58588">
        <ele>93</ele>
        <time>2026-02-28T10:48:44Z</time>
      </trkpt>
      <trkpt lat="43.30384" lon="-1.58597">
        <ele>92</ele>
        <time>2026-02-28T10:48:46Z</time>
      </trkpt>
      <trkpt lat="43.30364" lon="-1.58625">
        <ele>92</ele>
        <time>2026-02-28T10:48:51Z</time>
      </trkpt>
      <trkpt lat="43.30308" lon="-1.58693">
        <ele>91</ele>
        <time>2026-02-28T10:49:04Z</time>
      </trkpt>
      <trkpt lat="43.30259" lon="-1.58746">
        <ele>92</ele>
        <time>2026-02-28T10:49:15Z</time>
      </trkpt>
      <trkpt lat="43.30214" lon="-1.58801">
        <ele>94</ele>
        <time>2026-02-28T10:49:26Z</time>
      </trkpt>
      <trkpt lat="43.30207" lon="-1.58817">
        <ele>95</ele>
        <time>2026-02-28T10:49:28Z</time>
      </trkpt>
      <trkpt lat="43.30202" lon="-1.58832">
        <ele>96</ele>
        <time>2026-02-28T10:49:30Z</time>
      </trkpt>
      <trkpt lat="43.30198" lon="-1.58869">
        <ele>98</ele>
        <time>2026-02-28T10:49:35Z</time>
      </trkpt>
      <trkpt lat="43.30187" lon="-1.5893">
        <ele>101</ele>
        <time>2026-02-28T10:49:43Z</time>
      </trkpt>
      <trkpt lat="43.30168" lon="-1.58991">
        <ele>103</ele>
        <time>2026-02-28T10:49:52Z</time>
      </trkpt>
      <trkpt lat="43.30156" lon="-1.59016">
        <ele>103</ele>
        <time>2026-02-28T10:49:56Z</time>
      </trkpt>
      <trkpt lat="43.30145" lon="-1.59029">
        <ele>103</ele>
        <time>2026-02-28T10:49:58Z</time>
      </trkpt>
      <trkpt lat="43.3013" lon="-1.59041">
        <ele>103</ele>
        <time>2026-02-28T10:50:01Z</time>
      </trkpt>
      <trkpt lat="43.30111" lon="-1.59052">
        <ele>103</ele>
        <time>2026-02-28T10:50:05Z</time>
      </trkpt>
      <trkpt lat="43.30149" lon="-1.59094">
        <ele>103</ele>
        <time>2026-02-28T10:50:14Z</time>
      </trkpt>
      <trkpt lat="43.30199" lon="-1.59173">
        <ele>101</ele>
        <time>2026-02-28T10:50:27Z</time>
      </trkpt>
      <trkpt lat="43.30234" lon="-1.59236">
        <ele>101</ele>
        <time>2026-02-28T10:50:38Z</time>
      </trkpt>
      <trkpt lat="43.30245" lon="-1.59252">
        <ele>101</ele>
        <time>2026-02-28T10:50:41Z</time>
      </trkpt>
      <trkpt lat="43.30254" lon="-1.5926">
        <ele>101</ele>
        <time>2026-02-28T10:50:42Z</time>
      </trkpt>
      <trkpt lat="43.30269" lon="-1.59269">
        <ele>102</ele>
        <time>2026-02-28T10:50:45Z</time>
      </trkpt>
      <trkpt lat="43.30294" lon="-1.59278">
        <ele>102</ele>
        <time>2026-02-28T10:50:50Z</time>
      </trkpt>
      <trkpt lat="43.30377" lon="-1.59287">
        <ele>100</ele>
        <time>2026-02-28T10:51:05Z</time>
      </trkpt>
      <trkpt lat="43.3039" lon="-1.59285">
        <ele>100</ele>
        <time>2026-02-28T10:51:07Z</time>
      </trkpt>
      <trkpt lat="43.3046" lon="-1.59243">
        <ele>97</ele>
        <time>2026-02-28T10:51:21Z</time>
      </trkpt>
      <trkpt lat="43.30476" lon="-1.5923">
        <ele>95</ele>
        <time>2026-02-28T10:51:24Z</time>
      </trkpt>
      <trkpt lat="43.30494" lon="-1.59208">
        <ele>93</ele>
        <time>2026-02-28T10:51:28Z</time>
      </trkpt>
      <trkpt lat="43.3053" lon="-1.5916">
        <ele>90</ele>
        <time>2026-02-28T10:51:37Z</time>
      </trkpt>
      <trkpt lat="43.30682" lon="-1.58928">
        <ele>80</ele>
        <time>2026-02-28T10:52:18Z</time>
      </trkpt>
      <trkpt lat="43.30697" lon="-1.589">
        <ele>80</ele>
        <time>2026-02-28T10:52:22Z</time>
      </trkpt>
      <trkpt lat="43.3071" lon="-1.58871">
        <ele>78</ele>
        <time>2026-02-28T10:52:27Z</time>
      </trkpt>
      <trkpt lat="43.30849" lon="-1.58642">
        <ele>68</ele>
        <time>2026-02-28T10:53:05Z</time>
      </trkpt>
      <trkpt lat="43.30871" lon="-1.58611">
        <ele>67</ele>
        <time>2026-02-28T10:53:11Z</time>
      </trkpt>
      <trkpt lat="43.30885" lon="-1.58596">
        <ele>66</ele>
        <time>2026-02-28T10:53:14Z</time>
      </trkpt>
      <trkpt lat="43.30918" lon="-1.58569">
        <ele>65</ele>
        <time>2026-02-28T10:53:21Z</time>
      </trkpt>
      <trkpt lat="43.30998" lon="-1.58508">
        <ele>64</ele>
        <time>2026-02-28T10:53:37Z</time>
      </trkpt>
      <trkpt lat="43.31111" lon="-1.5843">
        <ele>59</ele>
        <time>2026-02-28T10:53:59Z</time>
      </trkpt>
      <trkpt lat="43.31124" lon="-1.58425">
        <ele>60</ele>
        <time>2026-02-28T10:54:02Z</time>
      </trkpt>
      <trkpt lat="43.31151" lon="-1.58417">
        <ele>60</ele>
        <time>2026-02-28T10:54:07Z</time>
      </trkpt>
      <trkpt lat="43.31177" lon="-1.58415">
        <ele>60</ele>
        <time>2026-02-28T10:54:11Z</time>
      </trkpt>
      <trkpt lat="43.31277" lon="-1.58432">
        <ele>61</ele>
        <time>2026-02-28T10:54:29Z</time>
      </trkpt>
      <trkpt lat="43.31297" lon="-1.58431">
        <ele>61</ele>
        <time>2026-02-28T10:54:33Z</time>
      </trkpt>
      <trkpt lat="43.31319" lon="-1.58425">
        <ele>61</ele>
        <time>2026-02-28T10:54:37Z</time>
      </trkpt>
      <trkpt lat="43.31351" lon="-1.58408">
        <ele>61</ele>
        <time>2026-02-28T10:54:43Z</time>
      </trkpt>
      <trkpt lat="43.31412" lon="-1.58372">
        <ele>61</ele>
        <time>2026-02-28T10:54:55Z</time>
      </trkpt>
      <trkpt lat="43.3142" lon="-1.58364">
        <ele>61</ele>
        <time>2026-02-28T10:54:57Z</time>
      </trkpt>
      <trkpt lat="43.31425" lon="-1.58356">
        <ele>61</ele>
        <time>2026-02-28T10:54:58Z</time>
      </trkpt>
      <trkpt lat="43.31443" lon="-1.58321">
        <ele>61</ele>
        <time>2026-02-28T10:55:04Z</time>
      </trkpt>
      <trkpt lat="43.31448" lon="-1.58301">
        <ele>61</ele>
        <time>2026-02-28T10:55:06Z</time>
      </trkpt>
      <trkpt lat="43.31446" lon="-1.5829">
        <ele>61</ele>
        <time>2026-02-28T10:55:08Z</time>
      </trkpt>
      <trkpt lat="43.31447" lon="-1.58284">
        <ele>61</ele>
        <time>2026-02-28T10:55:09Z</time>
      </trkpt>
      <trkpt lat="43.31452" lon="-1.58275">
        <ele>61</ele>
        <time>2026-02-28T10:55:10Z</time>
      </trkpt>
      <trkpt lat="43.31456" lon="-1.58273">
        <ele>61</ele>
        <time>2026-02-28T10:55:11Z</time>
      </trkpt>
      <trkpt lat="43.31464" lon="-1.58271">
        <ele>61</ele>
        <time>2026-02-28T10:55:12Z</time>
      </trkpt>
      <trkpt lat="43.31472" lon="-1.58277">
        <ele>61</ele>
        <time>2026-02-28T10:55:14Z</time>
      </trkpt>
      <trkpt lat="43.31476" lon="-1.58287">
        <ele>61</ele>
        <time>2026-02-28T10:55:15Z</time>
      </trkpt>
      <trkpt lat="43.31476" lon="-1.583">
        <ele>62</ele>
        <time>2026-02-28T10:55:17Z</time>
      </trkpt>
      <trkpt lat="43.31482" lon="-1.58323">
        <ele>63</ele>
        <time>2026-02-28T10:55:20Z</time>
      </trkpt>
      <trkpt lat="43.31542" lon="-1.5839">
        <ele>67</ele>
        <time>2026-02-28T10:55:34Z</time>
      </trkpt>
      <trkpt lat="43.31559" lon="-1.58416">
        <ele>69</ele>
        <time>2026-02-28T10:55:38Z</time>
      </trkpt>
      <trkpt lat="43.3157" lon="-1.58443">
        <ele>70</ele>
        <time>2026-02-28T10:55:42Z</time>
      </trkpt>
      <trkpt lat="43.31582" lon="-1.58483">
        <ele>72</ele>
        <time>2026-02-28T10:55:48Z</time>
      </trkpt>
      <trkpt lat="43.31622" lon="-1.58668">
        <ele>85</ele>
        <time>2026-02-28T10:56:13Z</time>
      </trkpt>
      <trkpt lat="43.31633" lon="-1.58693">
        <ele>88</ele>
        <time>2026-02-28T10:56:17Z</time>
      </trkpt>
      <trkpt lat="43.31648" lon="-1.58716">
        <ele>92</ele>
        <time>2026-02-28T10:56:21Z</time>
      </trkpt>
      <trkpt lat="43.31696" lon="-1.58753">
        <ele>100</ele>
        <time>2026-02-28T10:56:31Z</time>
      </trkpt>
      <trkpt lat="43.3172" lon="-1.58782">
        <ele>107</ele>
        <time>2026-02-28T10:56:36Z</time>
      </trkpt>
      <trkpt lat="43.31721" lon="-1.5879">
        <ele>108</ele>
        <time>2026-02-28T10:56:37Z</time>
      </trkpt>
      <trkpt lat="43.31716" lon="-1.58797">
        <ele>109</ele>
        <time>2026-02-28T10:56:39Z</time>
      </trkpt>
      <trkpt lat="43.31655" lon="-1.58801">
        <ele>107</ele>
        <time>2026-02-28T10:56:49Z</time>
      </trkpt>
      <trkpt lat="43.31617" lon="-1.58807">
        <ele>107</ele>
        <time>2026-02-28T10:56:56Z</time>
      </trkpt>
      <trkpt lat="43.31585" lon="-1.58822">
        <ele>111</ele>
        <time>2026-02-28T10:57:02Z</time>
      </trkpt>
      <trkpt lat="43.3155" lon="-1.58832">
        <ele>111</ele>
        <time>2026-02-28T10:57:09Z</time>
      </trkpt>
      <trkpt lat="43.31501" lon="-1.58834">
        <ele>107</ele>
        <time>2026-02-28T10:57:17Z</time>
      </trkpt>
      <trkpt lat="43.31494" lon="-1.58837">
        <ele>107</ele>
        <time>2026-02-28T10:57:19Z</time>
      </trkpt>
      <trkpt lat="43.31489" lon="-1.58843">
        <ele>108</ele>
        <time>2026-02-28T10:57:20Z</time>
      </trkpt>
      <trkpt lat="43.31489" lon="-1.58852">
        <ele>111</ele>
        <time>2026-02-28T10:57:21Z</time>
      </trkpt>
      <trkpt lat="43.31491" lon="-1.58857">
        <ele>112</ele>
        <time>2026-02-28T10:57:22Z</time>
      </trkpt>
      <trkpt lat="43.31496" lon="-1.58861">
        <ele>114</ele>
        <time>2026-02-28T10:57:23Z</time>
      </trkpt>
      <trkpt lat="43.31503" lon="-1.58861">
        <ele>114</ele>
        <time>2026-02-28T10:57:24Z</time>
      </trkpt>
      <trkpt lat="43.31515" lon="-1.58856">
        <ele>114</ele>
        <time>2026-02-28T10:57:26Z</time>
      </trkpt>
      <trkpt lat="43.31529" lon="-1.58853">
        <ele>114</ele>
        <time>2026-02-28T10:57:29Z</time>
      </trkpt>
      <trkpt lat="43.31553" lon="-1.58858">
        <ele>117</ele>
        <time>2026-02-28T10:57:33Z</time>
      </trkpt>
      <trkpt lat="43.31597" lon="-1.58856">
        <ele>119</ele>
        <time>2026-02-28T10:57:41Z</time>
      </trkpt>
      <trkpt lat="43.3163" lon="-1.58861">
        <ele>120</ele>
        <time>2026-02-28T10:57:47Z</time>
      </trkpt>
      <trkpt lat="43.31651" lon="-1.58868">
        <ele>122</ele>
        <time>2026-02-28T10:57:51Z</time>
      </trkpt>
      <trkpt lat="43.31695" lon="-1.58873">
        <ele>123</ele>
        <time>2026-02-28T10:57:59Z</time>
      </trkpt>
      <trkpt lat="43.31705" lon="-1.58876">
        <ele>123</ele>
        <time>2026-02-28T10:58:00Z</time>
      </trkpt>
      <trkpt lat="43.31748" lon="-1.58922">
        <ele>127</ele>
        <time>2026-02-28T10:58:10Z</time>
      </trkpt>
      <trkpt lat="43.31763" lon="-1.5893">
        <ele>128</ele>
        <time>2026-02-28T10:58:13Z</time>
      </trkpt>
      <trkpt lat="43.31792" lon="-1.58933">
        <ele>128</ele>
        <time>2026-02-28T10:58:18Z</time>
      </trkpt>
      <trkpt lat="43.318" lon="-1.58937">
        <ele>128</ele>
        <time>2026-02-28T10:58:20Z</time>
      </trkpt>
      <trkpt lat="43.31806" lon="-1.58942">
        <ele>128</ele>
        <time>2026-02-28T10:58:21Z</time>
      </trkpt>
      <trkpt lat="43.31812" lon="-1.58952">
        <ele>128</ele>
        <time>2026-02-28T10:58:23Z</time>
      </trkpt>
      <trkpt lat="43.31814" lon="-1.5897">
        <ele>128</ele>
        <time>2026-02-28T10:58:25Z</time>
      </trkpt>
      <trkpt lat="43.31813" lon="-1.58977">
        <ele>128</ele>
        <time>2026-02-28T10:58:26Z</time>
      </trkpt>
      <trkpt lat="43.31789" lon="-1.59021">
        <ele>126</ele>
        <time>2026-02-28T10:58:33Z</time>
      </trkpt>
      <trkpt lat="43.31781" lon="-1.59031">
        <ele>125</ele>
        <time>2026-02-28T10:58:35Z</time>
      </trkpt>
      <trkpt lat="43.31774" lon="-1.59036">
        <ele>125</ele>
        <time>2026-02-28T10:58:36Z</time>
      </trkpt>
      <trkpt lat="43.31767" lon="-1.59037">
        <ele>125</ele>
        <time>2026-02-28T10:58:38Z</time>
      </trkpt>
      <trkpt lat="43.31737" lon="-1.5903">
        <ele>129</ele>
        <time>2026-02-28T10:58:43Z</time>
      </trkpt>
      <trkpt lat="43.31722" lon="-1.5903">
        <ele>131</ele>
        <time>2026-02-28T10:58:46Z</time>
      </trkpt>
      <trkpt lat="43.31709" lon="-1.59033">
        <ele>132</ele>
        <time>2026-02-28T10:58:48Z</time>
      </trkpt>
      <trkpt lat="43.31698" lon="-1.59039">
        <ele>132</ele>
        <time>2026-02-28T10:58:50Z</time>
      </trkpt>
      <trkpt lat="43.31689" lon="-1.59049">
        <ele>132</ele>
        <time>2026-02-28T10:58:52Z</time>
      </trkpt>
      <trkpt lat="43.31671" lon="-1.59078">
        <ele>131</ele>
        <time>2026-02-28T10:58:57Z</time>
      </trkpt>
      <trkpt lat="43.31664" lon="-1.59086">
        <ele>131</ele>
        <time>2026-02-28T10:58:59Z</time>
      </trkpt>
      <trkpt lat="43.31644" lon="-1.59099">
        <ele>132</ele>
        <time>2026-02-28T10:59:03Z</time>
      </trkpt>
      <trkpt lat="43.31611" lon="-1.59107">
        <ele>136</ele>
        <time>2026-02-28T10:59:09Z</time>
      </trkpt>
      <trkpt lat="43.31602" lon="-1.59114">
        <ele>137</ele>
        <time>2026-02-28T10:59:10Z</time>
      </trkpt>
      <trkpt lat="43.31597" lon="-1.59124">
        <ele>137</ele>
        <time>2026-02-28T10:59:12Z</time>
      </trkpt>
      <trkpt lat="43.31593" lon="-1.59156">
        <ele>136</ele>
        <time>2026-02-28T10:59:16Z</time>
      </trkpt>
      <trkpt lat="43.31586" lon="-1.59178">
        <ele>136</ele>
        <time>2026-02-28T10:59:19Z</time>
      </trkpt>
      <trkpt lat="43.3156" lon="-1.59243">
        <ele>142</ele>
        <time>2026-02-28T10:59:29Z</time>
      </trkpt>
      <trkpt lat="43.31542" lon="-1.59296">
        <ele>148</ele>
        <time>2026-02-28T10:59:36Z</time>
      </trkpt>
      <trkpt lat="43.3153" lon="-1.59315">
        <ele>152</ele>
        <time>2026-02-28T10:59:40Z</time>
      </trkpt>
      <trkpt lat="43.31516" lon="-1.59328">
        <ele>156</ele>
        <time>2026-02-28T10:59:43Z</time>
      </trkpt>
      <trkpt lat="43.31514" lon="-1.59336">
        <ele>157</ele>
        <time>2026-02-28T10:59:44Z</time>
      </trkpt>
      <trkpt lat="43.31514" lon="-1.59346">
        <ele>158</ele>
        <time>2026-02-28T10:59:45Z</time>
      </trkpt>
      <trkpt lat="43.31517" lon="-1.59352">
        <ele>158</ele>
        <time>2026-02-28T10:59:46Z</time>
      </trkpt>
      <trkpt lat="43.31529" lon="-1.59359">
        <ele>156</ele>
        <time>2026-02-28T10:59:48Z</time>
      </trkpt>
      <trkpt lat="43.31537" lon="-1.59366">
        <ele>154</ele>
        <time>2026-02-28T10:59:50Z</time>
      </trkpt>
      <trkpt lat="43.31544" lon="-1.59381">
        <ele>155</ele>
        <time>2026-02-28T10:59:52Z</time>
      </trkpt>
      <trkpt lat="43.3155" lon="-1.59401">
        <ele>156</ele>
        <time>2026-02-28T10:59:55Z</time>
      </trkpt>
      <trkpt lat="43.31554" lon="-1.59408">
        <ele>156</ele>
        <time>2026-02-28T10:59:56Z</time>
      </trkpt>
      <trkpt lat="43.31561" lon="-1.59412">
        <ele>155</ele>
        <time>2026-02-28T10:59:58Z</time>
      </trkpt>
      <trkpt lat="43.31587" lon="-1.59417">
        <ele>151</ele>
        <time>2026-02-28T11:00:02Z</time>
      </trkpt>
      <trkpt lat="43.31594" lon="-1.59422">
        <ele>151</ele>
        <time>2026-02-28T11:00:04Z</time>
      </trkpt>
      <trkpt lat="43.316" lon="-1.59428">
        <ele>151</ele>
        <time>2026-02-28T11:00:05Z</time>
      </trkpt>
      <trkpt lat="43.31621" lon="-1.59469">
        <ele>157</ele>
        <time>2026-02-28T11:00:12Z</time>
      </trkpt>
      <trkpt lat="43.31631" lon="-1.59475">
        <ele>157</ele>
        <time>2026-02-28T11:00:13Z</time>
      </trkpt>
      <trkpt lat="43.31651" lon="-1.59482">
        <ele>155</ele>
        <time>2026-02-28T11:00:17Z</time>
      </trkpt>
      <trkpt lat="43.31658" lon="-1.59487">
        <ele>155</ele>
        <time>2026-02-28T11:00:19Z</time>
      </trkpt>
      <trkpt lat="43.31682" lon="-1.59515">
        <ele>157</ele>
        <time>2026-02-28T11:00:24Z</time>
      </trkpt>
      <trkpt lat="43.31705" lon="-1.59529">
        <ele>155</ele>
        <time>2026-02-28T11:00:29Z</time>
      </trkpt>
      <trkpt lat="43.31723" lon="-1.59555">
        <ele>155</ele>
        <time>2026-02-28T11:00:33Z</time>
      </trkpt>
      <trkpt lat="43.31732" lon="-1.5957">
        <ele>155</ele>
        <time>2026-02-28T11:00:36Z</time>
      </trkpt>
      <trkpt lat="43.31737" lon="-1.59582">
        <ele>156</ele>
        <time>2026-02-28T11:00:38Z</time>
      </trkpt>
      <trkpt lat="43.31739" lon="-1.59594">
        <ele>156</ele>
        <time>2026-02-28T11:00:39Z</time>
      </trkpt>
      <trkpt lat="43.31739" lon="-1.59609">
        <ele>158</ele>
        <time>2026-02-28T11:00:41Z</time>
      </trkpt>
      <trkpt lat="43.31737" lon="-1.59623">
        <ele>160</ele>
        <time>2026-02-28T11:00:43Z</time>
      </trkpt>
      <trkpt lat="43.31724" lon="-1.59658">
        <ele>168</ele>
        <time>2026-02-28T11:00:48Z</time>
      </trkpt>
      <trkpt lat="43.31723" lon="-1.59668">
        <ele>170</ele>
        <time>2026-02-28T11:00:49Z</time>
      </trkpt>
      <trkpt lat="43.31725" lon="-1.59675">
        <ele>170</ele>
        <time>2026-02-28T11:00:50Z</time>
      </trkpt>
      <trkpt lat="43.31737" lon="-1.59684">
        <ele>168</ele>
        <time>2026-02-28T11:00:53Z</time>
      </trkpt>
      <trkpt lat="43.31744" lon="-1.59691">
        <ele>167</ele>
        <time>2026-02-28T11:00:54Z</time>
      </trkpt>
      <trkpt lat="43.31758" lon="-1.59719">
        <ele>170</ele>
        <time>2026-02-28T11:00:59Z</time>
      </trkpt>
      <trkpt lat="43.31763" lon="-1.59722">
        <ele>170</ele>
        <time>2026-02-28T11:01:00Z</time>
      </trkpt>
      <trkpt lat="43.31781" lon="-1.59722">
        <ele>167</ele>
        <time>2026-02-28T11:01:03Z</time>
      </trkpt>
      <trkpt lat="43.31793" lon="-1.59726">
        <ele>166</ele>
        <time>2026-02-28T11:01:05Z</time>
      </trkpt>
      <trkpt lat="43.31813" lon="-1.59751">
        <ele>167</ele>
        <time>2026-02-28T11:01:10Z</time>
      </trkpt>
      <trkpt lat="43.31825" lon="-1.59764">
        <ele>167</ele>
        <time>2026-02-28T11:01:13Z</time>
      </trkpt>
      <trkpt lat="43.31864" lon="-1.59784">
        <ele>167</ele>
        <time>2026-02-28T11:01:20Z</time>
      </trkpt>
      <trkpt lat="43.31871" lon="-1.59792">
        <ele>168</ele>
        <time>2026-02-28T11:01:22Z</time>
      </trkpt>
      <trkpt lat="43.31884" lon="-1.59819">
        <ele>172</ele>
        <time>2026-02-28T11:01:26Z</time>
      </trkpt>
      <trkpt lat="43.31893" lon="-1.59824">
        <ele>172</ele>
        <time>2026-02-28T11:01:28Z</time>
      </trkpt>
      <trkpt lat="43.3192" lon="-1.59822">
        <ele>170</ele>
        <time>2026-02-28T11:01:32Z</time>
      </trkpt>
      <trkpt lat="43.31932" lon="-1.5983">
        <ele>171</ele>
        <time>2026-02-28T11:01:35Z</time>
      </trkpt>
      <trkpt lat="43.31957" lon="-1.5985">
        <ele>177</ele>
        <time>2026-02-28T11:01:40Z</time>
      </trkpt>
      <trkpt lat="43.3197" lon="-1.59856">
        <ele>178</ele>
        <time>2026-02-28T11:01:42Z</time>
      </trkpt>
      <trkpt lat="43.31976" lon="-1.59855">
        <ele>178</ele>
        <time>2026-02-28T11:01:43Z</time>
      </trkpt>
      <trkpt lat="43.32" lon="-1.59835">
        <ele>173</ele>
        <time>2026-02-28T11:01:48Z</time>
      </trkpt>
      <trkpt lat="43.3202" lon="-1.59824">
        <ele>174</ele>
        <time>2026-02-28T11:01:52Z</time>
      </trkpt>
      <trkpt lat="43.32027" lon="-1.59816">
        <ele>173</ele>
        <time>2026-02-28T11:01:54Z</time>
      </trkpt>
      <trkpt lat="43.32042" lon="-1.59788">
        <ele>168</ele>
        <time>2026-02-28T11:01:58Z</time>
      </trkpt>
      <trkpt lat="43.32052" lon="-1.59779">
        <ele>167</ele>
        <time>2026-02-28T11:02:00Z</time>
      </trkpt>
      <trkpt lat="43.3206" lon="-1.59781">
        <ele>169</ele>
        <time>2026-02-28T11:02:02Z</time>
      </trkpt>
      <trkpt lat="43.32103" lon="-1.59803">
        <ele>175</ele>
        <time>2026-02-28T11:02:10Z</time>
      </trkpt>
      <trkpt lat="43.32138" lon="-1.59812">
        <ele>174</ele>
        <time>2026-02-28T11:02:16Z</time>
      </trkpt>
      <trkpt lat="43.32154" lon="-1.5982">
        <ele>175</ele>
        <time>2026-02-28T11:02:19Z</time>
      </trkpt>
      <trkpt lat="43.32172" lon="-1.59841">
        <ele>177</ele>
        <time>2026-02-28T11:02:24Z</time>
      </trkpt>
      <trkpt lat="43.32184" lon="-1.59866">
        <ele>177</ele>
        <time>2026-02-28T11:02:28Z</time>
      </trkpt>
      <trkpt lat="43.32187" lon="-1.59887">
        <ele>178</ele>
        <time>2026-02-28T11:02:30Z</time>
      </trkpt>
      <trkpt lat="43.3219" lon="-1.59928">
        <ele>182</ele>
        <time>2026-02-28T11:02:36Z</time>
      </trkpt>
      <trkpt lat="43.32189" lon="-1.59943">
        <ele>184</ele>
        <time>2026-02-28T11:02:38Z</time>
      </trkpt>
      <trkpt lat="43.32182" lon="-1.59969">
        <ele>189</ele>
        <time>2026-02-28T11:02:41Z</time>
      </trkpt>
      <trkpt lat="43.32181" lon="-1.59981">
        <ele>191</ele>
        <time>2026-02-28T11:02:43Z</time>
      </trkpt>
      <trkpt lat="43.32183" lon="-1.59986">
        <ele>191</ele>
        <time>2026-02-28T11:02:43Z</time>
      </trkpt>
      <trkpt lat="43.32187" lon="-1.5999">
        <ele>192</ele>
        <time>2026-02-28T11:02:44Z</time>
      </trkpt>
      <trkpt lat="43.32191" lon="-1.59993">
        <ele>192</ele>
        <time>2026-02-28T11:02:45Z</time>
      </trkpt>
      <trkpt lat="43.32203" lon="-1.5999">
        <ele>191</ele>
        <time>2026-02-28T11:02:47Z</time>
      </trkpt>
      <trkpt lat="43.3223" lon="-1.59953">
        <ele>183</ele>
        <time>2026-02-28T11:02:54Z</time>
      </trkpt>
      <trkpt lat="43.32242" lon="-1.59947">
        <ele>181</ele>
        <time>2026-02-28T11:02:56Z</time>
      </trkpt>
      <trkpt lat="43.32252" lon="-1.59949">
        <ele>180</ele>
        <time>2026-02-28T11:02:58Z</time>
      </trkpt>
      <trkpt lat="43.32265" lon="-1.59959">
        <ele>181</ele>
        <time>2026-02-28T11:03:01Z</time>
      </trkpt>
      <trkpt lat="43.32286" lon="-1.59984">
        <ele>184</ele>
        <time>2026-02-28T11:03:06Z</time>
      </trkpt>
      <trkpt lat="43.32306" lon="-1.59999">
        <ele>184</ele>
        <time>2026-02-28T11:03:10Z</time>
      </trkpt>
      <trkpt lat="43.32329" lon="-1.60012">
        <ele>184</ele>
        <time>2026-02-28T11:03:14Z</time>
      </trkpt>
      <trkpt lat="43.3236" lon="-1.60023">
        <ele>182</ele>
        <time>2026-02-28T11:03:20Z</time>
      </trkpt>
      <trkpt lat="43.32373" lon="-1.6003">
        <ele>181</ele>
        <time>2026-02-28T11:03:22Z</time>
      </trkpt>
      <trkpt lat="43.32388" lon="-1.60045">
        <ele>180</ele>
        <time>2026-02-28T11:03:26Z</time>
      </trkpt>
      <trkpt lat="43.32422" lon="-1.60096">
        <ele>179</ele>
        <time>2026-02-28T11:03:35Z</time>
      </trkpt>
      <trkpt lat="43.32428" lon="-1.60101">
        <ele>179</ele>
        <time>2026-02-28T11:03:36Z</time>
      </trkpt>
      <trkpt lat="43.32438" lon="-1.60104">
        <ele>179</ele>
        <time>2026-02-28T11:03:38Z</time>
      </trkpt>
      <trkpt lat="43.32452" lon="-1.60094">
        <ele>176</ele>
        <time>2026-02-28T11:03:41Z</time>
      </trkpt>
      <trkpt lat="43.3249" lon="-1.60061">
        <ele>173</ele>
        <time>2026-02-28T11:03:49Z</time>
      </trkpt>
      <trkpt lat="43.32498" lon="-1.60056">
        <ele>173</ele>
        <time>2026-02-28T11:03:50Z</time>
      </trkpt>
      <trkpt lat="43.32507" lon="-1.60054">
        <ele>173</ele>
        <time>2026-02-28T11:03:52Z</time>
      </trkpt>
      <trkpt lat="43.32517" lon="-1.60054">
        <ele>174</ele>
        <time>2026-02-28T11:03:54Z</time>
      </trkpt>
      <trkpt lat="43.32529" lon="-1.60061">
        <ele>173</ele>
        <time>2026-02-28T11:03:56Z</time>
      </trkpt>
      <trkpt lat="43.32561" lon="-1.60087">
        <ele>170</ele>
        <time>2026-02-28T11:04:02Z</time>
      </trkpt>
      <trkpt lat="43.32578" lon="-1.60097">
        <ele>168</ele>
        <time>2026-02-28T11:04:06Z</time>
      </trkpt>
      <trkpt lat="43.32685" lon="-1.60134">
        <ele>169</ele>
        <time>2026-02-28T11:04:25Z</time>
      </trkpt>
      <trkpt lat="43.32714" lon="-1.60151">
        <ele>168</ele>
        <time>2026-02-28T11:04:31Z</time>
      </trkpt>
      <trkpt lat="43.32751" lon="-1.60178">
        <ele>166</ele>
        <time>2026-02-28T11:04:38Z</time>
      </trkpt>
      <trkpt lat="43.32772" lon="-1.60187">
        <ele>164</ele>
        <time>2026-02-28T11:04:42Z</time>
      </trkpt>
      <trkpt lat="43.32792" lon="-1.60191">
        <ele>164</ele>
        <time>2026-02-28T11:04:46Z</time>
      </trkpt>
      <trkpt lat="43.32899" lon="-1.60204">
        <ele>162</ele>
        <time>2026-02-28T11:05:05Z</time>
      </trkpt>
      <trkpt lat="43.32981" lon="-1.60215">
        <ele>158</ele>
        <time>2026-02-28T11:05:20Z</time>
      </trkpt>
      <trkpt lat="43.33019" lon="-1.60227">
        <ele>155</ele>
        <time>2026-02-28T11:05:27Z</time>
      </trkpt>
      <trkpt lat="43.33073" lon="-1.60252">
        <ele>152</ele>
        <time>2026-02-28T11:05:37Z</time>
      </trkpt>
      <trkpt lat="43.33094" lon="-1.60262">
        <ele>152</ele>
        <time>2026-02-28T11:05:41Z</time>
      </trkpt>
      <trkpt lat="43.3311" lon="-1.60273">
        <ele>151</ele>
        <time>2026-02-28T11:05:44Z</time>
      </trkpt>
      <trkpt lat="43.33128" lon="-1.60292">
        <ele>150</ele>
        <time>2026-02-28T11:05:48Z</time>
      </trkpt>
      <trkpt lat="43.33143" lon="-1.60316">
        <ele>150</ele>
        <time>2026-02-28T11:05:52Z</time>
      </trkpt>
      <trkpt lat="43.33156" lon="-1.60359">
        <ele>148</ele>
        <time>2026-02-28T11:05:58Z</time>
      </trkpt>
      <trkpt lat="43.33174" lon="-1.60406">
        <ele>145</ele>
        <time>2026-02-28T11:06:05Z</time>
      </trkpt>
      <trkpt lat="43.33178" lon="-1.60435">
        <ele>142</ele>
        <time>2026-02-28T11:06:09Z</time>
      </trkpt>
      <trkpt lat="43.33185" lon="-1.60466">
        <ele>139</ele>
        <time>2026-02-28T11:06:13Z</time>
      </trkpt>
      <trkpt lat="43.33199" lon="-1.60488">
        <ele>139</ele>
        <time>2026-02-28T11:06:17Z</time>
      </trkpt>
      <trkpt lat="43.33212" lon="-1.60497">
        <ele>141</ele>
        <time>2026-02-28T11:06:19Z</time>
      </trkpt>
      <trkpt lat="43.33234" lon="-1.60504">
        <ele>146</ele>
        <time>2026-02-28T11:06:23Z</time>
      </trkpt>
      <trkpt lat="43.33244" lon="-1.60513">
        <ele>148</ele>
        <time>2026-02-28T11:06:26Z</time>
      </trkpt>
      <trkpt lat="43.33247" lon="-1.60524">
        <ele>147</ele>
        <time>2026-02-28T11:06:27Z</time>
      </trkpt>
      <trkpt lat="43.33243" lon="-1.6057">
        <ele>140</ele>
        <time>2026-02-28T11:06:33Z</time>
      </trkpt>
      <trkpt lat="43.33249" lon="-1.60601">
        <ele>136</ele>
        <time>2026-02-28T11:06:37Z</time>
      </trkpt>
      <trkpt lat="43.33268" lon="-1.60651">
        <ele>132</ele>
        <time>2026-02-28T11:06:45Z</time>
      </trkpt>
      <trkpt lat="43.33317" lon="-1.60728">
        <ele>129</ele>
        <time>2026-02-28T11:06:58Z</time>
      </trkpt>
      <trkpt lat="43.33331" lon="-1.60735">
        <ele>131</ele>
        <time>2026-02-28T11:07:00Z</time>
      </trkpt>
      <trkpt lat="43.33344" lon="-1.60746">
        <ele>131</ele>
        <time>2026-02-28T11:07:03Z</time>
      </trkpt>
      <trkpt lat="43.33353" lon="-1.60767">
        <ele>129</ele>
        <time>2026-02-28T11:07:06Z</time>
      </trkpt>
      <trkpt lat="43.33353" lon="-1.60788">
        <ele>125</ele>
        <time>2026-02-28T11:07:09Z</time>
      </trkpt>
      <trkpt lat="43.33359" lon="-1.60813">
        <ele>122</ele>
        <time>2026-02-28T11:07:12Z</time>
      </trkpt>
      <trkpt lat="43.33373" lon="-1.60836">
        <ele>120</ele>
        <time>2026-02-28T11:07:16Z</time>
      </trkpt>
      <trkpt lat="43.3339" lon="-1.60852">
        <ele>119</ele>
        <time>2026-02-28T11:07:20Z</time>
      </trkpt>
      <trkpt lat="43.33401" lon="-1.60853">
        <ele>121</ele>
        <time>2026-02-28T11:07:22Z</time>
      </trkpt>
      <trkpt lat="43.33424" lon="-1.60845">
        <ele>127</ele>
        <time>2026-02-28T11:07:26Z</time>
      </trkpt>
      <trkpt lat="43.33434" lon="-1.60846">
        <ele>130</ele>
        <time>2026-02-28T11:07:28Z</time>
      </trkpt>
      <trkpt lat="43.33441" lon="-1.60858">
        <ele>130</ele>
        <time>2026-02-28T11:07:30Z</time>
      </trkpt>
      <trkpt lat="43.33442" lon="-1.60876">
        <ele>127</ele>
        <time>2026-02-28T11:07:32Z</time>
      </trkpt>
      <trkpt lat="43.33434" lon="-1.60918">
        <ele>117</ele>
        <time>2026-02-28T11:07:38Z</time>
      </trkpt>
      <trkpt lat="43.33435" lon="-1.60941">
        <ele>115</ele>
        <time>2026-02-28T11:07:41Z</time>
      </trkpt>
      <trkpt lat="43.33441" lon="-1.60956">
        <ele>116</ele>
        <time>2026-02-28T11:07:43Z</time>
      </trkpt>
      <trkpt lat="43.33457" lon="-1.60973">
        <ele>121</ele>
        <time>2026-02-28T11:07:47Z</time>
      </trkpt>
      <trkpt lat="43.33461" lon="-1.60989">
        <ele>121</ele>
        <time>2026-02-28T11:07:49Z</time>
      </trkpt>
      <trkpt lat="43.33458" lon="-1.61001">
        <ele>119</ele>
        <time>2026-02-28T11:07:50Z</time>
      </trkpt>
      <trkpt lat="43.33439" lon="-1.61015">
        <ele>112</ele>
        <time>2026-02-28T11:07:54Z</time>
      </trkpt>
      <trkpt lat="43.3343" lon="-1.61045">
        <ele>108</ele>
        <time>2026-02-28T11:07:59Z</time>
      </trkpt>
      <trkpt lat="43.33429" lon="-1.61078">
        <ele>108</ele>
        <time>2026-02-28T11:08:03Z</time>
      </trkpt>
      <trkpt lat="43.33423" lon="-1.61102">
        <ele>103</ele>
        <time>2026-02-28T11:08:06Z</time>
      </trkpt>
      <trkpt lat="43.33421" lon="-1.61125">
        <ele>100</ele>
        <time>2026-02-28T11:08:09Z</time>
      </trkpt>
      <trkpt lat="43.33423" lon="-1.6117">
        <ele>97</ele>
        <time>2026-02-28T11:08:15Z</time>
      </trkpt>
      <trkpt lat="43.33431" lon="-1.612">
        <ele>94</ele>
        <time>2026-02-28T11:08:19Z</time>
      </trkpt>
      <trkpt lat="43.3344" lon="-1.61214">
        <ele>94</ele>
        <time>2026-02-28T11:08:21Z</time>
      </trkpt>
      <trkpt lat="43.33448" lon="-1.61219">
        <ele>95</ele>
        <time>2026-02-28T11:08:23Z</time>
      </trkpt>
      <trkpt lat="43.33457" lon="-1.61218">
        <ele>98</ele>
        <time>2026-02-28T11:08:25Z</time>
      </trkpt>
      <trkpt lat="43.33471" lon="-1.61223">
        <ele>101</ele>
        <time>2026-02-28T11:08:27Z</time>
      </trkpt>
      <trkpt lat="43.3348" lon="-1.61233">
        <ele>101</ele>
        <time>2026-02-28T11:08:29Z</time>
      </trkpt>
      <trkpt lat="43.33501" lon="-1.61281">
        <ele>95</ele>
        <time>2026-02-28T11:08:37Z</time>
      </trkpt>
      <trkpt lat="43.33531" lon="-1.61302">
        <ele>97</ele>
        <time>2026-02-28T11:08:42Z</time>
      </trkpt>
      <trkpt lat="43.33538" lon="-1.61319">
        <ele>95</ele>
        <time>2026-02-28T11:08:45Z</time>
      </trkpt>
      <trkpt lat="43.33539" lon="-1.61369">
        <ele>86</ele>
        <time>2026-02-28T11:08:51Z</time>
      </trkpt>
      <trkpt lat="43.33546" lon="-1.61387">
        <ele>84</ele>
        <time>2026-02-28T11:08:54Z</time>
      </trkpt>
      <trkpt lat="43.33566" lon="-1.61407">
        <ele>85</ele>
        <time>2026-02-28T11:08:59Z</time>
      </trkpt>
      <trkpt lat="43.33576" lon="-1.61419">
        <ele>85</ele>
        <time>2026-02-28T11:09:01Z</time>
      </trkpt>
      <trkpt lat="43.3359" lon="-1.6145">
        <ele>81</ele>
        <time>2026-02-28T11:09:06Z</time>
      </trkpt>
      <trkpt lat="43.33602" lon="-1.61468">
        <ele>79</ele>
        <time>2026-02-28T11:09:09Z</time>
      </trkpt>
      <trkpt lat="43.33615" lon="-1.61479">
        <ele>79</ele>
        <time>2026-02-28T11:09:11Z</time>
      </trkpt>
      <trkpt lat="43.33654" lon="-1.61499">
        <ele>80</ele>
        <time>2026-02-28T11:09:19Z</time>
      </trkpt>
      <trkpt lat="43.33696" lon="-1.61543">
        <ele>73</ele>
        <time>2026-02-28T11:09:28Z</time>
      </trkpt>
      <trkpt lat="43.33788" lon="-1.61574">
        <ele>63</ele>
        <time>2026-02-28T11:09:45Z</time>
      </trkpt>
      <trkpt lat="43.33807" lon="-1.61573">
        <ele>62</ele>
        <time>2026-02-28T11:09:49Z</time>
      </trkpt>
      <trkpt lat="43.33835" lon="-1.61567">
        <ele>61</ele>
        <time>2026-02-28T11:09:54Z</time>
      </trkpt>
      <trkpt lat="43.33868" lon="-1.61571">
        <ele>57</ele>
        <time>2026-02-28T11:09:59Z</time>
      </trkpt>
      <trkpt lat="43.33892" lon="-1.61563">
        <ele>58</ele>
        <time>2026-02-28T11:10:04Z</time>
      </trkpt>
      <trkpt lat="43.3392" lon="-1.61564">
        <ele>56</ele>
        <time>2026-02-28T11:10:09Z</time>
      </trkpt>
      <trkpt lat="43.33942" lon="-1.61559">
        <ele>58</ele>
        <time>2026-02-28T11:10:13Z</time>
      </trkpt>
      <trkpt lat="43.33962" lon="-1.61557">
        <ele>59</ele>
        <time>2026-02-28T11:10:16Z</time>
      </trkpt>
      <trkpt lat="43.34008" lon="-1.61565">
        <ele>57</ele>
        <time>2026-02-28T11:10:25Z</time>
      </trkpt>
      <trkpt lat="43.34025" lon="-1.61572">
        <ele>55</ele>
        <time>2026-02-28T11:10:28Z</time>
      </trkpt>
      <trkpt lat="43.3406" lon="-1.61609">
        <ele>48</ele>
        <time>2026-02-28T11:10:36Z</time>
      </trkpt>
      <trkpt lat="43.34077" lon="-1.61621">
        <ele>46</ele>
        <time>2026-02-28T11:10:39Z</time>
      </trkpt>
      <trkpt lat="43.34092" lon="-1.61623">
        <ele>46</ele>
        <time>2026-02-28T11:10:42Z</time>
      </trkpt>
      <trkpt lat="43.34147" lon="-1.61609">
        <ele>45</ele>
        <time>2026-02-28T11:10:52Z</time>
      </trkpt>
      <trkpt lat="43.34345" lon="-1.61629">
        <ele>32</ele>
        <time>2026-02-28T11:11:27Z</time>
      </trkpt>
      <trkpt lat="43.34356" lon="-1.61637">
        <ele>30</ele>
        <time>2026-02-28T11:11:29Z</time>
      </trkpt>
      <trkpt lat="43.34364" lon="-1.61649">
        <ele>29</ele>
        <time>2026-02-28T11:11:31Z</time>
      </trkpt>
      <trkpt lat="43.34377" lon="-1.61689">
        <ele>26</ele>
        <time>2026-02-28T11:11:37Z</time>
      </trkpt>
      <trkpt lat="43.34378" lon="-1.61699">
        <ele>25</ele>
        <time>2026-02-28T11:11:38Z</time>
      </trkpt>
      <trkpt lat="43.34379" lon="-1.61719">
        <ele>24</ele>
        <time>2026-02-28T11:11:41Z</time>
      </trkpt>
      <trkpt lat="43.3438" lon="-1.61879">
        <ele>24</ele>
        <time>2026-02-28T11:12:02Z</time>
      </trkpt>
      <trkpt lat="43.34381" lon="-1.61901">
        <ele>25</ele>
        <time>2026-02-28T11:12:04Z</time>
      </trkpt>
      <trkpt lat="43.34384" lon="-1.61931">
        <ele>26</ele>
        <time>2026-02-28T11:12:08Z</time>
      </trkpt>
      <trkpt lat="43.3447" lon="-1.61923">
        <ele>19</ele>
        <time>2026-02-28T11:12:24Z</time>
      </trkpt>
      <trkpt lat="43.34483" lon="-1.61925">
        <ele>18</ele>
        <time>2026-02-28T11:12:26Z</time>
      </trkpt>
      <trkpt lat="43.34501" lon="-1.6193">
        <ele>17</ele>
        <time>2026-02-28T11:12:29Z</time>
      </trkpt>
      <trkpt lat="43.34573" lon="-1.6196">
        <ele>16</ele>
        <time>2026-02-28T11:12:43Z</time>
      </trkpt>
      <trkpt lat="43.34576" lon="-1.61968">
        <ele>16</ele>
        <time>2026-02-28T11:12:44Z</time>
      </trkpt>
      <trkpt lat="43.3464" lon="-1.62016">
        <ele>13</ele>
        <time>2026-02-28T11:12:57Z</time>
      </trkpt>
      <trkpt lat="43.34679" lon="-1.62052">
        <ele>11</ele>
        <time>2026-02-28T11:13:05Z</time>
      </trkpt>
      <trkpt lat="43.3478" lon="-1.62127">
        <ele>9</ele>
        <time>2026-02-28T11:13:26Z</time>
      </trkpt>
      <trkpt lat="43.34816" lon="-1.62162">
        <ele>9</ele>
        <time>2026-02-28T11:13:33Z</time>
      </trkpt>
      <trkpt lat="43.348" lon="-1.62205">
        <ele>9</ele>
        <time>2026-02-28T11:13:40Z</time>
      </trkpt>
      <trkpt lat="43.34794" lon="-1.62229">
        <ele>9</ele>
        <time>2026-02-28T11:13:43Z</time>
      </trkpt>
      <trkpt lat="43.34794" lon="-1.62236">
        <ele>9</ele>
        <time>2026-02-28T11:13:44Z</time>
      </trkpt>
      <trkpt lat="43.3481" lon="-1.62304">
        <ele>9</ele>
        <time>2026-02-28T11:13:53Z</time>
      </trkpt>
      <trkpt lat="43.34811" lon="-1.62319">
        <ele>9</ele>
        <time>2026-02-28T11:13:55Z</time>
      </trkpt>
      <trkpt lat="43.3481" lon="-1.62344">
        <ele>9</ele>
        <time>2026-02-28T11:13:58Z</time>
      </trkpt>
      <trkpt lat="43.34814" lon="-1.62357">
        <ele>8</ele>
        <time>2026-02-28T11:14:00Z</time>
      </trkpt>
      <trkpt lat="43.3486" lon="-1.62416">
        <ele>7</ele>
        <time>2026-02-28T11:14:11Z</time>
      </trkpt>
      <trkpt lat="43.34874" lon="-1.62439">
        <ele>7</ele>
        <time>2026-02-28T11:14:15Z</time>
      </trkpt>
      <trkpt lat="43.34909" lon="-1.62517">
        <ele>7</ele>
        <time>2026-02-28T11:14:27Z</time>
      </trkpt>
      <trkpt lat="43.34921" lon="-1.62554">
        <ele>6</ele>
        <time>2026-02-28T11:14:32Z</time>
      </trkpt>
      <trkpt lat="43.34928" lon="-1.62581">
        <ele>6</ele>
        <time>2026-02-28T11:14:36Z</time>
      </trkpt>
      <trkpt lat="43.34929" lon="-1.62603">
        <ele>5</ele>
        <time>2026-02-28T11:14:39Z</time>
      </trkpt>
      <trkpt lat="43.34928" lon="-1.62631">
        <ele>4</ele>
        <time>2026-02-28T11:14:43Z</time>
      </trkpt>
      <trkpt lat="43.34922" lon="-1.62669">
        <ele>3</ele>
        <time>2026-02-28T11:14:48Z</time>
      </trkpt>
      <trkpt lat="43.34908" lon="-1.62721">
        <ele>4</ele>
        <time>2026-02-28T11:14:55Z</time>
      </trkpt>
      <trkpt lat="43.34902" lon="-1.62754">
        <ele>5</ele>
        <time>2026-02-28T11:14:59Z</time>
      </trkpt>
      <trkpt lat="43.34899" lon="-1.62812">
        <ele>8</ele>
        <time>2026-02-28T11:15:07Z</time>
      </trkpt>
      <trkpt lat="43.349" lon="-1.62831">
        <ele>9</ele>
        <time>2026-02-28T11:15:09Z</time>
      </trkpt>
      <trkpt lat="43.34907" lon="-1.62857">
        <ele>9</ele>
        <time>2026-02-28T11:15:13Z</time>
      </trkpt>
      <trkpt lat="43.3491" lon="-1.62881">
        <ele>10</ele>
        <time>2026-02-28T11:15:16Z</time>
      </trkpt>
      <trkpt lat="43.34911" lon="-1.62931">
        <ele>12</ele>
        <time>2026-02-28T11:15:22Z</time>
      </trkpt>
      <trkpt lat="43.34907" lon="-1.62983">
        <ele>15</ele>
        <time>2026-02-28T11:15:29Z</time>
      </trkpt>
      <trkpt lat="43.3491" lon="-1.63015">
        <ele>17</ele>
        <time>2026-02-28T11:15:33Z</time>
      </trkpt>
      <trkpt lat="43.34913" lon="-1.63035">
        <ele>19</ele>
        <time>2026-02-28T11:15:36Z</time>
      </trkpt>
      <trkpt lat="43.34922" lon="-1.63063">
        <ele>20</ele>
        <time>2026-02-28T11:15:40Z</time>
      </trkpt>
      <trkpt lat="43.34932" lon="-1.63079">
        <ele>20</ele>
        <time>2026-02-28T11:15:43Z</time>
      </trkpt>
      <trkpt lat="43.35001" lon="-1.63132">
        <ele>17</ele>
        <time>2026-02-28T11:15:57Z</time>
      </trkpt>
      <trkpt lat="43.35084" lon="-1.63192">
        <ele>17</ele>
        <time>2026-02-28T11:16:13Z</time>
      </trkpt>
      <trkpt lat="43.35122" lon="-1.63222">
        <ele>18</ele>
        <time>2026-02-28T11:16:21Z</time>
      </trkpt>
      <trkpt lat="43.35224" lon="-1.63308">
        <ele>19</ele>
        <time>2026-02-28T11:16:42Z</time>
      </trkpt>
      <trkpt lat="43.35255" lon="-1.63338">
        <ele>19</ele>
        <time>2026-02-28T11:16:49Z</time>
      </trkpt>
      <trkpt lat="43.35267" lon="-1.63355">
        <ele>21</ele>
        <time>2026-02-28T11:16:52Z</time>
      </trkpt>
      <trkpt lat="43.35279" lon="-1.63369">
        <ele>22</ele>
        <time>2026-02-28T11:16:55Z</time>
      </trkpt>
      <trkpt lat="43.35307" lon="-1.63386">
        <ele>21</ele>
        <time>2026-02-28T11:17:00Z</time>
      </trkpt>
      <trkpt lat="43.35336" lon="-1.63406">
        <ele>20</ele>
        <time>2026-02-28T11:17:06Z</time>
      </trkpt>
      <trkpt lat="43.35371" lon="-1.63452">
        <ele>21</ele>
        <time>2026-02-28T11:17:15Z</time>
      </trkpt>
      <trkpt lat="43.35431" lon="-1.63491">
        <ele>15</ele>
        <time>2026-02-28T11:17:27Z</time>
      </trkpt>
      <trkpt lat="43.35441" lon="-1.63503">
        <ele>14</ele>
        <time>2026-02-28T11:17:29Z</time>
      </trkpt>
      <trkpt lat="43.3545" lon="-1.63522">
        <ele>14</ele>
        <time>2026-02-28T11:17:32Z</time>
      </trkpt>
      <trkpt lat="43.35453" lon="-1.63534">
        <ele>14</ele>
        <time>2026-02-28T11:17:34Z</time>
      </trkpt>
      <trkpt lat="43.35455" lon="-1.63562">
        <ele>14</ele>
        <time>2026-02-28T11:17:37Z</time>
      </trkpt>
      <trkpt lat="43.35453" lon="-1.63594">
        <ele>15</ele>
        <time>2026-02-28T11:17:41Z</time>
      </trkpt>
      <trkpt lat="43.35442" lon="-1.63676">
        <ele>13</ele>
        <time>2026-02-28T11:17:52Z</time>
      </trkpt>
      <trkpt lat="43.35442" lon="-1.63742">
        <ele>9</ele>
        <time>2026-02-28T11:18:01Z</time>
      </trkpt>
      <trkpt lat="43.35444" lon="-1.63795">
        <ele>7</ele>
        <time>2026-02-28T11:18:08Z</time>
      </trkpt>
      <trkpt lat="43.35448" lon="-1.6381">
        <ele>6</ele>
        <time>2026-02-28T11:18:10Z</time>
      </trkpt>
      <trkpt lat="43.35453" lon="-1.63825">
        <ele>6</ele>
        <time>2026-02-28T11:18:12Z</time>
      </trkpt>
      <trkpt lat="43.35458" lon="-1.63833">
        <ele>6</ele>
        <time>2026-02-28T11:18:13Z</time>
      </trkpt>
      <trkpt lat="43.35473" lon="-1.63849">
        <ele>6</ele>
        <time>2026-02-28T11:18:17Z</time>
      </trkpt>
      <trkpt lat="43.35505" lon="-1.63876">
        <ele>7</ele>
        <time>2026-02-28T11:18:23Z</time>
      </trkpt>
      <trkpt lat="43.35525" lon="-1.63888">
        <ele>8</ele>
        <time>2026-02-28T11:18:27Z</time>
      </trkpt>
      <trkpt lat="43.35598" lon="-1.63912">
        <ele>10</ele>
        <time>2026-02-28T11:18:40Z</time>
      </trkpt>
      <trkpt lat="43.35582" lon="-1.64022">
        <ele>15</ele>
        <time>2026-02-28T11:18:55Z</time>
      </trkpt>
      <trkpt lat="43.35573" lon="-1.64045">
        <ele>16</ele>
        <time>2026-02-28T11:18:58Z</time>
      </trkpt>
      <trkpt lat="43.35446" lon="-1.64129">
        <ele>13</ele>
        <time>2026-02-28T11:19:23Z</time>
      </trkpt>
      <trkpt lat="43.35418" lon="-1.64167">
        <ele>12</ele>
        <time>2026-02-28T11:19:30Z</time>
      </trkpt>
      <trkpt lat="43.35335" lon="-1.64248">
        <ele>15</ele>
        <time>2026-02-28T11:19:49Z</time>
      </trkpt>
      <trkpt lat="43.35251" lon="-1.64281">
        <ele>12</ele>
        <time>2026-02-28T11:20:04Z</time>
      </trkpt>
      <trkpt lat="43.35126" lon="-1.64319">
        <ele>9</ele>
        <time>2026-02-28T11:20:27Z</time>
      </trkpt>
      <trkpt lat="43.35116" lon="-1.64323">
        <ele>8</ele>
        <time>2026-02-28T11:20:29Z</time>
      </trkpt>
      <trkpt lat="43.35103" lon="-1.6433">
        <ele>8</ele>
        <time>2026-02-28T11:20:31Z</time>
      </trkpt>
      <trkpt lat="43.35076" lon="-1.64352">
        <ele>9</ele>
        <time>2026-02-28T11:20:37Z</time>
      </trkpt>
      <trkpt lat="43.35053" lon="-1.64361">
        <ele>10</ele>
        <time>2026-02-28T11:20:41Z</time>
      </trkpt>
      <trkpt lat="43.34996" lon="-1.64375">
        <ele>13</ele>
        <time>2026-02-28T11:20:51Z</time>
      </trkpt>
      <trkpt lat="43.34985" lon="-1.6438">
        <ele>13</ele>
        <time>2026-02-28T11:20:53Z</time>
      </trkpt>
      <trkpt lat="43.34959" lon="-1.64387">
        <ele>13</ele>
        <time>2026-02-28T11:20:58Z</time>
      </trkpt>
      <trkpt lat="43.34931" lon="-1.64372">
        <ele>14</ele>
        <time>2026-02-28T11:21:03Z</time>
      </trkpt>
      <trkpt lat="43.34879" lon="-1.64316">
        <ele>18</ele>
        <time>2026-02-28T11:21:15Z</time>
      </trkpt>
      <trkpt lat="43.34796" lon="-1.64317">
        <ele>18</ele>
        <time>2026-02-28T11:21:30Z</time>
      </trkpt>
      <trkpt lat="43.34736" lon="-1.64261">
        <ele>23</ele>
        <time>2026-02-28T11:21:43Z</time>
      </trkpt>
      <trkpt lat="43.34691" lon="-1.6423">
        <ele>23</ele>
        <time>2026-02-28T11:21:52Z</time>
      </trkpt>
      <trkpt lat="43.34683" lon="-1.64226">
        <ele>23</ele>
        <time>2026-02-28T11:21:53Z</time>
      </trkpt>
      <trkpt lat="43.34667" lon="-1.64226">
        <ele>22</ele>
        <time>2026-02-28T11:21:56Z</time>
      </trkpt>
      <trkpt lat="43.34651" lon="-1.64236">
        <ele>24</ele>
        <time>2026-02-28T11:21:59Z</time>
      </trkpt>
      <trkpt lat="43.3464" lon="-1.64264">
        <ele>24</ele>
        <time>2026-02-28T11:22:03Z</time>
      </trkpt>
      <trkpt lat="43.34622" lon="-1.64317">
        <ele>22</ele>
        <time>2026-02-28T11:22:11Z</time>
      </trkpt>
      <trkpt lat="43.34553" lon="-1.64347">
        <ele>23</ele>
        <time>2026-02-28T11:22:24Z</time>
      </trkpt>
      <trkpt lat="43.34484" lon="-1.64316">
        <ele>25</ele>
        <time>2026-02-28T11:22:37Z</time>
      </trkpt>
      <trkpt lat="43.34351" lon="-1.64301">
        <ele>26</ele>
        <time>2026-02-28T11:23:01Z</time>
      </trkpt>
      <trkpt lat="43.34024" lon="-1.64261">
        <ele>35</ele>
        <time>2026-02-28T11:23:59Z</time>
      </trkpt>
      <trkpt lat="43.34023" lon="-1.64283">
        <ele>35</ele>
        <time>2026-02-28T11:24:02Z</time>
      </trkpt>
      <trkpt lat="43.34019" lon="-1.64309">
        <ele>35</ele>
        <time>2026-02-28T11:24:05Z</time>
      </trkpt>
      <trkpt lat="43.33986" lon="-1.64473">
        <ele>37</ele>
        <time>2026-02-28T11:24:27Z</time>
      </trkpt>
      <trkpt lat="43.33774" lon="-1.65464">
        <ele>65</ele>
        <time>2026-02-28T11:26:41Z</time>
      </trkpt>
      <trkpt lat="43.3373" lon="-1.65677">
        <ele>64</ele>
        <time>2026-02-28T11:27:10Z</time>
      </trkpt>
      <trkpt lat="43.33716" lon="-1.65754">
        <ele>66</ele>
        <time>2026-02-28T11:27:20Z</time>
      </trkpt>
      <trkpt lat="43.33695" lon="-1.6592">
        <ele>68</ele>
        <time>2026-02-28T11:27:42Z</time>
      </trkpt>
      <trkpt lat="43.33677" lon="-1.66023">
        <ele>69</ele>
        <time>2026-02-28T11:27:55Z</time>
      </trkpt>
      <trkpt lat="43.3365" lon="-1.66164">
        <ele>65</ele>
        <time>2026-02-28T11:28:14Z</time>
      </trkpt>
      <trkpt lat="43.33645" lon="-1.66182">
        <ele>65</ele>
        <time>2026-02-28T11:28:17Z</time>
      </trkpt>
      <trkpt lat="43.33622" lon="-1.6624">
        <ele>67</ele>
        <time>2026-02-28T11:28:25Z</time>
      </trkpt>
      <trkpt lat="43.33615" lon="-1.66263">
        <ele>67</ele>
        <time>2026-02-28T11:28:29Z</time>
      </trkpt>
      <trkpt lat="43.33607" lon="-1.66344">
        <ele>65</ele>
        <time>2026-02-28T11:28:39Z</time>
      </trkpt>
      <trkpt lat="43.33608" lon="-1.66377">
        <ele>64</ele>
        <time>2026-02-28T11:28:43Z</time>
      </trkpt>
      <trkpt lat="43.33615" lon="-1.66412">
        <ele>62</ele>
        <time>2026-02-28T11:28:48Z</time>
      </trkpt>
      <trkpt lat="43.33625" lon="-1.66444">
        <ele>59</ele>
        <time>2026-02-28T11:28:53Z</time>
      </trkpt>
      <trkpt lat="43.33661" lon="-1.6654">
        <ele>53</ele>
        <time>2026-02-28T11:29:07Z</time>
      </trkpt>
      <trkpt lat="43.33666" lon="-1.66563">
        <ele>52</ele>
        <time>2026-02-28T11:29:10Z</time>
      </trkpt>
      <trkpt lat="43.33671" lon="-1.66597">
        <ele>50</ele>
        <time>2026-02-28T11:29:14Z</time>
      </trkpt>
      <trkpt lat="43.33672" lon="-1.66622">
        <ele>50</ele>
        <time>2026-02-28T11:29:17Z</time>
      </trkpt>
      <trkpt lat="43.33666" lon="-1.66662">
        <ele>48</ele>
        <time>2026-02-28T11:29:23Z</time>
      </trkpt>
      <trkpt lat="43.33655" lon="-1.66718">
        <ele>47</ele>
        <time>2026-02-28T11:29:30Z</time>
      </trkpt>
      <trkpt lat="43.3364" lon="-1.66759">
        <ele>45</ele>
        <time>2026-02-28T11:29:36Z</time>
      </trkpt>
      <trkpt lat="43.33633" lon="-1.66772">
        <ele>45</ele>
        <time>2026-02-28T11:29:38Z</time>
      </trkpt>
      <trkpt lat="43.33629" lon="-1.66778">
        <ele>45</ele>
        <time>2026-02-28T11:29:39Z</time>
      </trkpt>
      <trkpt lat="43.33622" lon="-1.66788">
        <ele>45</ele>
        <time>2026-02-28T11:29:41Z</time>
      </trkpt>
      <trkpt lat="43.33613" lon="-1.66794">
        <ele>45</ele>
        <time>2026-02-28T11:29:43Z</time>
      </trkpt>
      <trkpt lat="43.3361" lon="-1.66799">
        <ele>45</ele>
        <time>2026-02-28T11:29:44Z</time>
      </trkpt>
      <trkpt lat="43.33606" lon="-1.66802">
        <ele>45</ele>
        <time>2026-02-28T11:29:45Z</time>
      </trkpt>
      <trkpt lat="43.33599" lon="-1.66799">
        <ele>45</ele>
        <time>2026-02-28T11:29:46Z</time>
      </trkpt>
      <trkpt lat="43.3358" lon="-1.668">
        <ele>45</ele>
        <time>2026-02-28T11:29:49Z</time>
      </trkpt>
      <trkpt lat="43.33596" lon="-1.66791">
        <ele>45</ele>
        <time>2026-02-28T11:29:52Z</time>
      </trkpt>
      <trkpt lat="43.33597" lon="-1.66783">
        <ele>45</ele>
        <time>2026-02-28T11:29:53Z</time>
      </trkpt>
      <trkpt lat="43.33602" lon="-1.66779">
        <ele>45</ele>
        <time>2026-02-28T11:29:54Z</time>
      </trkpt>
      <trkpt lat="43.33605" lon="-1.66779">
        <ele>45</ele>
        <time>2026-02-28T11:29:55Z</time>
      </trkpt>
      <trkpt lat="43.33611" lon="-1.66782">
        <ele>45</ele>
        <time>2026-02-28T11:29:56Z</time>
      </trkpt>
      <trkpt lat="43.33612" lon="-1.66786">
        <ele>45</ele>
        <time>2026-02-28T11:29:57Z</time>
      </trkpt>
      <trkpt lat="43.33613" lon="-1.66794">
        <ele>45</ele>
        <time>2026-02-28T11:29:58Z</time>
      </trkpt>
      <trkpt lat="43.3361" lon="-1.66799">
        <ele>45</ele>
        <time>2026-02-28T11:29:58Z</time>
      </trkpt>
      <trkpt lat="43.33606" lon="-1.66802">
        <ele>45</ele>
        <time>2026-02-28T11:29:59Z</time>
      </trkpt>
      <trkpt lat="43.3361" lon="-1.66812">
        <ele>45</ele>
        <time>2026-02-28T11:30:01Z</time>
      </trkpt>
      <trkpt lat="43.3362" lon="-1.66822">
        <ele>44</ele>
        <time>2026-02-28T11:30:03Z</time>
      </trkpt>
      <trkpt lat="43.33683" lon="-1.66831">
        <ele>43</ele>
        <time>2026-02-28T11:30:14Z</time>
      </trkpt>
      <trkpt lat="43.337" lon="-1.66832">
        <ele>42</ele>
        <time>2026-02-28T11:30:17Z</time>
      </trkpt>
      <trkpt lat="43.33747" lon="-1.66824">
        <ele>42</ele>
        <time>2026-02-28T11:30:26Z</time>
      </trkpt>
      <trkpt lat="43.33782" lon="-1.66811">
        <ele>41</ele>
        <time>2026-02-28T11:30:32Z</time>
      </trkpt>
      <trkpt lat="43.33831" lon="-1.66786">
        <ele>39</ele>
        <time>2026-02-28T11:30:41Z</time>
      </trkpt>
      <trkpt lat="43.33878" lon="-1.66755">
        <ele>37</ele>
        <time>2026-02-28T11:30:51Z</time>
      </trkpt>
      <trkpt lat="43.3392" lon="-1.66705">
        <ele>37</ele>
        <time>2026-02-28T11:31:01Z</time>
      </trkpt>
      <trkpt lat="43.33975" lon="-1.66648">
        <ele>34</ele>
        <time>2026-02-28T11:31:13Z</time>
      </trkpt>
      <trkpt lat="43.33996" lon="-1.66637">
        <ele>33</ele>
        <time>2026-02-28T11:31:17Z</time>
      </trkpt>
      <trkpt lat="43.34014" lon="-1.66632">
        <ele>33</ele>
        <time>2026-02-28T11:31:20Z</time>
      </trkpt>
      <trkpt lat="43.34031" lon="-1.6663">
        <ele>34</ele>
        <time>2026-02-28T11:31:23Z</time>
      </trkpt>
      <trkpt lat="43.34045" lon="-1.66632">
        <ele>35</ele>
        <time>2026-02-28T11:31:26Z</time>
      </trkpt>
      <trkpt lat="43.34055" lon="-1.66636">
        <ele>35</ele>
        <time>2026-02-28T11:31:27Z</time>
      </trkpt>
      <trkpt lat="43.34059" lon="-1.66639">
        <ele>36</ele>
        <time>2026-02-28T11:31:28Z</time>
      </trkpt>
      <trkpt lat="43.3409" lon="-1.66655">
        <ele>38</ele>
        <time>2026-02-28T11:31:34Z</time>
      </trkpt>
      <trkpt lat="43.34167" lon="-1.66684">
        <ele>44</ele>
        <time>2026-02-28T11:31:48Z</time>
      </trkpt>
      <trkpt lat="43.34291" lon="-1.66741">
        <ele>53</ele>
        <time>2026-02-28T11:32:12Z</time>
      </trkpt>
      <trkpt lat="43.3432" lon="-1.66746">
        <ele>54</ele>
        <time>2026-02-28T11:32:17Z</time>
      </trkpt>
      <trkpt lat="43.34348" lon="-1.66741">
        <ele>57</ele>
        <time>2026-02-28T11:32:22Z</time>
      </trkpt>
      <trkpt lat="43.34368" lon="-1.66726">
        <ele>61</ele>
        <time>2026-02-28T11:32:26Z</time>
      </trkpt>
      <trkpt lat="43.34419" lon="-1.66665">
        <ele>71</ele>
        <time>2026-02-28T11:32:38Z</time>
      </trkpt>
      <trkpt lat="43.34436" lon="-1.66659">
        <ele>72</ele>
        <time>2026-02-28T11:32:41Z</time>
      </trkpt>
      <trkpt lat="43.34498" lon="-1.66656">
        <ele>72</ele>
        <time>2026-02-28T11:32:52Z</time>
      </trkpt>
      <trkpt lat="43.34535" lon="-1.66657">
        <ele>74</ele>
        <time>2026-02-28T11:32:59Z</time>
      </trkpt>
      <trkpt lat="43.34553" lon="-1.66663">
        <ele>75</ele>
        <time>2026-02-28T11:33:02Z</time>
      </trkpt>
      <trkpt lat="43.34569" lon="-1.66676">
        <ele>76</ele>
        <time>2026-02-28T11:33:05Z</time>
      </trkpt>
      <trkpt lat="43.34661" lon="-1.66775">
        <ele>74</ele>
        <time>2026-02-28T11:33:26Z</time>
      </trkpt>
      <trkpt lat="43.34676" lon="-1.66789">
        <ele>73</ele>
        <time>2026-02-28T11:33:29Z</time>
      </trkpt>
      <trkpt lat="43.34741" lon="-1.66805">
        <ele>72</ele>
        <time>2026-02-28T11:33:41Z</time>
      </trkpt>
      <trkpt lat="43.34795" lon="-1.6681">
        <ele>73</ele>
        <time>2026-02-28T11:33:51Z</time>
      </trkpt>
      <trkpt lat="43.3482" lon="-1.66817">
        <ele>74</ele>
        <time>2026-02-28T11:33:55Z</time>
      </trkpt>
      <trkpt lat="43.34917" lon="-1.66871">
        <ele>83</ele>
        <time>2026-02-28T11:34:14Z</time>
      </trkpt>
      <trkpt lat="43.34942" lon="-1.66882">
        <ele>87</ele>
        <time>2026-02-28T11:34:19Z</time>
      </trkpt>
      <trkpt lat="43.34958" lon="-1.6688">
        <ele>89</ele>
        <time>2026-02-28T11:34:21Z</time>
      </trkpt>
      <trkpt lat="43.3497" lon="-1.6687">
        <ele>90</ele>
        <time>2026-02-28T11:34:24Z</time>
      </trkpt>
      <trkpt lat="43.34977" lon="-1.66826">
        <ele>86</ele>
        <time>2026-02-28T11:34:30Z</time>
      </trkpt>
      <trkpt lat="43.34985" lon="-1.66811">
        <ele>85</ele>
        <time>2026-02-28T11:34:32Z</time>
      </trkpt>
      <trkpt lat="43.34998" lon="-1.66803">
        <ele>86</ele>
        <time>2026-02-28T11:34:35Z</time>
      </trkpt>
      <trkpt lat="43.35013" lon="-1.668">
        <ele>86</ele>
        <time>2026-02-28T11:34:37Z</time>
      </trkpt>
      <trkpt lat="43.35023" lon="-1.66806">
        <ele>87</ele>
        <time>2026-02-28T11:34:39Z</time>
      </trkpt>
      <trkpt lat="43.35073" lon="-1.66853">
        <ele>92</ele>
        <time>2026-02-28T11:34:50Z</time>
      </trkpt>
      <trkpt lat="43.35089" lon="-1.66859">
        <ele>92</ele>
        <time>2026-02-28T11:34:53Z</time>
      </trkpt>
      <trkpt lat="43.35108" lon="-1.66858">
        <ele>93</ele>
        <time>2026-02-28T11:34:56Z</time>
      </trkpt>
      <trkpt lat="43.35124" lon="-1.66846">
        <ele>93</ele>
        <time>2026-02-28T11:35:00Z</time>
      </trkpt>
      <trkpt lat="43.3518" lon="-1.66752">
        <ele>92</ele>
        <time>2026-02-28T11:35:15Z</time>
      </trkpt>
      <trkpt lat="43.35199" lon="-1.66734">
        <ele>91</ele>
        <time>2026-02-28T11:35:19Z</time>
      </trkpt>
      <trkpt lat="43.35212" lon="-1.66731">
        <ele>91</ele>
        <time>2026-02-28T11:35:22Z</time>
      </trkpt>
      <trkpt lat="43.35246" lon="-1.66735">
        <ele>93</ele>
        <time>2026-02-28T11:35:28Z</time>
      </trkpt>
      <trkpt lat="43.35265" lon="-1.66731">
        <ele>92</ele>
        <time>2026-02-28T11:35:31Z</time>
      </trkpt>
      <trkpt lat="43.35289" lon="-1.66718">
        <ele>91</ele>
        <time>2026-02-28T11:35:36Z</time>
      </trkpt>
      <trkpt lat="43.35301" lon="-1.66706">
        <ele>91</ele>
        <time>2026-02-28T11:35:39Z</time>
      </trkpt>
      <trkpt lat="43.35386" lon="-1.66666">
        <ele>97</ele>
        <time>2026-02-28T11:35:55Z</time>
      </trkpt>
      <trkpt lat="43.35428" lon="-1.6664">
        <ele>96</ele>
        <time>2026-02-28T11:36:03Z</time>
      </trkpt>
      <trkpt lat="43.35456" lon="-1.66613">
        <ele>94</ele>
        <time>2026-02-28T11:36:09Z</time>
      </trkpt>
      <trkpt lat="43.35478" lon="-1.66603">
        <ele>94</ele>
        <time>2026-02-28T11:36:13Z</time>
      </trkpt>
      <trkpt lat="43.3556" lon="-1.66589">
        <ele>90</ele>
        <time>2026-02-28T11:36:28Z</time>
      </trkpt>
      <trkpt lat="43.35628" lon="-1.66587">
        <ele>86</ele>
        <time>2026-02-28T11:36:40Z</time>
      </trkpt>
      <trkpt lat="43.3565" lon="-1.66574">
        <ele>84</ele>
        <time>2026-02-28T11:36:44Z</time>
      </trkpt>
      <trkpt lat="43.35682" lon="-1.66548">
        <ele>80</ele>
        <time>2026-02-28T11:36:51Z</time>
      </trkpt>
      <trkpt lat="43.35721" lon="-1.66497">
        <ele>77</ele>
        <time>2026-02-28T11:37:00Z</time>
      </trkpt>
      <trkpt lat="43.35739" lon="-1.66481">
        <ele>76</ele>
        <time>2026-02-28T11:37:04Z</time>
      </trkpt>
      <trkpt lat="43.35756" lon="-1.66471">
        <ele>76</ele>
        <time>2026-02-28T11:37:07Z</time>
      </trkpt>
      <trkpt lat="43.35819" lon="-1.66447">
        <ele>75</ele>
        <time>2026-02-28T11:37:19Z</time>
      </trkpt>
      <trkpt lat="43.35843" lon="-1.66442">
        <ele>76</ele>
        <time>2026-02-28T11:37:23Z</time>
      </trkpt>
      <trkpt lat="43.35868" lon="-1.66434">
        <ele>77</ele>
        <time>2026-02-28T11:37:28Z</time>
      </trkpt>
      <trkpt lat="43.35879" lon="-1.66427">
        <ele>78</ele>
        <time>2026-02-28T11:37:30Z</time>
      </trkpt>
      <trkpt lat="43.35887" lon="-1.66408">
        <ele>77</ele>
        <time>2026-02-28T11:37:33Z</time>
      </trkpt>
      <trkpt lat="43.35891" lon="-1.6638">
        <ele>76</ele>
        <time>2026-02-28T11:37:36Z</time>
      </trkpt>
      <trkpt lat="43.35896" lon="-1.66356">
        <ele>75</ele>
        <time>2026-02-28T11:37:40Z</time>
      </trkpt>
      <trkpt lat="43.35904" lon="-1.66343">
        <ele>75</ele>
        <time>2026-02-28T11:37:42Z</time>
      </trkpt>
      <trkpt lat="43.35921" lon="-1.66334">
        <ele>76</ele>
        <time>2026-02-28T11:37:45Z</time>
      </trkpt>
      <trkpt lat="43.35958" lon="-1.66324">
        <ele>76</ele>
        <time>2026-02-28T11:37:52Z</time>
      </trkpt>
      <trkpt lat="43.36052" lon="-1.66192">
        <ele>82</ele>
        <time>2026-02-28T11:38:16Z</time>
      </trkpt>
      <trkpt lat="43.36088" lon="-1.66137">
        <ele>83</ele>
        <time>2026-02-28T11:38:25Z</time>
      </trkpt>
      <trkpt lat="43.36116" lon="-1.66099">
        <ele>84</ele>
        <time>2026-02-28T11:38:32Z</time>
      </trkpt>
      <trkpt lat="43.36176" lon="-1.66069">
        <ele>86</ele>
        <time>2026-02-28T11:38:44Z</time>
      </trkpt>
      <trkpt lat="43.36203" lon="-1.66064">
        <ele>84</ele>
        <time>2026-02-28T11:38:49Z</time>
      </trkpt>
      <trkpt lat="43.36233" lon="-1.66076">
        <ele>81</ele>
        <time>2026-02-28T11:38:54Z</time>
      </trkpt>
      <trkpt lat="43.36256" lon="-1.66092">
        <ele>78</ele>
        <time>2026-02-28T11:38:59Z</time>
      </trkpt>
      <trkpt lat="43.3627" lon="-1.66093">
        <ele>77</ele>
        <time>2026-02-28T11:39:01Z</time>
      </trkpt>
      <trkpt lat="43.36327" lon="-1.66082">
        <ele>76</ele>
        <time>2026-02-28T11:39:11Z</time>
      </trkpt>
      <trkpt lat="43.3637" lon="-1.66054">
        <ele>75</ele>
        <time>2026-02-28T11:39:20Z</time>
      </trkpt>
      <trkpt lat="43.36417" lon="-1.65987">
        <ele>74</ele>
        <time>2026-02-28T11:39:32Z</time>
      </trkpt>
      <trkpt lat="43.36511" lon="-1.6582">
        <ele>68</ele>
        <time>2026-02-28T11:39:59Z</time>
      </trkpt>
      <trkpt lat="43.36524" lon="-1.65795">
        <ele>68</ele>
        <time>2026-02-28T11:40:03Z</time>
      </trkpt>
      <trkpt lat="43.36536" lon="-1.65765">
        <ele>68</ele>
        <time>2026-02-28T11:40:08Z</time>
      </trkpt>
      <trkpt lat="43.36558" lon="-1.65684">
        <ele>72</ele>
        <time>2026-02-28T11:40:19Z</time>
      </trkpt>
      <trkpt lat="43.36565" lon="-1.65674">
        <ele>74</ele>
        <time>2026-02-28T11:40:21Z</time>
      </trkpt>
      <trkpt lat="43.36584" lon="-1.65655">
        <ele>75</ele>
        <time>2026-02-28T11:40:25Z</time>
      </trkpt>
      <trkpt lat="43.36597" lon="-1.65644">
        <ele>73</ele>
        <time>2026-02-28T11:40:28Z</time>
      </trkpt>
      <trkpt lat="43.36614" lon="-1.65635">
        <ele>72</ele>
        <time>2026-02-28T11:40:31Z</time>
      </trkpt>
      <trkpt lat="43.36636" lon="-1.65628">
        <ele>71</ele>
        <time>2026-02-28T11:40:35Z</time>
      </trkpt>
      <trkpt lat="43.36653" lon="-1.65628">
        <ele>70</ele>
        <time>2026-02-28T11:40:38Z</time>
      </trkpt>
      <trkpt lat="43.36676" lon="-1.65632">
        <ele>69</ele>
        <time>2026-02-28T11:40:42Z</time>
      </trkpt>
      <trkpt lat="43.36703" lon="-1.65641">
        <ele>67</ele>
        <time>2026-02-28T11:40:47Z</time>
      </trkpt>
      <trkpt lat="43.36733" lon="-1.65656">
        <ele>66</ele>
        <time>2026-02-28T11:40:53Z</time>
      </trkpt>
      <trkpt lat="43.36766" lon="-1.6568">
        <ele>65</ele>
        <time>2026-02-28T11:40:59Z</time>
      </trkpt>
      <trkpt lat="43.36853" lon="-1.65724">
        <ele>63</ele>
        <time>2026-02-28T11:41:16Z</time>
      </trkpt>
      <trkpt lat="43.36916" lon="-1.65752">
        <ele>60</ele>
        <time>2026-02-28T11:41:27Z</time>
      </trkpt>
      <trkpt lat="43.36982" lon="-1.65775">
        <ele>57</ele>
        <time>2026-02-28T11:41:40Z</time>
      </trkpt>
      <trkpt lat="43.37079" lon="-1.6583">
        <ele>60</ele>
        <time>2026-02-28T11:41:58Z</time>
      </trkpt>
      <trkpt lat="43.37089" lon="-1.65839">
        <ele>59</ele>
        <time>2026-02-28T11:42:00Z</time>
      </trkpt>
      <trkpt lat="43.37097" lon="-1.65849">
        <ele>57</ele>
        <time>2026-02-28T11:42:02Z</time>
      </trkpt>
      <trkpt lat="43.37109" lon="-1.65882">
        <ele>52</ele>
        <time>2026-02-28T11:42:07Z</time>
      </trkpt>
      <trkpt lat="43.37114" lon="-1.65888">
        <ele>52</ele>
        <time>2026-02-28T11:42:08Z</time>
      </trkpt>
      <trkpt lat="43.37122" lon="-1.65894">
        <ele>52</ele>
        <time>2026-02-28T11:42:10Z</time>
      </trkpt>
      <trkpt lat="43.37138" lon="-1.65898">
        <ele>52</ele>
        <time>2026-02-28T11:42:13Z</time>
      </trkpt>
      <trkpt lat="43.37323" lon="-1.65911">
        <ele>39</ele>
        <time>2026-02-28T11:42:46Z</time>
      </trkpt>
      <trkpt lat="43.37333" lon="-1.65911">
        <ele>38</ele>
        <time>2026-02-28T11:42:48Z</time>
      </trkpt>
      <trkpt lat="43.37349" lon="-1.65906">
        <ele>38</ele>
        <time>2026-02-28T11:42:50Z</time>
      </trkpt>
      <trkpt lat="43.37401" lon="-1.65886">
        <ele>37</ele>
        <time>2026-02-28T11:43:00Z</time>
      </trkpt>
      <trkpt lat="43.37425" lon="-1.65876">
        <ele>37</ele>
        <time>2026-02-28T11:43:05Z</time>
      </trkpt>
      <trkpt lat="43.37455" lon="-1.65872">
        <ele>39</ele>
        <time>2026-02-28T11:43:10Z</time>
      </trkpt>
      <trkpt lat="43.37463" lon="-1.65873">
        <ele>40</ele>
        <time>2026-02-28T11:43:11Z</time>
      </trkpt>
      <trkpt lat="43.37461" lon="-1.65846">
        <ele>40</ele>
        <time>2026-02-28T11:43:15Z</time>
      </trkpt>
      <trkpt lat="43.37462" lon="-1.6584">
        <ele>40</ele>
        <time>2026-02-28T11:43:16Z</time>
      </trkpt>
      <trkpt lat="43.37541" lon="-1.65803">
        <ele>46</ele>
        <time>2026-02-28T11:43:30Z</time>
      </trkpt>
      <trkpt lat="43.3758" lon="-1.65811">
        <ele>48</ele>
        <time>2026-02-28T11:43:37Z</time>
      </trkpt>
      <trkpt lat="43.37634" lon="-1.65834">
        <ele>40</ele>
        <time>2026-02-28T11:43:48Z</time>
      </trkpt>
      <trkpt lat="43.37684" lon="-1.65844">
        <ele>33</ele>
        <time>2026-02-28T11:43:57Z</time>
      </trkpt>
      <trkpt lat="43.37723" lon="-1.65853">
        <ele>26</ele>
        <time>2026-02-28T11:44:04Z</time>
      </trkpt>
      <trkpt lat="43.3774" lon="-1.65864">
        <ele>24</ele>
        <time>2026-02-28T11:44:07Z</time>
      </trkpt>
      <trkpt lat="43.37752" lon="-1.65881">
        <ele>22</ele>
        <time>2026-02-28T11:44:10Z</time>
      </trkpt>
      <trkpt lat="43.37756" lon="-1.65879">
        <ele>22</ele>
        <time>2026-02-28T11:44:11Z</time>
      </trkpt>
      <trkpt lat="43.37766" lon="-1.65881">
        <ele>21</ele>
        <time>2026-02-28T11:44:13Z</time>
      </trkpt>
      <trkpt lat="43.37817" lon="-1.65922">
        <ele>17</ele>
        <time>2026-02-28T11:44:23Z</time>
      </trkpt>
      <trkpt lat="43.37834" lon="-1.65938">
        <ele>15</ele>
        <time>2026-02-28T11:44:27Z</time>
      </trkpt>
      <trkpt lat="43.37845" lon="-1.65954">
        <ele>14</ele>
        <time>2026-02-28T11:44:30Z</time>
      </trkpt>
      <trkpt lat="43.37862" lon="-1.65988">
        <ele>12</ele>
        <time>2026-02-28T11:44:35Z</time>
      </trkpt>
      <trkpt lat="43.37878" lon="-1.66012">
        <ele>10</ele>
        <time>2026-02-28T11:44:39Z</time>
      </trkpt>
      <trkpt lat="43.3789" lon="-1.66023">
        <ele>9</ele>
        <time>2026-02-28T11:44:42Z</time>
      </trkpt>
      <trkpt lat="43.37923" lon="-1.66042">
        <ele>8</ele>
        <time>2026-02-28T11:44:48Z</time>
      </trkpt>
      <trkpt lat="43.37967" lon="-1.66075">
        <ele>6</ele>
        <time>2026-02-28T11:44:57Z</time>
      </trkpt>
      <trkpt lat="43.37989" lon="-1.66095">
        <ele>5</ele>
        <time>2026-02-28T11:45:02Z</time>
      </trkpt>
      <trkpt lat="43.38005" lon="-1.66115">
        <ele>5</ele>
        <time>2026-02-28T11:45:05Z</time>
      </trkpt>
      <trkpt lat="43.38033" lon="-1.6614">
        <ele>6</ele>
        <time>2026-02-28T11:45:11Z</time>
      </trkpt>
      <trkpt lat="43.38015" lon="-1.6616">
        <ele>5</ele>
        <time>2026-02-28T11:45:16Z</time>
      </trkpt>
      <trkpt lat="43.38001" lon="-1.66189">
        <ele>5</ele>
        <time>2026-02-28T11:45:20Z</time>
      </trkpt>
      <trkpt lat="43.38012" lon="-1.66221">
        <ele>5</ele>
        <time>2026-02-28T11:45:25Z</time>
      </trkpt>
      <trkpt lat="43.38026" lon="-1.66242">
        <ele>4</ele>
        <time>2026-02-28T11:45:28Z</time>
      </trkpt>
      <trkpt lat="43.38037" lon="-1.66252">
        <ele>4</ele>
        <time>2026-02-28T11:45:31Z</time>
      </trkpt>
      <trkpt lat="43.38072" lon="-1.6627">
        <ele>5</ele>
        <time>2026-02-28T11:45:37Z</time>
      </trkpt>
      <trkpt lat="43.38085" lon="-1.66281">
        <ele>5</ele>
        <time>2026-02-28T11:45:40Z</time>
      </trkpt>
      <trkpt lat="43.38093" lon="-1.66296">
        <ele>5</ele>
        <time>2026-02-28T11:45:42Z</time>
      </trkpt>
      <trkpt lat="43.38108" lon="-1.66404">
        <ele>6</ele>
        <time>2026-02-28T11:45:57Z</time>
      </trkpt>
      <trkpt lat="43.38118" lon="-1.66429">
        <ele>5</ele>
        <time>2026-02-28T11:46:00Z</time>
      </trkpt>
      <trkpt lat="43.38129" lon="-1.66448">
        <ele>5</ele>
        <time>2026-02-28T11:46:03Z</time>
      </trkpt>
      <trkpt lat="43.38141" lon="-1.66462">
        <ele>4</ele>
        <time>2026-02-28T11:46:06Z</time>
      </trkpt>
      <trkpt lat="43.38223" lon="-1.66552">
        <ele>3</ele>
        <time>2026-02-28T11:46:25Z</time>
      </trkpt>
      <trkpt lat="43.38274" lon="-1.66679">
        <ele>5</ele>
        <time>2026-02-28T11:46:44Z</time>
      </trkpt>
      <trkpt lat="43.38286" lon="-1.66703">
        <ele>6</ele>
        <time>2026-02-28T11:46:47Z</time>
      </trkpt>
      <trkpt lat="43.38305" lon="-1.66747">
        <ele>7</ele>
        <time>2026-02-28T11:46:54Z</time>
      </trkpt>
      <trkpt lat="43.38314" lon="-1.6676">
        <ele>7</ele>
        <time>2026-02-28T11:46:56Z</time>
      </trkpt>
      <trkpt lat="43.38344" lon="-1.66759">
        <ele>7</ele>
        <time>2026-02-28T11:47:02Z</time>
      </trkpt>
      <trkpt lat="43.38366" lon="-1.66755">
        <ele>6</ele>
        <time>2026-02-28T11:47:06Z</time>
      </trkpt>
      <trkpt lat="43.38378" lon="-1.66744">
        <ele>5</ele>
        <time>2026-02-28T11:47:08Z</time>
      </trkpt>
      <trkpt lat="43.38449" lon="-1.66646">
        <ele>4</ele>
        <time>2026-02-28T11:47:26Z</time>
      </trkpt>
      <trkpt lat="43.38446" lon="-1.66639">
        <ele>4</ele>
        <time>2026-02-28T11:47:27Z</time>
      </trkpt>
      <trkpt lat="43.38446" lon="-1.66631">
        <ele>4</ele>
        <time>2026-02-28T11:47:28Z</time>
      </trkpt>
      <trkpt lat="43.38411" lon="-1.66589">
        <ele>4</ele>
        <time>2026-02-28T11:47:37Z</time>
      </trkpt>
      <trkpt lat="43.38408" lon="-1.66568">
        <ele>4</ele>
        <time>2026-02-28T11:47:39Z</time>
      </trkpt>
      <trkpt lat="43.38416" lon="-1.66546">
        <ele>4</ele>
        <time>2026-02-28T11:47:42Z</time>
      </trkpt>
      <trkpt lat="43.38482" lon="-1.6642">
        <ele>5</ele>
        <time>2026-02-28T11:48:03Z</time>
      </trkpt>
      <trkpt lat="43.38517" lon="-1.66346">
        <ele>2</ele>
        <time>2026-02-28T11:48:14Z</time>
      </trkpt>
      <trkpt lat="43.38548" lon="-1.66274">
        <ele>3</ele>
        <time>2026-02-28T11:48:25Z</time>
      </trkpt>
      <trkpt lat="43.38558" lon="-1.6625">
        <ele>3</ele>
        <time>2026-02-28T11:48:28Z</time>
      </trkpt>
      <trkpt lat="43.38566" lon="-1.66229">
        <ele>3</ele>
        <time>2026-02-28T11:48:31Z</time>
      </trkpt>
      <trkpt lat="43.38574" lon="-1.66212">
        <ele>4</ele>
        <time>2026-02-28T11:48:34Z</time>
      </trkpt>
      <trkpt lat="43.38589" lon="-1.66194">
        <ele>4</ele>
        <time>2026-02-28T11:48:38Z</time>
      </trkpt>
      <trkpt lat="43.3859" lon="-1.66189">
        <ele>4</ele>
        <time>2026-02-28T11:48:38Z</time>
      </trkpt>
      <trkpt lat="43.38593" lon="-1.66178">
        <ele>4</ele>
        <time>2026-02-28T11:48:40Z</time>
      </trkpt>
      <trkpt lat="43.38598" lon="-1.66173">
        <ele>5</ele>
        <time>2026-02-28T11:48:41Z</time>
      </trkpt>
      <trkpt lat="43.38603" lon="-1.6617">
        <ele>5</ele>
        <time>2026-02-28T11:48:42Z</time>
      </trkpt>
      <trkpt lat="43.38609" lon="-1.6617">
        <ele>5</ele>
        <time>2026-02-28T11:48:43Z</time>
      </trkpt>
      <trkpt lat="43.38615" lon="-1.66172">
        <ele>6</ele>
        <time>2026-02-28T11:48:44Z</time>
      </trkpt>
      <trkpt lat="43.38623" lon="-1.66181">
        <ele>6</ele>
        <time>2026-02-28T11:48:46Z</time>
      </trkpt>
      <trkpt lat="43.38625" lon="-1.66195">
        <ele>5</ele>
        <time>2026-02-28T11:48:48Z</time>
      </trkpt>
      <trkpt lat="43.3863" lon="-1.66198">
        <ele>6</ele>
        <time>2026-02-28T11:48:49Z</time>
      </trkpt>
      <trkpt lat="43.38655" lon="-1.66271">
        <ele>3</ele>
        <time>2026-02-28T11:48:59Z</time>
      </trkpt>
    </trkseg>
  </trk>
</gpx>